<?xml version="1.0" encoding="UTF-8" standalone="no" ?>
<gpx xmlns="http://www.topografix.com/GPX/1/1" xmlns:xsi="http://www.w3.org/2001/XMLSchema-instance" xsi:schemaLocation="http://www.topografix.com/GPX/1/1 http://www.topografix.com/GPX/1/1/gpx.xsd" version="1.1" creator="VisuGPX - https://www.visugpx.com">
  <metadata>
    <name>CHALO_SAINT_MARS_ST_HILAIRE</name>
    <desc><![CDATA[AVF Antony CHALO_SAINT_MARS_ST_HILAIRE]]></desc>
  </metadata>
  <trk>
    <name><![CDATA[ACTIVE LOG]]></name>
    <trkseg>
      <trkpt lat="48.43309" lon="2.07622">
        <ele>49.645264</ele>
        <time>2009-03-15T09:03:46Z</time>
      </trkpt>
      <trkpt lat="48.43312" lon="2.07615">
        <ele>49.645264</ele>
        <time>2009-03-15T09:07:15Z</time>
      </trkpt>
      <trkpt lat="48.43312" lon="2.07617">
        <ele>49.645264</ele>
        <time>2009-03-15T09:07:20Z</time>
      </trkpt>
      <trkpt lat="48.43305" lon="2.07627">
        <ele>49.164551</ele>
        <time>2009-03-15T09:07:27Z</time>
      </trkpt>
      <trkpt lat="48.43307" lon="2.07624">
        <ele>49.164551</ele>
        <time>2009-03-15T09:07:32Z</time>
      </trkpt>
      <trkpt lat="48.43309" lon="2.07622">
        <ele>49.645264</ele>
        <time>2009-03-15T09:07:37Z</time>
      </trkpt>
      <trkpt lat="48.43314" lon="2.07612">
        <ele>49.645264</ele>
        <time>2009-03-15T09:07:44Z</time>
      </trkpt>
      <trkpt lat="48.43319" lon="2.07612">
        <ele>48.68396</ele>
        <time>2009-03-15T09:07:47Z</time>
      </trkpt>
      <trkpt lat="48.4333" lon="2.07605">
        <ele>49.645264</ele>
        <time>2009-03-15T09:07:54Z</time>
      </trkpt>
      <trkpt lat="48.43331" lon="2.07601">
        <ele>49.645264</ele>
        <time>2009-03-15T09:08:02Z</time>
      </trkpt>
      <trkpt lat="48.43332" lon="2.07597">
        <ele>50.125977</ele>
        <time>2009-03-15T09:08:09Z</time>
      </trkpt>
      <trkpt lat="48.43333" lon="2.07591">
        <ele>49.645264</ele>
        <time>2009-03-15T09:08:22Z</time>
      </trkpt>
      <trkpt lat="48.43337" lon="2.07585">
        <ele>49.164551</ele>
        <time>2009-03-15T09:08:32Z</time>
      </trkpt>
      <trkpt lat="48.43337" lon="2.07586">
        <ele>49.164551</ele>
        <time>2009-03-15T09:08:53Z</time>
      </trkpt>
      <trkpt lat="48.4334" lon="2.07592">
        <ele>50.125977</ele>
        <time>2009-03-15T09:09:03Z</time>
      </trkpt>
      <trkpt lat="48.43342" lon="2.07598">
        <ele>48.68396</ele>
        <time>2009-03-15T09:09:10Z</time>
      </trkpt>
      <trkpt lat="48.43341" lon="2.07607">
        <ele>49.645264</ele>
        <time>2009-03-15T09:09:15Z</time>
      </trkpt>
      <trkpt lat="48.43345" lon="2.07612">
        <ele>48.68396</ele>
        <time>2009-03-15T09:09:18Z</time>
      </trkpt>
      <trkpt lat="48.43352" lon="2.07616">
        <ele>49.645264</ele>
        <time>2009-03-15T09:09:26Z</time>
      </trkpt>
      <trkpt lat="48.43355" lon="2.0762">
        <ele>49.645264</ele>
        <time>2009-03-15T09:09:34Z</time>
      </trkpt>
      <trkpt lat="48.43357" lon="2.0763">
        <ele>50.125977</ele>
        <time>2009-03-15T09:09:39Z</time>
      </trkpt>
      <trkpt lat="48.43357" lon="2.07644">
        <ele>50.606567</ele>
        <time>2009-03-15T09:09:46Z</time>
      </trkpt>
      <trkpt lat="48.43364" lon="2.07651">
        <ele>50.606567</ele>
        <time>2009-03-15T09:09:51Z</time>
      </trkpt>
      <trkpt lat="48.43365" lon="2.07662">
        <ele>50.606567</ele>
        <time>2009-03-15T09:09:56Z</time>
      </trkpt>
      <trkpt lat="48.43365" lon="2.07669">
        <ele>51.567871</ele>
        <time>2009-03-15T09:10:00Z</time>
      </trkpt>
      <trkpt lat="48.43371" lon="2.07683">
        <ele>51.567871</ele>
        <time>2009-03-15T09:10:08Z</time>
      </trkpt>
      <trkpt lat="48.43376" lon="2.07694">
        <ele>52.048584</ele>
        <time>2009-03-15T09:10:15Z</time>
      </trkpt>
      <trkpt lat="48.43382" lon="2.07706">
        <ele>52.529175</ele>
        <time>2009-03-15T09:10:23Z</time>
      </trkpt>
      <trkpt lat="48.43384" lon="2.07715">
        <ele>52.529175</ele>
        <time>2009-03-15T09:10:31Z</time>
      </trkpt>
      <trkpt lat="48.43385" lon="2.0772">
        <ele>52.529175</ele>
        <time>2009-03-15T09:10:47Z</time>
      </trkpt>
      <trkpt lat="48.43385" lon="2.07723">
        <ele>52.529175</ele>
        <time>2009-03-15T09:10:49Z</time>
      </trkpt>
      <trkpt lat="48.43382" lon="2.07734">
        <ele>53.490479</ele>
        <time>2009-03-15T09:10:57Z</time>
      </trkpt>
      <trkpt lat="48.43377" lon="2.07744">
        <ele>53.971191</ele>
        <time>2009-03-15T09:11:06Z</time>
      </trkpt>
      <trkpt lat="48.43373" lon="2.07745">
        <ele>53.971191</ele>
        <time>2009-03-15T09:11:10Z</time>
      </trkpt>
      <trkpt lat="48.43369" lon="2.07746">
        <ele>54.451782</ele>
        <time>2009-03-15T09:11:13Z</time>
      </trkpt>
      <trkpt lat="48.4336" lon="2.0775">
        <ele>53.971191</ele>
        <time>2009-03-15T09:11:21Z</time>
      </trkpt>
      <trkpt lat="48.43356" lon="2.07752">
        <ele>54.451782</ele>
        <time>2009-03-15T09:11:24Z</time>
      </trkpt>
      <trkpt lat="48.43351" lon="2.07753">
        <ele>54.451782</ele>
        <time>2009-03-15T09:11:28Z</time>
      </trkpt>
      <trkpt lat="48.43349" lon="2.07756">
        <ele>54.451782</ele>
        <time>2009-03-15T09:11:31Z</time>
      </trkpt>
      <trkpt lat="48.4334" lon="2.07758">
        <ele>54.932373</ele>
        <time>2009-03-15T09:11:39Z</time>
      </trkpt>
      <trkpt lat="48.43328" lon="2.07764">
        <ele>55.413086</ele>
        <time>2009-03-15T09:11:48Z</time>
      </trkpt>
      <trkpt lat="48.43321" lon="2.07771">
        <ele>55.893799</ele>
        <time>2009-03-15T09:11:56Z</time>
      </trkpt>
      <trkpt lat="48.43316" lon="2.07776">
        <ele>56.855103</ele>
        <time>2009-03-15T09:12:02Z</time>
      </trkpt>
      <trkpt lat="48.43308" lon="2.07785">
        <ele>58.297119</ele>
        <time>2009-03-15T09:12:10Z</time>
      </trkpt>
      <trkpt lat="48.43308" lon="2.07792">
        <ele>59.739136</ele>
        <time>2009-03-15T09:12:17Z</time>
      </trkpt>
      <trkpt lat="48.43304" lon="2.07802">
        <ele>60.700317</ele>
        <time>2009-03-15T09:12:27Z</time>
      </trkpt>
      <trkpt lat="48.43304" lon="2.07818">
        <ele>62.142334</ele>
        <time>2009-03-15T09:12:36Z</time>
      </trkpt>
      <trkpt lat="48.43304" lon="2.07828">
        <ele>62.622925</ele>
        <time>2009-03-15T09:12:45Z</time>
      </trkpt>
      <trkpt lat="48.43305" lon="2.07841">
        <ele>64.545654</ele>
        <time>2009-03-15T09:12:54Z</time>
      </trkpt>
      <trkpt lat="48.43305" lon="2.07848">
        <ele>65.026367</ele>
        <time>2009-03-15T09:13:03Z</time>
      </trkpt>
      <trkpt lat="48.43305" lon="2.07857">
        <ele>65.987671</ele>
        <time>2009-03-15T09:13:08Z</time>
      </trkpt>
      <trkpt lat="48.43304" lon="2.07868">
        <ele>66.948975</ele>
        <time>2009-03-15T09:13:17Z</time>
      </trkpt>
      <trkpt lat="48.43304" lon="2.07878">
        <ele>68.390869</ele>
        <time>2009-03-15T09:13:24Z</time>
      </trkpt>
      <trkpt lat="48.43303" lon="2.07889">
        <ele>69.352295</ele>
        <time>2009-03-15T09:13:32Z</time>
      </trkpt>
      <trkpt lat="48.43303" lon="2.07899">
        <ele>70.794189</ele>
        <time>2009-03-15T09:13:40Z</time>
      </trkpt>
      <trkpt lat="48.43303" lon="2.07906">
        <ele>72.236206</ele>
        <time>2009-03-15T09:13:48Z</time>
      </trkpt>
      <trkpt lat="48.43304" lon="2.07914">
        <ele>73.197632</ele>
        <time>2009-03-15T09:13:56Z</time>
      </trkpt>
      <trkpt lat="48.43307" lon="2.07923">
        <ele>74.158813</ele>
        <time>2009-03-15T09:14:04Z</time>
      </trkpt>
      <trkpt lat="48.43311" lon="2.07932">
        <ele>75.120239</ele>
        <time>2009-03-15T09:14:11Z</time>
      </trkpt>
      <trkpt lat="48.43312" lon="2.0794">
        <ele>76.081421</ele>
        <time>2009-03-15T09:14:18Z</time>
      </trkpt>
      <trkpt lat="48.43315" lon="2.07947">
        <ele>77.042847</ele>
        <time>2009-03-15T09:14:25Z</time>
      </trkpt>
      <trkpt lat="48.43317" lon="2.07954">
        <ele>77.523438</ele>
        <time>2009-03-15T09:14:31Z</time>
      </trkpt>
      <trkpt lat="48.43318" lon="2.07969">
        <ele>78.484741</ele>
        <time>2009-03-15T09:14:39Z</time>
      </trkpt>
      <trkpt lat="48.4332" lon="2.07978">
        <ele>79.446045</ele>
        <time>2009-03-15T09:14:46Z</time>
      </trkpt>
      <trkpt lat="48.43322" lon="2.07982">
        <ele>80.407471</ele>
        <time>2009-03-15T09:14:55Z</time>
      </trkpt>
      <trkpt lat="48.43322" lon="2.07991">
        <ele>80.888184</ele>
        <time>2009-03-15T09:15:24Z</time>
      </trkpt>
      <trkpt lat="48.43322" lon="2.07992">
        <ele>80.888184</ele>
        <time>2009-03-15T09:15:25Z</time>
      </trkpt>
      <trkpt lat="48.43324" lon="2.08002">
        <ele>82.330078</ele>
        <time>2009-03-15T09:15:33Z</time>
      </trkpt>
      <trkpt lat="48.43324" lon="2.08013">
        <ele>84.252686</ele>
        <time>2009-03-15T09:15:42Z</time>
      </trkpt>
      <trkpt lat="48.43323" lon="2.08025">
        <ele>85.69458</ele>
        <time>2009-03-15T09:15:51Z</time>
      </trkpt>
      <trkpt lat="48.43322" lon="2.08036">
        <ele>87.136597</ele>
        <time>2009-03-15T09:15:59Z</time>
      </trkpt>
      <trkpt lat="48.43321" lon="2.08048">
        <ele>88.578735</ele>
        <time>2009-03-15T09:16:08Z</time>
      </trkpt>
      <trkpt lat="48.43318" lon="2.08062">
        <ele>90.02063</ele>
        <time>2009-03-15T09:16:18Z</time>
      </trkpt>
      <trkpt lat="48.43316" lon="2.08073">
        <ele>90.981934</ele>
        <time>2009-03-15T09:16:27Z</time>
      </trkpt>
      <trkpt lat="48.43314" lon="2.08081">
        <ele>92.42395</ele>
        <time>2009-03-15T09:16:35Z</time>
      </trkpt>
      <trkpt lat="48.43309" lon="2.08092">
        <ele>92.904541</ele>
        <time>2009-03-15T09:16:44Z</time>
      </trkpt>
      <trkpt lat="48.43308" lon="2.081">
        <ele>94.346558</ele>
        <time>2009-03-15T09:16:54Z</time>
      </trkpt>
      <trkpt lat="48.43308" lon="2.08111">
        <ele>95.307739</ele>
        <time>2009-03-15T09:17:03Z</time>
      </trkpt>
      <trkpt lat="48.43308" lon="2.08122">
        <ele>96.269287</ele>
        <time>2009-03-15T09:17:12Z</time>
      </trkpt>
      <trkpt lat="48.43309" lon="2.08133">
        <ele>97.230469</ele>
        <time>2009-03-15T09:17:20Z</time>
      </trkpt>
      <trkpt lat="48.43308" lon="2.08143">
        <ele>98.672485</ele>
        <time>2009-03-15T09:17:28Z</time>
      </trkpt>
      <trkpt lat="48.4331" lon="2.08152">
        <ele>99.633789</ele>
        <time>2009-03-15T09:17:40Z</time>
      </trkpt>
      <trkpt lat="48.43312" lon="2.08159">
        <ele>100.114502</ele>
        <time>2009-03-15T09:17:47Z</time>
      </trkpt>
      <trkpt lat="48.43312" lon="2.08161">
        <ele>101.075684</ele>
        <time>2009-03-15T09:17:49Z</time>
      </trkpt>
      <trkpt lat="48.43316" lon="2.08175">
        <ele>101.556396</ele>
        <time>2009-03-15T09:17:58Z</time>
      </trkpt>
      <trkpt lat="48.43318" lon="2.0819">
        <ele>102.998291</ele>
        <time>2009-03-15T09:18:06Z</time>
      </trkpt>
      <trkpt lat="48.43322" lon="2.082">
        <ele>103.479004</ele>
        <time>2009-03-15T09:18:14Z</time>
      </trkpt>
      <trkpt lat="48.43327" lon="2.08211">
        <ele>103.959717</ele>
        <time>2009-03-15T09:18:23Z</time>
      </trkpt>
      <trkpt lat="48.4333" lon="2.08219">
        <ele>103.959717</ele>
        <time>2009-03-15T09:18:29Z</time>
      </trkpt>
      <trkpt lat="48.43336" lon="2.08228">
        <ele>104.44043</ele>
        <time>2009-03-15T09:18:37Z</time>
      </trkpt>
      <trkpt lat="48.43341" lon="2.08237">
        <ele>104.921021</ele>
        <time>2009-03-15T09:18:45Z</time>
      </trkpt>
      <trkpt lat="48.43346" lon="2.08245">
        <ele>104.921021</ele>
        <time>2009-03-15T09:18:52Z</time>
      </trkpt>
      <trkpt lat="48.43353" lon="2.08256">
        <ele>105.401733</ele>
        <time>2009-03-15T09:19:01Z</time>
      </trkpt>
      <trkpt lat="48.4336" lon="2.08266">
        <ele>105.882446</ele>
        <time>2009-03-15T09:19:09Z</time>
      </trkpt>
      <trkpt lat="48.43365" lon="2.08274">
        <ele>105.882446</ele>
        <time>2009-03-15T09:19:16Z</time>
      </trkpt>
      <trkpt lat="48.43366" lon="2.08274">
        <ele>105.882446</ele>
        <time>2009-03-15T09:19:17Z</time>
      </trkpt>
      <trkpt lat="48.43374" lon="2.0828">
        <ele>106.363037</ele>
        <time>2009-03-15T09:19:27Z</time>
      </trkpt>
      <trkpt lat="48.43376" lon="2.08282">
        <ele>106.843628</ele>
        <time>2009-03-15T09:19:30Z</time>
      </trkpt>
      <trkpt lat="48.43384" lon="2.08288">
        <ele>106.843628</ele>
        <time>2009-03-15T09:19:38Z</time>
      </trkpt>
      <trkpt lat="48.43389" lon="2.08291">
        <ele>106.843628</ele>
        <time>2009-03-15T09:19:42Z</time>
      </trkpt>
      <trkpt lat="48.43398" lon="2.08297">
        <ele>106.843628</ele>
        <time>2009-03-15T09:19:50Z</time>
      </trkpt>
      <trkpt lat="48.43404" lon="2.083">
        <ele>107.805054</ele>
        <time>2009-03-15T09:19:57Z</time>
      </trkpt>
      <trkpt lat="48.43412" lon="2.08304">
        <ele>107.805054</ele>
        <time>2009-03-15T09:20:05Z</time>
      </trkpt>
      <trkpt lat="48.43423" lon="2.08309">
        <ele>108.285645</ele>
        <time>2009-03-15T09:20:14Z</time>
      </trkpt>
      <trkpt lat="48.43431" lon="2.08313">
        <ele>108.285645</ele>
        <time>2009-03-15T09:20:22Z</time>
      </trkpt>
      <trkpt lat="48.4344" lon="2.08318">
        <ele>108.285645</ele>
        <time>2009-03-15T09:20:30Z</time>
      </trkpt>
      <trkpt lat="48.43447" lon="2.08323">
        <ele>108.766235</ele>
        <time>2009-03-15T09:20:38Z</time>
      </trkpt>
      <trkpt lat="48.43452" lon="2.08327">
        <ele>108.766235</ele>
        <time>2009-03-15T09:20:45Z</time>
      </trkpt>
      <trkpt lat="48.4346" lon="2.08332">
        <ele>108.285645</ele>
        <time>2009-03-15T09:20:52Z</time>
      </trkpt>
      <trkpt lat="48.43466" lon="2.08334">
        <ele>108.766235</ele>
        <time>2009-03-15T09:20:59Z</time>
      </trkpt>
      <trkpt lat="48.43472" lon="2.08338">
        <ele>108.766235</ele>
        <time>2009-03-15T09:21:06Z</time>
      </trkpt>
      <trkpt lat="48.4348" lon="2.08343">
        <ele>108.766235</ele>
        <time>2009-03-15T09:21:15Z</time>
      </trkpt>
      <trkpt lat="48.43483" lon="2.08351">
        <ele>108.766235</ele>
        <time>2009-03-15T09:21:24Z</time>
      </trkpt>
      <trkpt lat="48.4349" lon="2.08353">
        <ele>109.246948</ele>
        <time>2009-03-15T09:21:34Z</time>
      </trkpt>
      <trkpt lat="48.43487" lon="2.08351">
        <ele>108.766235</ele>
        <time>2009-03-15T09:21:42Z</time>
      </trkpt>
      <trkpt lat="48.43483" lon="2.08351">
        <ele>108.766235</ele>
        <time>2009-03-15T09:21:45Z</time>
      </trkpt>
      <trkpt lat="48.4348" lon="2.08363">
        <ele>108.766235</ele>
        <time>2009-03-15T09:21:54Z</time>
      </trkpt>
      <trkpt lat="48.43479" lon="2.0838">
        <ele>108.766235</ele>
        <time>2009-03-15T09:22:03Z</time>
      </trkpt>
      <trkpt lat="48.43479" lon="2.08391">
        <ele>108.285645</ele>
        <time>2009-03-15T09:22:10Z</time>
      </trkpt>
      <trkpt lat="48.43479" lon="2.08407">
        <ele>108.285645</ele>
        <time>2009-03-15T09:22:19Z</time>
      </trkpt>
      <trkpt lat="48.4348" lon="2.08413">
        <ele>108.285645</ele>
        <time>2009-03-15T09:22:22Z</time>
      </trkpt>
      <trkpt lat="48.43481" lon="2.08425">
        <ele>108.285645</ele>
        <time>2009-03-15T09:22:31Z</time>
      </trkpt>
      <trkpt lat="48.43482" lon="2.08435">
        <ele>108.285645</ele>
        <time>2009-03-15T09:22:37Z</time>
      </trkpt>
      <trkpt lat="48.43483" lon="2.08442">
        <ele>108.766235</ele>
        <time>2009-03-15T09:22:44Z</time>
      </trkpt>
      <trkpt lat="48.43482" lon="2.0845">
        <ele>108.285645</ele>
        <time>2009-03-15T09:22:50Z</time>
      </trkpt>
      <trkpt lat="48.43483" lon="2.08452">
        <ele>108.285645</ele>
        <time>2009-03-15T09:22:51Z</time>
      </trkpt>
      <trkpt lat="48.43484" lon="2.08465">
        <ele>108.766235</ele>
        <time>2009-03-15T09:22:59Z</time>
      </trkpt>
      <trkpt lat="48.43484" lon="2.08477">
        <ele>108.285645</ele>
        <time>2009-03-15T09:23:06Z</time>
      </trkpt>
      <trkpt lat="48.43485" lon="2.08489">
        <ele>108.285645</ele>
        <time>2009-03-15T09:23:12Z</time>
      </trkpt>
      <trkpt lat="48.43488" lon="2.08508">
        <ele>108.285645</ele>
        <time>2009-03-15T09:23:22Z</time>
      </trkpt>
      <trkpt lat="48.43489" lon="2.08524">
        <ele>108.766235</ele>
        <time>2009-03-15T09:23:30Z</time>
      </trkpt>
      <trkpt lat="48.4349" lon="2.08542">
        <ele>108.766235</ele>
        <time>2009-03-15T09:23:39Z</time>
      </trkpt>
      <trkpt lat="48.4349" lon="2.08561">
        <ele>108.285645</ele>
        <time>2009-03-15T09:23:49Z</time>
      </trkpt>
      <trkpt lat="48.43491" lon="2.08577">
        <ele>108.766235</ele>
        <time>2009-03-15T09:23:56Z</time>
      </trkpt>
      <trkpt lat="48.4349" lon="2.08592">
        <ele>108.285645</ele>
        <time>2009-03-15T09:24:04Z</time>
      </trkpt>
      <trkpt lat="48.4349" lon="2.08604">
        <ele>108.766235</ele>
        <time>2009-03-15T09:24:10Z</time>
      </trkpt>
      <trkpt lat="48.4349" lon="2.08609">
        <ele>108.766235</ele>
        <time>2009-03-15T09:24:13Z</time>
      </trkpt>
      <trkpt lat="48.43491" lon="2.08616">
        <ele>108.766235</ele>
        <time>2009-03-15T09:24:17Z</time>
      </trkpt>
      <trkpt lat="48.43491" lon="2.0863">
        <ele>109.246948</ele>
        <time>2009-03-15T09:24:26Z</time>
      </trkpt>
      <trkpt lat="48.43491" lon="2.08642">
        <ele>108.766235</ele>
        <time>2009-03-15T09:24:33Z</time>
      </trkpt>
      <trkpt lat="48.43491" lon="2.08659">
        <ele>108.766235</ele>
        <time>2009-03-15T09:24:40Z</time>
      </trkpt>
      <trkpt lat="48.4349" lon="2.08679">
        <ele>108.766235</ele>
        <time>2009-03-15T09:24:52Z</time>
      </trkpt>
      <trkpt lat="48.4349" lon="2.08693">
        <ele>108.766235</ele>
        <time>2009-03-15T09:24:59Z</time>
      </trkpt>
      <trkpt lat="48.4349" lon="2.08707">
        <ele>109.246948</ele>
        <time>2009-03-15T09:25:07Z</time>
      </trkpt>
      <trkpt lat="48.4349" lon="2.08722">
        <ele>109.246948</ele>
        <time>2009-03-15T09:25:16Z</time>
      </trkpt>
      <trkpt lat="48.43489" lon="2.08738">
        <ele>108.766235</ele>
        <time>2009-03-15T09:25:24Z</time>
      </trkpt>
      <trkpt lat="48.43488" lon="2.08752">
        <ele>108.766235</ele>
        <time>2009-03-15T09:25:33Z</time>
      </trkpt>
      <trkpt lat="48.43487" lon="2.08766">
        <ele>108.766235</ele>
        <time>2009-03-15T09:25:41Z</time>
      </trkpt>
      <trkpt lat="48.43487" lon="2.08781">
        <ele>109.246948</ele>
        <time>2009-03-15T09:25:49Z</time>
      </trkpt>
      <trkpt lat="48.43486" lon="2.08793">
        <ele>108.766235</ele>
        <time>2009-03-15T09:25:56Z</time>
      </trkpt>
      <trkpt lat="48.43484" lon="2.08811">
        <ele>108.766235</ele>
        <time>2009-03-15T09:26:06Z</time>
      </trkpt>
      <trkpt lat="48.43484" lon="2.08829">
        <ele>108.766235</ele>
        <time>2009-03-15T09:26:14Z</time>
      </trkpt>
      <trkpt lat="48.43482" lon="2.08842">
        <ele>108.766235</ele>
        <time>2009-03-15T09:26:22Z</time>
      </trkpt>
      <trkpt lat="48.43479" lon="2.08859">
        <ele>108.766235</ele>
        <time>2009-03-15T09:26:31Z</time>
      </trkpt>
      <trkpt lat="48.43475" lon="2.08874">
        <ele>108.766235</ele>
        <time>2009-03-15T09:26:39Z</time>
      </trkpt>
      <trkpt lat="48.43472" lon="2.08891">
        <ele>108.766235</ele>
        <time>2009-03-15T09:26:49Z</time>
      </trkpt>
      <trkpt lat="48.4347" lon="2.08907">
        <ele>108.766235</ele>
        <time>2009-03-15T09:26:58Z</time>
      </trkpt>
      <trkpt lat="48.43467" lon="2.08916">
        <ele>108.766235</ele>
        <time>2009-03-15T09:27:06Z</time>
      </trkpt>
      <trkpt lat="48.43465" lon="2.08926">
        <ele>108.766235</ele>
        <time>2009-03-15T09:27:13Z</time>
      </trkpt>
      <trkpt lat="48.43463" lon="2.08937">
        <ele>108.766235</ele>
        <time>2009-03-15T09:27:21Z</time>
      </trkpt>
      <trkpt lat="48.4346" lon="2.08953">
        <ele>109.246948</ele>
        <time>2009-03-15T09:27:30Z</time>
      </trkpt>
      <trkpt lat="48.43457" lon="2.08964">
        <ele>108.766235</ele>
        <time>2009-03-15T09:27:37Z</time>
      </trkpt>
      <trkpt lat="48.43452" lon="2.08977">
        <ele>109.246948</ele>
        <time>2009-03-15T09:27:46Z</time>
      </trkpt>
      <trkpt lat="48.43449" lon="2.08988">
        <ele>109.246948</ele>
        <time>2009-03-15T09:27:53Z</time>
      </trkpt>
      <trkpt lat="48.43446" lon="2.08995">
        <ele>108.766235</ele>
        <time>2009-03-15T09:27:58Z</time>
      </trkpt>
      <trkpt lat="48.43443" lon="2.08999">
        <ele>108.766235</ele>
        <time>2009-03-15T09:28:04Z</time>
      </trkpt>
      <trkpt lat="48.43437" lon="2.09007">
        <ele>108.285645</ele>
        <time>2009-03-15T09:28:10Z</time>
      </trkpt>
      <trkpt lat="48.4343" lon="2.09017">
        <ele>108.285645</ele>
        <time>2009-03-15T09:28:18Z</time>
      </trkpt>
      <trkpt lat="48.4342" lon="2.09033">
        <ele>108.285645</ele>
        <time>2009-03-15T09:28:29Z</time>
      </trkpt>
      <trkpt lat="48.43414" lon="2.09041">
        <ele>108.766235</ele>
        <time>2009-03-15T09:28:36Z</time>
      </trkpt>
      <trkpt lat="48.43412" lon="2.09046">
        <ele>108.766235</ele>
        <time>2009-03-15T09:28:39Z</time>
      </trkpt>
      <trkpt lat="48.43411" lon="2.09064">
        <ele>108.285645</ele>
        <time>2009-03-15T09:28:49Z</time>
      </trkpt>
      <trkpt lat="48.43408" lon="2.09078">
        <ele>108.285645</ele>
        <time>2009-03-15T09:28:57Z</time>
      </trkpt>
      <trkpt lat="48.43404" lon="2.09094">
        <ele>108.285645</ele>
        <time>2009-03-15T09:29:06Z</time>
      </trkpt>
      <trkpt lat="48.43401" lon="2.09111">
        <ele>108.285645</ele>
        <time>2009-03-15T09:29:15Z</time>
      </trkpt>
      <trkpt lat="48.43397" lon="2.09128">
        <ele>107.324341</ele>
        <time>2009-03-15T09:29:25Z</time>
      </trkpt>
      <trkpt lat="48.4339" lon="2.09146">
        <ele>107.805054</ele>
        <time>2009-03-15T09:29:35Z</time>
      </trkpt>
      <trkpt lat="48.43386" lon="2.09159">
        <ele>107.324341</ele>
        <time>2009-03-15T09:29:43Z</time>
      </trkpt>
      <trkpt lat="48.43379" lon="2.09172">
        <ele>106.843628</ele>
        <time>2009-03-15T09:29:52Z</time>
      </trkpt>
      <trkpt lat="48.43377" lon="2.09175">
        <ele>106.363037</ele>
        <time>2009-03-15T09:29:54Z</time>
      </trkpt>
      <trkpt lat="48.43369" lon="2.09191">
        <ele>106.363037</ele>
        <time>2009-03-15T09:30:04Z</time>
      </trkpt>
      <trkpt lat="48.43362" lon="2.09201">
        <ele>106.843628</ele>
        <time>2009-03-15T09:30:12Z</time>
      </trkpt>
      <trkpt lat="48.43355" lon="2.09213">
        <ele>106.363037</ele>
        <time>2009-03-15T09:30:21Z</time>
      </trkpt>
      <trkpt lat="48.4335" lon="2.09226">
        <ele>106.363037</ele>
        <time>2009-03-15T09:30:30Z</time>
      </trkpt>
      <trkpt lat="48.43345" lon="2.09239">
        <ele>106.363037</ele>
        <time>2009-03-15T09:30:38Z</time>
      </trkpt>
      <trkpt lat="48.43341" lon="2.09254">
        <ele>105.882446</ele>
        <time>2009-03-15T09:30:47Z</time>
      </trkpt>
      <trkpt lat="48.43339" lon="2.09265">
        <ele>106.363037</ele>
        <time>2009-03-15T09:30:54Z</time>
      </trkpt>
      <trkpt lat="48.43336" lon="2.09278">
        <ele>106.363037</ele>
        <time>2009-03-15T09:31:03Z</time>
      </trkpt>
      <trkpt lat="48.43331" lon="2.09289">
        <ele>106.363037</ele>
        <time>2009-03-15T09:31:10Z</time>
      </trkpt>
      <trkpt lat="48.43326" lon="2.09304">
        <ele>105.882446</ele>
        <time>2009-03-15T09:31:19Z</time>
      </trkpt>
      <trkpt lat="48.43322" lon="2.09314">
        <ele>105.882446</ele>
        <time>2009-03-15T09:31:27Z</time>
      </trkpt>
      <trkpt lat="48.4332" lon="2.09317">
        <ele>105.882446</ele>
        <time>2009-03-15T09:31:34Z</time>
      </trkpt>
      <trkpt lat="48.43319" lon="2.09319">
        <ele>105.882446</ele>
        <time>2009-03-15T09:31:54Z</time>
      </trkpt>
      <trkpt lat="48.43317" lon="2.09322">
        <ele>105.882446</ele>
        <time>2009-03-15T09:32:07Z</time>
      </trkpt>
      <trkpt lat="48.43322" lon="2.09319">
        <ele>105.882446</ele>
        <time>2009-03-15T09:34:13Z</time>
      </trkpt>
      <trkpt lat="48.43325" lon="2.09313">
        <ele>105.882446</ele>
        <time>2009-03-15T09:34:21Z</time>
      </trkpt>
      <trkpt lat="48.43323" lon="2.09314">
        <ele>106.363037</ele>
        <time>2009-03-15T09:34:28Z</time>
      </trkpt>
      <trkpt lat="48.4332" lon="2.09317">
        <ele>106.363037</ele>
        <time>2009-03-15T09:34:35Z</time>
      </trkpt>
      <trkpt lat="48.43317" lon="2.09321">
        <ele>105.882446</ele>
        <time>2009-03-15T09:34:43Z</time>
      </trkpt>
      <trkpt lat="48.43317" lon="2.09324">
        <ele>104.921021</ele>
        <time>2009-03-15T09:34:50Z</time>
      </trkpt>
      <trkpt lat="48.43313" lon="2.09328">
        <ele>105.882446</ele>
        <time>2009-03-15T09:36:34Z</time>
      </trkpt>
      <trkpt lat="48.43311" lon="2.09331">
        <ele>105.401733</ele>
        <time>2009-03-15T09:36:47Z</time>
      </trkpt>
      <trkpt lat="48.43309" lon="2.09334">
        <ele>105.882446</ele>
        <time>2009-03-15T09:37:04Z</time>
      </trkpt>
      <trkpt lat="48.43307" lon="2.09344">
        <ele>105.401733</ele>
        <time>2009-03-15T09:37:14Z</time>
      </trkpt>
      <trkpt lat="48.43305" lon="2.09349">
        <ele>105.401733</ele>
        <time>2009-03-15T09:37:18Z</time>
      </trkpt>
      <trkpt lat="48.43299" lon="2.09355">
        <ele>104.921021</ele>
        <time>2009-03-15T09:37:24Z</time>
      </trkpt>
      <trkpt lat="48.43293" lon="2.09366">
        <ele>104.44043</ele>
        <time>2009-03-15T09:37:33Z</time>
      </trkpt>
      <trkpt lat="48.43288" lon="2.09379">
        <ele>104.44043</ele>
        <time>2009-03-15T09:37:40Z</time>
      </trkpt>
      <trkpt lat="48.43283" lon="2.0939">
        <ele>104.44043</ele>
        <time>2009-03-15T09:37:48Z</time>
      </trkpt>
      <trkpt lat="48.43275" lon="2.09404">
        <ele>104.44043</ele>
        <time>2009-03-15T09:37:57Z</time>
      </trkpt>
      <trkpt lat="48.43268" lon="2.0942">
        <ele>103.959717</ele>
        <time>2009-03-15T09:38:07Z</time>
      </trkpt>
      <trkpt lat="48.4326" lon="2.09433">
        <ele>103.479004</ele>
        <time>2009-03-15T09:38:16Z</time>
      </trkpt>
      <trkpt lat="48.43253" lon="2.09448">
        <ele>103.479004</ele>
        <time>2009-03-15T09:38:26Z</time>
      </trkpt>
      <trkpt lat="48.43246" lon="2.09461">
        <ele>103.479004</ele>
        <time>2009-03-15T09:38:34Z</time>
      </trkpt>
      <trkpt lat="48.43239" lon="2.09477">
        <ele>102.998291</ele>
        <time>2009-03-15T09:38:43Z</time>
      </trkpt>
      <trkpt lat="48.43232" lon="2.09491">
        <ele>102.998291</ele>
        <time>2009-03-15T09:38:52Z</time>
      </trkpt>
      <trkpt lat="48.43226" lon="2.09503">
        <ele>102.5177</ele>
        <time>2009-03-15T09:39:00Z</time>
      </trkpt>
      <trkpt lat="48.43224" lon="2.09507">
        <ele>102.5177</ele>
        <time>2009-03-15T09:39:03Z</time>
      </trkpt>
      <trkpt lat="48.4322" lon="2.09516">
        <ele>102.037109</ele>
        <time>2009-03-15T09:39:10Z</time>
      </trkpt>
      <trkpt lat="48.4321" lon="2.09536">
        <ele>102.037109</ele>
        <time>2009-03-15T09:39:21Z</time>
      </trkpt>
      <trkpt lat="48.43206" lon="2.09547">
        <ele>101.556396</ele>
        <time>2009-03-15T09:39:29Z</time>
      </trkpt>
      <trkpt lat="48.43202" lon="2.09562">
        <ele>101.075684</ele>
        <time>2009-03-15T09:39:38Z</time>
      </trkpt>
      <trkpt lat="48.43198" lon="2.0958">
        <ele>100.595093</ele>
        <time>2009-03-15T09:39:48Z</time>
      </trkpt>
      <trkpt lat="48.43195" lon="2.09595">
        <ele>100.595093</ele>
        <time>2009-03-15T09:39:56Z</time>
      </trkpt>
      <trkpt lat="48.4319" lon="2.09613">
        <ele>100.114502</ele>
        <time>2009-03-15T09:40:06Z</time>
      </trkpt>
      <trkpt lat="48.43188" lon="2.0963">
        <ele>100.114502</ele>
        <time>2009-03-15T09:40:14Z</time>
      </trkpt>
      <trkpt lat="48.43183" lon="2.09651">
        <ele>99.633789</ele>
        <time>2009-03-15T09:40:24Z</time>
      </trkpt>
      <trkpt lat="48.4318" lon="2.09666">
        <ele>99.153076</ele>
        <time>2009-03-15T09:40:34Z</time>
      </trkpt>
      <trkpt lat="48.43175" lon="2.09684">
        <ele>98.672485</ele>
        <time>2009-03-15T09:40:43Z</time>
      </trkpt>
      <trkpt lat="48.43173" lon="2.09696">
        <ele>98.672485</ele>
        <time>2009-03-15T09:40:50Z</time>
      </trkpt>
      <trkpt lat="48.4317" lon="2.09711">
        <ele>98.191895</ele>
        <time>2009-03-15T09:40:59Z</time>
      </trkpt>
      <trkpt lat="48.43164" lon="2.09723">
        <ele>98.191895</ele>
        <time>2009-03-15T09:41:07Z</time>
      </trkpt>
      <trkpt lat="48.43162" lon="2.0973">
        <ele>97.711182</ele>
        <time>2009-03-15T09:41:11Z</time>
      </trkpt>
      <trkpt lat="48.43152" lon="2.0975">
        <ele>97.230469</ele>
        <time>2009-03-15T09:41:23Z</time>
      </trkpt>
      <trkpt lat="48.43143" lon="2.09764">
        <ele>96.749878</ele>
        <time>2009-03-15T09:41:33Z</time>
      </trkpt>
      <trkpt lat="48.43134" lon="2.09778">
        <ele>96.269287</ele>
        <time>2009-03-15T09:41:42Z</time>
      </trkpt>
      <trkpt lat="48.4313" lon="2.09787">
        <ele>95.788452</ele>
        <time>2009-03-15T09:41:47Z</time>
      </trkpt>
      <trkpt lat="48.43121" lon="2.09796">
        <ele>95.307739</ele>
        <time>2009-03-15T09:41:55Z</time>
      </trkpt>
      <trkpt lat="48.43114" lon="2.09808">
        <ele>94.827148</ele>
        <time>2009-03-15T09:42:04Z</time>
      </trkpt>
      <trkpt lat="48.43104" lon="2.09823">
        <ele>93.865845</ele>
        <time>2009-03-15T09:42:14Z</time>
      </trkpt>
      <trkpt lat="48.43094" lon="2.09838">
        <ele>92.42395</ele>
        <time>2009-03-15T09:42:25Z</time>
      </trkpt>
      <trkpt lat="48.43087" lon="2.09848">
        <ele>91.943237</ele>
        <time>2009-03-15T09:42:33Z</time>
      </trkpt>
      <trkpt lat="48.43086" lon="2.09851">
        <ele>91.462524</ele>
        <time>2009-03-15T09:42:35Z</time>
      </trkpt>
      <trkpt lat="48.4308" lon="2.0986">
        <ele>90.501343</ele>
        <time>2009-03-15T09:42:44Z</time>
      </trkpt>
      <trkpt lat="48.43076" lon="2.09866">
        <ele>90.02063</ele>
        <time>2009-03-15T09:42:52Z</time>
      </trkpt>
      <trkpt lat="48.43068" lon="2.09882">
        <ele>88.578735</ele>
        <time>2009-03-15T09:43:03Z</time>
      </trkpt>
      <trkpt lat="48.43067" lon="2.09897">
        <ele>87.136597</ele>
        <time>2009-03-15T09:43:12Z</time>
      </trkpt>
      <trkpt lat="48.43062" lon="2.09909">
        <ele>86.175293</ele>
        <time>2009-03-15T09:43:20Z</time>
      </trkpt>
      <trkpt lat="48.43058" lon="2.0992">
        <ele>85.213989</ele>
        <time>2009-03-15T09:43:28Z</time>
      </trkpt>
      <trkpt lat="48.43055" lon="2.09934">
        <ele>83.771973</ele>
        <time>2009-03-15T09:43:38Z</time>
      </trkpt>
      <trkpt lat="48.43048" lon="2.09948">
        <ele>82.810791</ele>
        <time>2009-03-15T09:43:47Z</time>
      </trkpt>
      <trkpt lat="48.43044" lon="2.09957">
        <ele>81.368774</ele>
        <time>2009-03-15T09:43:55Z</time>
      </trkpt>
      <trkpt lat="48.43039" lon="2.0997">
        <ele>80.407471</ele>
        <time>2009-03-15T09:44:06Z</time>
      </trkpt>
      <trkpt lat="48.43035" lon="2.09978">
        <ele>78.965454</ele>
        <time>2009-03-15T09:44:15Z</time>
      </trkpt>
      <trkpt lat="48.43032" lon="2.0999">
        <ele>78.004028</ele>
        <time>2009-03-15T09:44:22Z</time>
      </trkpt>
      <trkpt lat="48.43027" lon="2.10004">
        <ele>77.523438</ele>
        <time>2009-03-15T09:44:32Z</time>
      </trkpt>
      <trkpt lat="48.43022" lon="2.10019">
        <ele>76.562134</ele>
        <time>2009-03-15T09:44:41Z</time>
      </trkpt>
      <trkpt lat="48.43016" lon="2.10038">
        <ele>76.081421</ele>
        <time>2009-03-15T09:44:50Z</time>
      </trkpt>
      <trkpt lat="48.43013" lon="2.1005">
        <ele>75.120239</ele>
        <time>2009-03-15T09:44:59Z</time>
      </trkpt>
      <trkpt lat="48.43012" lon="2.10055">
        <ele>75.120239</ele>
        <time>2009-03-15T09:45:02Z</time>
      </trkpt>
      <trkpt lat="48.43009" lon="2.10072">
        <ele>74.639526</ele>
        <time>2009-03-15T09:45:10Z</time>
      </trkpt>
      <trkpt lat="48.4301" lon="2.1008">
        <ele>74.158813</ele>
        <time>2009-03-15T09:45:17Z</time>
      </trkpt>
      <trkpt lat="48.43008" lon="2.10088">
        <ele>73.678223</ele>
        <time>2009-03-15T09:45:22Z</time>
      </trkpt>
      <trkpt lat="48.43003" lon="2.10101">
        <ele>72.716919</ele>
        <time>2009-03-15T09:45:30Z</time>
      </trkpt>
      <trkpt lat="48.42997" lon="2.1011">
        <ele>71.755493</ele>
        <time>2009-03-15T09:45:38Z</time>
      </trkpt>
      <trkpt lat="48.42994" lon="2.10114">
        <ele>71.274902</ele>
        <time>2009-03-15T09:45:42Z</time>
      </trkpt>
      <trkpt lat="48.42988" lon="2.10125">
        <ele>71.274902</ele>
        <time>2009-03-15T09:45:52Z</time>
      </trkpt>
      <trkpt lat="48.42983" lon="2.10143">
        <ele>70.794189</ele>
        <time>2009-03-15T09:46:02Z</time>
      </trkpt>
      <trkpt lat="48.42983" lon="2.10156">
        <ele>69.832886</ele>
        <time>2009-03-15T09:46:10Z</time>
      </trkpt>
      <trkpt lat="48.42983" lon="2.10161">
        <ele>69.832886</ele>
        <time>2009-03-15T09:46:13Z</time>
      </trkpt>
      <trkpt lat="48.42986" lon="2.10178">
        <ele>69.352295</ele>
        <time>2009-03-15T09:46:22Z</time>
      </trkpt>
      <trkpt lat="48.42989" lon="2.10192">
        <ele>68.871582</ele>
        <time>2009-03-15T09:46:31Z</time>
      </trkpt>
      <trkpt lat="48.42992" lon="2.10209">
        <ele>68.871582</ele>
        <time>2009-03-15T09:46:40Z</time>
      </trkpt>
      <trkpt lat="48.42995" lon="2.10225">
        <ele>67.429688</ele>
        <time>2009-03-15T09:46:48Z</time>
      </trkpt>
      <trkpt lat="48.42995" lon="2.10227">
        <ele>67.429688</ele>
        <time>2009-03-15T09:46:49Z</time>
      </trkpt>
      <trkpt lat="48.43001" lon="2.10238">
        <ele>66.468262</ele>
        <time>2009-03-15T09:46:57Z</time>
      </trkpt>
      <trkpt lat="48.43002" lon="2.10241">
        <ele>66.468262</ele>
        <time>2009-03-15T09:46:59Z</time>
      </trkpt>
      <trkpt lat="48.43005" lon="2.1026">
        <ele>65.026367</ele>
        <time>2009-03-15T09:47:09Z</time>
      </trkpt>
      <trkpt lat="48.43004" lon="2.10277">
        <ele>63.103638</ele>
        <time>2009-03-15T09:47:17Z</time>
      </trkpt>
      <trkpt lat="48.43" lon="2.10292">
        <ele>62.142334</ele>
        <time>2009-03-15T09:47:23Z</time>
      </trkpt>
      <trkpt lat="48.42994" lon="2.10302">
        <ele>61.18103</ele>
        <time>2009-03-15T09:47:30Z</time>
      </trkpt>
      <trkpt lat="48.42989" lon="2.1031">
        <ele>60.219727</ele>
        <time>2009-03-15T09:47:36Z</time>
      </trkpt>
      <trkpt lat="48.42981" lon="2.10321">
        <ele>58.77771</ele>
        <time>2009-03-15T09:47:44Z</time>
      </trkpt>
      <trkpt lat="48.4298" lon="2.10324">
        <ele>58.297119</ele>
        <time>2009-03-15T09:47:46Z</time>
      </trkpt>
      <trkpt lat="48.42971" lon="2.1033">
        <ele>57.816528</ele>
        <time>2009-03-15T09:47:53Z</time>
      </trkpt>
      <trkpt lat="48.42966" lon="2.10336">
        <ele>56.855103</ele>
        <time>2009-03-15T09:47:58Z</time>
      </trkpt>
      <trkpt lat="48.42968" lon="2.10346">
        <ele>56.374512</ele>
        <time>2009-03-15T09:48:05Z</time>
      </trkpt>
      <trkpt lat="48.42978" lon="2.10366">
        <ele>55.413086</ele>
        <time>2009-03-15T09:48:19Z</time>
      </trkpt>
      <trkpt lat="48.42981" lon="2.10375">
        <ele>54.932373</ele>
        <time>2009-03-15T09:48:24Z</time>
      </trkpt>
      <trkpt lat="48.42986" lon="2.10385">
        <ele>54.451782</ele>
        <time>2009-03-15T09:48:30Z</time>
      </trkpt>
      <trkpt lat="48.42994" lon="2.104">
        <ele>54.451782</ele>
        <time>2009-03-15T09:48:39Z</time>
      </trkpt>
      <trkpt lat="48.43003" lon="2.10411">
        <ele>53.490479</ele>
        <time>2009-03-15T09:48:47Z</time>
      </trkpt>
      <trkpt lat="48.43005" lon="2.10427">
        <ele>53.009766</ele>
        <time>2009-03-15T09:48:55Z</time>
      </trkpt>
      <trkpt lat="48.43005" lon="2.10439">
        <ele>52.529175</ele>
        <time>2009-03-15T09:49:01Z</time>
      </trkpt>
      <trkpt lat="48.43" lon="2.10455">
        <ele>51.567871</ele>
        <time>2009-03-15T09:49:10Z</time>
      </trkpt>
      <trkpt lat="48.42994" lon="2.10466">
        <ele>51.087158</ele>
        <time>2009-03-15T09:49:18Z</time>
      </trkpt>
      <trkpt lat="48.42986" lon="2.10479">
        <ele>50.606567</ele>
        <time>2009-03-15T09:49:26Z</time>
      </trkpt>
      <trkpt lat="48.42977" lon="2.10487">
        <ele>50.125977</ele>
        <time>2009-03-15T09:49:34Z</time>
      </trkpt>
      <trkpt lat="48.42976" lon="2.10488">
        <ele>50.125977</ele>
        <time>2009-03-15T09:49:35Z</time>
      </trkpt>
      <trkpt lat="48.4297" lon="2.10491">
        <ele>49.645264</ele>
        <time>2009-03-15T09:49:39Z</time>
      </trkpt>
      <trkpt lat="48.42961" lon="2.10498">
        <ele>49.164551</ele>
        <time>2009-03-15T09:49:47Z</time>
      </trkpt>
      <trkpt lat="48.42955" lon="2.10502">
        <ele>49.164551</ele>
        <time>2009-03-15T09:49:51Z</time>
      </trkpt>
      <trkpt lat="48.42943" lon="2.10513">
        <ele>48.68396</ele>
        <time>2009-03-15T09:50:00Z</time>
      </trkpt>
      <trkpt lat="48.42935" lon="2.10522">
        <ele>48.203369</ele>
        <time>2009-03-15T09:50:08Z</time>
      </trkpt>
      <trkpt lat="48.42927" lon="2.1053">
        <ele>48.203369</ele>
        <time>2009-03-15T09:50:17Z</time>
      </trkpt>
      <trkpt lat="48.42918" lon="2.10543">
        <ele>48.68396</ele>
        <time>2009-03-15T09:50:27Z</time>
      </trkpt>
      <trkpt lat="48.42913" lon="2.10547">
        <ele>47.722534</ele>
        <time>2009-03-15T09:50:34Z</time>
      </trkpt>
      <trkpt lat="48.4291" lon="2.10548">
        <ele>48.203369</ele>
        <time>2009-03-15T09:50:37Z</time>
      </trkpt>
      <trkpt lat="48.42906" lon="2.10547">
        <ele>47.722534</ele>
        <time>2009-03-15T09:50:41Z</time>
      </trkpt>
      <trkpt lat="48.42896" lon="2.10544">
        <ele>47.241821</ele>
        <time>2009-03-15T09:50:50Z</time>
      </trkpt>
      <trkpt lat="48.42887" lon="2.10538">
        <ele>46.76123</ele>
        <time>2009-03-15T09:50:59Z</time>
      </trkpt>
      <trkpt lat="48.42878" lon="2.10535">
        <ele>46.76123</ele>
        <time>2009-03-15T09:51:07Z</time>
      </trkpt>
      <trkpt lat="48.42869" lon="2.10537">
        <ele>46.28064</ele>
        <time>2009-03-15T09:51:16Z</time>
      </trkpt>
      <trkpt lat="48.4286" lon="2.10541">
        <ele>46.28064</ele>
        <time>2009-03-15T09:51:39Z</time>
      </trkpt>
      <trkpt lat="48.42854" lon="2.10544">
        <ele>46.28064</ele>
        <time>2009-03-15T09:51:46Z</time>
      </trkpt>
      <trkpt lat="48.42856" lon="2.1055">
        <ele>46.28064</ele>
        <time>2009-03-15T09:51:55Z</time>
      </trkpt>
      <trkpt lat="48.42854" lon="2.10558">
        <ele>46.28064</ele>
        <time>2009-03-15T09:52:03Z</time>
      </trkpt>
      <trkpt lat="48.42853" lon="2.10572">
        <ele>45.799927</ele>
        <time>2009-03-15T09:52:13Z</time>
      </trkpt>
      <trkpt lat="48.42854" lon="2.10575">
        <ele>46.28064</ele>
        <time>2009-03-15T09:52:15Z</time>
      </trkpt>
      <trkpt lat="48.42854" lon="2.1059">
        <ele>46.28064</ele>
        <time>2009-03-15T09:52:21Z</time>
      </trkpt>
      <trkpt lat="48.42854" lon="2.10593">
        <ele>46.28064</ele>
        <time>2009-03-15T09:52:23Z</time>
      </trkpt>
      <trkpt lat="48.42857" lon="2.10602">
        <ele>46.28064</ele>
        <time>2009-03-15T09:52:31Z</time>
      </trkpt>
      <trkpt lat="48.42856" lon="2.10621">
        <ele>46.28064</ele>
        <time>2009-03-15T09:52:40Z</time>
      </trkpt>
      <trkpt lat="48.4286" lon="2.10634">
        <ele>46.28064</ele>
        <time>2009-03-15T09:52:51Z</time>
      </trkpt>
      <trkpt lat="48.4286" lon="2.10651">
        <ele>46.76123</ele>
        <time>2009-03-15T09:53:01Z</time>
      </trkpt>
      <trkpt lat="48.42864" lon="2.10664">
        <ele>46.76123</ele>
        <time>2009-03-15T09:53:10Z</time>
      </trkpt>
      <trkpt lat="48.42865" lon="2.10672">
        <ele>46.76123</ele>
        <time>2009-03-15T09:53:17Z</time>
      </trkpt>
      <trkpt lat="48.42865" lon="2.10692">
        <ele>46.76123</ele>
        <time>2009-03-15T09:53:26Z</time>
      </trkpt>
      <trkpt lat="48.42865" lon="2.10709">
        <ele>46.28064</ele>
        <time>2009-03-15T09:53:35Z</time>
      </trkpt>
      <trkpt lat="48.4286" lon="2.1073">
        <ele>46.28064</ele>
        <time>2009-03-15T09:53:46Z</time>
      </trkpt>
      <trkpt lat="48.42861" lon="2.10745">
        <ele>46.76123</ele>
        <time>2009-03-15T09:53:54Z</time>
      </trkpt>
      <trkpt lat="48.42862" lon="2.10767">
        <ele>46.28064</ele>
        <time>2009-03-15T09:54:06Z</time>
      </trkpt>
      <trkpt lat="48.42866" lon="2.10782">
        <ele>46.76123</ele>
        <time>2009-03-15T09:54:15Z</time>
      </trkpt>
      <trkpt lat="48.42866" lon="2.1079">
        <ele>46.28064</ele>
        <time>2009-03-15T09:54:20Z</time>
      </trkpt>
      <trkpt lat="48.42867" lon="2.10801">
        <ele>46.28064</ele>
        <time>2009-03-15T09:54:29Z</time>
      </trkpt>
      <trkpt lat="48.42869" lon="2.10817">
        <ele>46.28064</ele>
        <time>2009-03-15T09:54:39Z</time>
      </trkpt>
      <trkpt lat="48.42869" lon="2.10839">
        <ele>46.28064</ele>
        <time>2009-03-15T09:54:50Z</time>
      </trkpt>
      <trkpt lat="48.42868" lon="2.1086">
        <ele>46.76123</ele>
        <time>2009-03-15T09:55:02Z</time>
      </trkpt>
      <trkpt lat="48.4287" lon="2.10868">
        <ele>46.28064</ele>
        <time>2009-03-15T09:55:08Z</time>
      </trkpt>
      <trkpt lat="48.42872" lon="2.10882">
        <ele>46.28064</ele>
        <time>2009-03-15T09:55:20Z</time>
      </trkpt>
      <trkpt lat="48.42871" lon="2.10904">
        <ele>46.76123</ele>
        <time>2009-03-15T09:55:30Z</time>
      </trkpt>
      <trkpt lat="48.42871" lon="2.10923">
        <ele>46.28064</ele>
        <time>2009-03-15T09:55:40Z</time>
      </trkpt>
      <trkpt lat="48.42874" lon="2.10933">
        <ele>46.28064</ele>
        <time>2009-03-15T09:55:47Z</time>
      </trkpt>
      <trkpt lat="48.42877" lon="2.10944">
        <ele>46.76123</ele>
        <time>2009-03-15T09:55:56Z</time>
      </trkpt>
      <trkpt lat="48.4288" lon="2.10954">
        <ele>46.28064</ele>
        <time>2009-03-15T09:56:05Z</time>
      </trkpt>
      <trkpt lat="48.42879" lon="2.1097">
        <ele>46.76123</ele>
        <time>2009-03-15T09:56:15Z</time>
      </trkpt>
      <trkpt lat="48.42881" lon="2.10985">
        <ele>46.28064</ele>
        <time>2009-03-15T09:56:26Z</time>
      </trkpt>
      <trkpt lat="48.42882" lon="2.11">
        <ele>46.28064</ele>
        <time>2009-03-15T09:56:35Z</time>
      </trkpt>
      <trkpt lat="48.42884" lon="2.11016">
        <ele>46.28064</ele>
        <time>2009-03-15T09:56:46Z</time>
      </trkpt>
      <trkpt lat="48.42883" lon="2.1104">
        <ele>46.28064</ele>
        <time>2009-03-15T09:56:56Z</time>
      </trkpt>
      <trkpt lat="48.42885" lon="2.11063">
        <ele>46.76123</ele>
        <time>2009-03-15T09:57:08Z</time>
      </trkpt>
      <trkpt lat="48.4289" lon="2.11077">
        <ele>46.76123</ele>
        <time>2009-03-15T09:57:21Z</time>
      </trkpt>
      <trkpt lat="48.42892" lon="2.11103">
        <ele>46.28064</ele>
        <time>2009-03-15T09:57:33Z</time>
      </trkpt>
      <trkpt lat="48.4289" lon="2.11113">
        <ele>46.28064</ele>
        <time>2009-03-15T09:57:42Z</time>
      </trkpt>
      <trkpt lat="48.4289" lon="2.11133">
        <ele>46.76123</ele>
        <time>2009-03-15T09:57:52Z</time>
      </trkpt>
      <trkpt lat="48.4289" lon="2.11151">
        <ele>46.28064</ele>
        <time>2009-03-15T09:58:01Z</time>
      </trkpt>
      <trkpt lat="48.42891" lon="2.11163">
        <ele>46.28064</ele>
        <time>2009-03-15T09:58:12Z</time>
      </trkpt>
      <trkpt lat="48.42894" lon="2.11173">
        <ele>46.28064</ele>
        <time>2009-03-15T09:58:21Z</time>
      </trkpt>
      <trkpt lat="48.42899" lon="2.11183">
        <ele>46.28064</ele>
        <time>2009-03-15T09:58:32Z</time>
      </trkpt>
      <trkpt lat="48.42899" lon="2.11194">
        <ele>46.76123</ele>
        <time>2009-03-15T09:58:41Z</time>
      </trkpt>
      <trkpt lat="48.42901" lon="2.112">
        <ele>46.28064</ele>
        <time>2009-03-15T09:58:48Z</time>
      </trkpt>
      <trkpt lat="48.42904" lon="2.11207">
        <ele>46.76123</ele>
        <time>2009-03-15T09:58:57Z</time>
      </trkpt>
      <trkpt lat="48.42908" lon="2.11216">
        <ele>46.28064</ele>
        <time>2009-03-15T09:59:07Z</time>
      </trkpt>
      <trkpt lat="48.42912" lon="2.11224">
        <ele>46.76123</ele>
        <time>2009-03-15T09:59:18Z</time>
      </trkpt>
      <trkpt lat="48.42913" lon="2.11233">
        <ele>46.28064</ele>
        <time>2009-03-15T09:59:27Z</time>
      </trkpt>
      <trkpt lat="48.42914" lon="2.11246">
        <ele>46.28064</ele>
        <time>2009-03-15T09:59:36Z</time>
      </trkpt>
      <trkpt lat="48.42914" lon="2.11254">
        <ele>46.76123</ele>
        <time>2009-03-15T09:59:44Z</time>
      </trkpt>
      <trkpt lat="48.42918" lon="2.11263">
        <ele>46.28064</ele>
        <time>2009-03-15T09:59:53Z</time>
      </trkpt>
      <trkpt lat="48.42919" lon="2.1127">
        <ele>46.28064</ele>
        <time>2009-03-15T10:00:00Z</time>
      </trkpt>
      <trkpt lat="48.42918" lon="2.11288">
        <ele>46.76123</ele>
        <time>2009-03-15T10:00:11Z</time>
      </trkpt>
      <trkpt lat="48.4292" lon="2.11301">
        <ele>46.76123</ele>
        <time>2009-03-15T10:00:23Z</time>
      </trkpt>
      <trkpt lat="48.42919" lon="2.11311">
        <ele>46.28064</ele>
        <time>2009-03-15T10:00:31Z</time>
      </trkpt>
      <trkpt lat="48.42918" lon="2.1132">
        <ele>46.28064</ele>
        <time>2009-03-15T10:00:39Z</time>
      </trkpt>
      <trkpt lat="48.42916" lon="2.1133">
        <ele>46.28064</ele>
        <time>2009-03-15T10:00:51Z</time>
      </trkpt>
      <trkpt lat="48.42916" lon="2.11345">
        <ele>46.76123</ele>
        <time>2009-03-15T10:01:01Z</time>
      </trkpt>
      <trkpt lat="48.42915" lon="2.11358">
        <ele>46.76123</ele>
        <time>2009-03-15T10:01:12Z</time>
      </trkpt>
      <trkpt lat="48.42911" lon="2.11369">
        <ele>46.28064</ele>
        <time>2009-03-15T10:01:22Z</time>
      </trkpt>
      <trkpt lat="48.4291" lon="2.11379">
        <ele>46.76123</ele>
        <time>2009-03-15T10:01:32Z</time>
      </trkpt>
      <trkpt lat="48.42908" lon="2.11392">
        <ele>46.28064</ele>
        <time>2009-03-15T10:01:41Z</time>
      </trkpt>
      <trkpt lat="48.42907" lon="2.11405">
        <ele>46.28064</ele>
        <time>2009-03-15T10:01:49Z</time>
      </trkpt>
      <trkpt lat="48.42902" lon="2.11417">
        <ele>45.799927</ele>
        <time>2009-03-15T10:01:57Z</time>
      </trkpt>
      <trkpt lat="48.42899" lon="2.11427">
        <ele>46.28064</ele>
        <time>2009-03-15T10:02:05Z</time>
      </trkpt>
      <trkpt lat="48.42894" lon="2.11439">
        <ele>46.28064</ele>
        <time>2009-03-15T10:02:14Z</time>
      </trkpt>
      <trkpt lat="48.42889" lon="2.11453">
        <ele>46.28064</ele>
        <time>2009-03-15T10:02:22Z</time>
      </trkpt>
      <trkpt lat="48.42887" lon="2.11462">
        <ele>46.28064</ele>
        <time>2009-03-15T10:02:31Z</time>
      </trkpt>
      <trkpt lat="48.42882" lon="2.11472">
        <ele>46.28064</ele>
        <time>2009-03-15T10:02:43Z</time>
      </trkpt>
      <trkpt lat="48.42879" lon="2.11487">
        <ele>46.28064</ele>
        <time>2009-03-15T10:02:52Z</time>
      </trkpt>
      <trkpt lat="48.42874" lon="2.1149">
        <ele>46.76123</ele>
        <time>2009-03-15T10:03:01Z</time>
      </trkpt>
      <trkpt lat="48.42869" lon="2.11499">
        <ele>46.76123</ele>
        <time>2009-03-15T10:03:09Z</time>
      </trkpt>
      <trkpt lat="48.42864" lon="2.11505">
        <ele>46.76123</ele>
        <time>2009-03-15T10:03:17Z</time>
      </trkpt>
      <trkpt lat="48.42859" lon="2.11507">
        <ele>46.28064</ele>
        <time>2009-03-15T10:03:29Z</time>
      </trkpt>
      <trkpt lat="48.42848" lon="2.1154">
        <ele>46.76123</ele>
        <time>2009-03-15T10:04:57Z</time>
      </trkpt>
      <trkpt lat="48.42844" lon="2.11542">
        <ele>46.76123</ele>
        <time>2009-03-15T10:05:13Z</time>
      </trkpt>
      <trkpt lat="48.42788" lon="2.11711">
        <ele>46.76123</ele>
        <time>2009-03-15T10:06:57Z</time>
      </trkpt>
      <trkpt lat="48.42788" lon="2.11712">
        <ele>46.28064</ele>
        <time>2009-03-15T10:06:59Z</time>
      </trkpt>
      <trkpt lat="48.42785" lon="2.11709">
        <ele>46.28064</ele>
        <time>2009-03-15T10:07:09Z</time>
      </trkpt>
      <trkpt lat="48.42779" lon="2.11706">
        <ele>45.799927</ele>
        <time>2009-03-15T10:07:18Z</time>
      </trkpt>
      <trkpt lat="48.42774" lon="2.11702">
        <ele>46.28064</ele>
        <time>2009-03-15T10:07:24Z</time>
      </trkpt>
      <trkpt lat="48.42769" lon="2.11698">
        <ele>45.799927</ele>
        <time>2009-03-15T10:07:29Z</time>
      </trkpt>
      <trkpt lat="48.42765" lon="2.11691">
        <ele>45.799927</ele>
        <time>2009-03-15T10:07:33Z</time>
      </trkpt>
      <trkpt lat="48.42765" lon="2.1168">
        <ele>46.28064</ele>
        <time>2009-03-15T10:07:39Z</time>
      </trkpt>
      <trkpt lat="48.42767" lon="2.11671">
        <ele>46.28064</ele>
        <time>2009-03-15T10:07:46Z</time>
      </trkpt>
      <trkpt lat="48.42767" lon="2.11669">
        <ele>46.28064</ele>
        <time>2009-03-15T10:07:47Z</time>
      </trkpt>
      <trkpt lat="48.42768" lon="2.11659">
        <ele>46.28064</ele>
        <time>2009-03-15T10:07:54Z</time>
      </trkpt>
      <trkpt lat="48.42769" lon="2.11644">
        <ele>46.28064</ele>
        <time>2009-03-15T10:08:02Z</time>
      </trkpt>
      <trkpt lat="48.42767" lon="2.11632">
        <ele>46.28064</ele>
        <time>2009-03-15T10:08:09Z</time>
      </trkpt>
      <trkpt lat="48.42767" lon="2.11626">
        <ele>45.799927</ele>
        <time>2009-03-15T10:08:13Z</time>
      </trkpt>
      <trkpt lat="48.42766" lon="2.11619">
        <ele>45.799927</ele>
        <time>2009-03-15T10:08:17Z</time>
      </trkpt>
      <trkpt lat="48.42761" lon="2.1161">
        <ele>45.799927</ele>
        <time>2009-03-15T10:08:25Z</time>
      </trkpt>
      <trkpt lat="48.42759" lon="2.11607">
        <ele>45.799927</ele>
        <time>2009-03-15T10:08:27Z</time>
      </trkpt>
      <trkpt lat="48.42753" lon="2.11602">
        <ele>45.799927</ele>
        <time>2009-03-15T10:08:33Z</time>
      </trkpt>
      <trkpt lat="48.42743" lon="2.11595">
        <ele>45.799927</ele>
        <time>2009-03-15T10:08:41Z</time>
      </trkpt>
      <trkpt lat="48.42736" lon="2.11588">
        <ele>46.28064</ele>
        <time>2009-03-15T10:08:48Z</time>
      </trkpt>
      <trkpt lat="48.42726" lon="2.11587">
        <ele>46.28064</ele>
        <time>2009-03-15T10:08:56Z</time>
      </trkpt>
      <trkpt lat="48.4272" lon="2.11583">
        <ele>46.28064</ele>
        <time>2009-03-15T10:09:01Z</time>
      </trkpt>
      <trkpt lat="48.4271" lon="2.11583">
        <ele>45.799927</ele>
        <time>2009-03-15T10:09:09Z</time>
      </trkpt>
      <trkpt lat="48.42703" lon="2.11579">
        <ele>45.799927</ele>
        <time>2009-03-15T10:09:15Z</time>
      </trkpt>
      <trkpt lat="48.42696" lon="2.11573">
        <ele>45.799927</ele>
        <time>2009-03-15T10:09:22Z</time>
      </trkpt>
      <trkpt lat="48.42682" lon="2.11571">
        <ele>45.799927</ele>
        <time>2009-03-15T10:09:31Z</time>
      </trkpt>
      <trkpt lat="48.42674" lon="2.11567">
        <ele>44.838623</ele>
        <time>2009-03-15T10:09:38Z</time>
      </trkpt>
      <trkpt lat="48.42668" lon="2.11566">
        <ele>45.319214</ele>
        <time>2009-03-15T10:09:45Z</time>
      </trkpt>
      <trkpt lat="48.42664" lon="2.11564">
        <ele>45.319214</ele>
        <time>2009-03-15T10:09:49Z</time>
      </trkpt>
      <trkpt lat="48.42654" lon="2.11558">
        <ele>44.838623</ele>
        <time>2009-03-15T10:09:57Z</time>
      </trkpt>
      <trkpt lat="48.42642" lon="2.11556">
        <ele>44.838623</ele>
        <time>2009-03-15T10:10:04Z</time>
      </trkpt>
      <trkpt lat="48.42632" lon="2.11551">
        <ele>45.319214</ele>
        <time>2009-03-15T10:10:14Z</time>
      </trkpt>
      <trkpt lat="48.42622" lon="2.1155">
        <ele>45.319214</ele>
        <time>2009-03-15T10:10:23Z</time>
      </trkpt>
      <trkpt lat="48.42614" lon="2.11545">
        <ele>44.838623</ele>
        <time>2009-03-15T10:10:32Z</time>
      </trkpt>
      <trkpt lat="48.42603" lon="2.1154">
        <ele>44.838623</ele>
        <time>2009-03-15T10:10:42Z</time>
      </trkpt>
      <trkpt lat="48.42594" lon="2.11533">
        <ele>45.319214</ele>
        <time>2009-03-15T10:10:50Z</time>
      </trkpt>
      <trkpt lat="48.42589" lon="2.11534">
        <ele>45.319214</ele>
        <time>2009-03-15T10:10:53Z</time>
      </trkpt>
      <trkpt lat="48.42579" lon="2.11531">
        <ele>44.838623</ele>
        <time>2009-03-15T10:11:01Z</time>
      </trkpt>
      <trkpt lat="48.42574" lon="2.11531">
        <ele>46.28064</ele>
        <time>2009-03-15T10:11:09Z</time>
      </trkpt>
      <trkpt lat="48.42563" lon="2.11526">
        <ele>45.799927</ele>
        <time>2009-03-15T10:11:16Z</time>
      </trkpt>
      <trkpt lat="48.42557" lon="2.11525">
        <ele>45.799927</ele>
        <time>2009-03-15T10:11:22Z</time>
      </trkpt>
      <trkpt lat="48.42547" lon="2.11521">
        <ele>45.319214</ele>
        <time>2009-03-15T10:11:31Z</time>
      </trkpt>
      <trkpt lat="48.42536" lon="2.11515">
        <ele>45.799927</ele>
        <time>2009-03-15T10:11:38Z</time>
      </trkpt>
      <trkpt lat="48.42525" lon="2.11518">
        <ele>45.799927</ele>
        <time>2009-03-15T10:11:47Z</time>
      </trkpt>
      <trkpt lat="48.42514" lon="2.11519">
        <ele>45.799927</ele>
        <time>2009-03-15T10:11:58Z</time>
      </trkpt>
      <trkpt lat="48.42508" lon="2.11528">
        <ele>46.28064</ele>
        <time>2009-03-15T10:12:08Z</time>
      </trkpt>
      <trkpt lat="48.425" lon="2.11535">
        <ele>46.76123</ele>
        <time>2009-03-15T10:12:18Z</time>
      </trkpt>
      <trkpt lat="48.42497" lon="2.11549">
        <ele>47.241821</ele>
        <time>2009-03-15T10:12:26Z</time>
      </trkpt>
      <trkpt lat="48.42491" lon="2.11565">
        <ele>46.28064</ele>
        <time>2009-03-15T10:12:39Z</time>
      </trkpt>
      <trkpt lat="48.42481" lon="2.11587">
        <ele>47.241821</ele>
        <time>2009-03-15T10:12:52Z</time>
      </trkpt>
      <trkpt lat="48.42481" lon="2.11591">
        <ele>47.241821</ele>
        <time>2009-03-15T10:13:06Z</time>
      </trkpt>
      <trkpt lat="48.42475" lon="2.11583">
        <ele>47.722534</ele>
        <time>2009-03-15T10:13:15Z</time>
      </trkpt>
      <trkpt lat="48.42474" lon="2.11594">
        <ele>47.722534</ele>
        <time>2009-03-15T10:13:27Z</time>
      </trkpt>
      <trkpt lat="48.42471" lon="2.11583">
        <ele>50.125977</ele>
        <time>2009-03-15T10:14:33Z</time>
      </trkpt>
      <trkpt lat="48.42467" lon="2.11574">
        <ele>51.087158</ele>
        <time>2009-03-15T10:14:44Z</time>
      </trkpt>
      <trkpt lat="48.42463" lon="2.11572">
        <ele>52.529175</ele>
        <time>2009-03-15T10:14:57Z</time>
      </trkpt>
      <trkpt lat="48.42458" lon="2.11572">
        <ele>53.971191</ele>
        <time>2009-03-15T10:15:14Z</time>
      </trkpt>
      <trkpt lat="48.42451" lon="2.11565">
        <ele>55.413086</ele>
        <time>2009-03-15T10:15:27Z</time>
      </trkpt>
      <trkpt lat="48.42452" lon="2.11564">
        <ele>57.816528</ele>
        <time>2009-03-15T10:15:37Z</time>
      </trkpt>
      <trkpt lat="48.42446" lon="2.11563">
        <ele>58.77771</ele>
        <time>2009-03-15T10:16:35Z</time>
      </trkpt>
      <trkpt lat="48.42445" lon="2.11554">
        <ele>57.816528</ele>
        <time>2009-03-15T10:17:15Z</time>
      </trkpt>
      <trkpt lat="48.42451" lon="2.11554">
        <ele>57.816528</ele>
        <time>2009-03-15T10:17:24Z</time>
      </trkpt>
      <trkpt lat="48.42454" lon="2.11553">
        <ele>58.297119</ele>
        <time>2009-03-15T10:17:43Z</time>
      </trkpt>
      <trkpt lat="48.42454" lon="2.11551">
        <ele>57.816528</ele>
        <time>2009-03-15T10:17:46Z</time>
      </trkpt>
      <trkpt lat="48.4246" lon="2.11537">
        <ele>58.297119</ele>
        <time>2009-03-15T10:17:55Z</time>
      </trkpt>
      <trkpt lat="48.42462" lon="2.11534">
        <ele>58.77771</ele>
        <time>2009-03-15T10:17:57Z</time>
      </trkpt>
      <trkpt lat="48.42472" lon="2.11518">
        <ele>58.77771</ele>
        <time>2009-03-15T10:18:07Z</time>
      </trkpt>
      <trkpt lat="48.42473" lon="2.11505">
        <ele>58.297119</ele>
        <time>2009-03-15T10:18:14Z</time>
      </trkpt>
      <trkpt lat="48.42476" lon="2.11496">
        <ele>58.77771</ele>
        <time>2009-03-15T10:18:22Z</time>
      </trkpt>
      <trkpt lat="48.42478" lon="2.1149">
        <ele>58.77771</ele>
        <time>2009-03-15T10:18:26Z</time>
      </trkpt>
      <trkpt lat="48.42479" lon="2.11485">
        <ele>58.77771</ele>
        <time>2009-03-15T10:18:28Z</time>
      </trkpt>
      <trkpt lat="48.42487" lon="2.1147">
        <ele>58.77771</ele>
        <time>2009-03-15T10:18:36Z</time>
      </trkpt>
      <trkpt lat="48.42492" lon="2.11459">
        <ele>58.77771</ele>
        <time>2009-03-15T10:18:42Z</time>
      </trkpt>
      <trkpt lat="48.42498" lon="2.11447">
        <ele>58.77771</ele>
        <time>2009-03-15T10:18:50Z</time>
      </trkpt>
      <trkpt lat="48.42504" lon="2.11435">
        <ele>58.77771</ele>
        <time>2009-03-15T10:18:58Z</time>
      </trkpt>
      <trkpt lat="48.42508" lon="2.11425">
        <ele>58.77771</ele>
        <time>2009-03-15T10:19:08Z</time>
      </trkpt>
      <trkpt lat="48.4251" lon="2.11411">
        <ele>58.77771</ele>
        <time>2009-03-15T10:19:18Z</time>
      </trkpt>
      <trkpt lat="48.42515" lon="2.11395">
        <ele>58.297119</ele>
        <time>2009-03-15T10:19:25Z</time>
      </trkpt>
      <trkpt lat="48.42516" lon="2.11381">
        <ele>57.816528</ele>
        <time>2009-03-15T10:19:32Z</time>
      </trkpt>
      <trkpt lat="48.42517" lon="2.11373">
        <ele>57.335815</ele>
        <time>2009-03-15T10:19:37Z</time>
      </trkpt>
      <trkpt lat="48.42518" lon="2.11363">
        <ele>57.816528</ele>
        <time>2009-03-15T10:19:42Z</time>
      </trkpt>
      <trkpt lat="48.42517" lon="2.11352">
        <ele>57.335815</ele>
        <time>2009-03-15T10:19:48Z</time>
      </trkpt>
      <trkpt lat="48.42517" lon="2.11342">
        <ele>56.855103</ele>
        <time>2009-03-15T10:19:53Z</time>
      </trkpt>
      <trkpt lat="48.42518" lon="2.1133">
        <ele>56.374512</ele>
        <time>2009-03-15T10:19:59Z</time>
      </trkpt>
      <trkpt lat="48.42518" lon="2.11325">
        <ele>56.374512</ele>
        <time>2009-03-15T10:20:02Z</time>
      </trkpt>
      <trkpt lat="48.42518" lon="2.1132">
        <ele>56.374512</ele>
        <time>2009-03-15T10:20:05Z</time>
      </trkpt>
      <trkpt lat="48.42518" lon="2.11307">
        <ele>56.374512</ele>
        <time>2009-03-15T10:20:14Z</time>
      </trkpt>
      <trkpt lat="48.42518" lon="2.11292">
        <ele>55.893799</ele>
        <time>2009-03-15T10:20:25Z</time>
      </trkpt>
      <trkpt lat="48.42518" lon="2.11277">
        <ele>55.893799</ele>
        <time>2009-03-15T10:20:35Z</time>
      </trkpt>
      <trkpt lat="48.4252" lon="2.11255">
        <ele>55.413086</ele>
        <time>2009-03-15T10:20:46Z</time>
      </trkpt>
      <trkpt lat="48.4252" lon="2.1124">
        <ele>54.932373</ele>
        <time>2009-03-15T10:20:53Z</time>
      </trkpt>
      <trkpt lat="48.42524" lon="2.11231">
        <ele>54.932373</ele>
        <time>2009-03-15T10:21:00Z</time>
      </trkpt>
      <trkpt lat="48.42524" lon="2.11214">
        <ele>54.451782</ele>
        <time>2009-03-15T10:21:10Z</time>
      </trkpt>
      <trkpt lat="48.42526" lon="2.11197">
        <ele>54.451782</ele>
        <time>2009-03-15T10:21:18Z</time>
      </trkpt>
      <trkpt lat="48.42527" lon="2.11186">
        <ele>53.971191</ele>
        <time>2009-03-15T10:21:29Z</time>
      </trkpt>
      <trkpt lat="48.42528" lon="2.11168">
        <ele>53.490479</ele>
        <time>2009-03-15T10:21:37Z</time>
      </trkpt>
      <trkpt lat="48.42527" lon="2.11146">
        <ele>53.009766</ele>
        <time>2009-03-15T10:21:47Z</time>
      </trkpt>
      <trkpt lat="48.42527" lon="2.11131">
        <ele>53.009766</ele>
        <time>2009-03-15T10:21:55Z</time>
      </trkpt>
      <trkpt lat="48.42527" lon="2.11114">
        <ele>52.529175</ele>
        <time>2009-03-15T10:22:02Z</time>
      </trkpt>
      <trkpt lat="48.42528" lon="2.11104">
        <ele>51.567871</ele>
        <time>2009-03-15T10:22:08Z</time>
      </trkpt>
      <trkpt lat="48.42526" lon="2.11087">
        <ele>51.087158</ele>
        <time>2009-03-15T10:22:16Z</time>
      </trkpt>
      <trkpt lat="48.42526" lon="2.11076">
        <ele>51.087158</ele>
        <time>2009-03-15T10:22:22Z</time>
      </trkpt>
      <trkpt lat="48.42526" lon="2.11071">
        <ele>51.087158</ele>
        <time>2009-03-15T10:22:25Z</time>
      </trkpt>
      <trkpt lat="48.42527" lon="2.11058">
        <ele>51.087158</ele>
        <time>2009-03-15T10:22:32Z</time>
      </trkpt>
      <trkpt lat="48.42527" lon="2.11056">
        <ele>50.606567</ele>
        <time>2009-03-15T10:22:34Z</time>
      </trkpt>
      <trkpt lat="48.42528" lon="2.11046">
        <ele>50.125977</ele>
        <time>2009-03-15T10:22:40Z</time>
      </trkpt>
      <trkpt lat="48.42531" lon="2.11031">
        <ele>49.164551</ele>
        <time>2009-03-15T10:22:50Z</time>
      </trkpt>
      <trkpt lat="48.42539" lon="2.11021">
        <ele>48.68396</ele>
        <time>2009-03-15T10:23:00Z</time>
      </trkpt>
      <trkpt lat="48.42542" lon="2.11004">
        <ele>48.68396</ele>
        <time>2009-03-15T10:23:10Z</time>
      </trkpt>
      <trkpt lat="48.42541" lon="2.10998">
        <ele>49.164551</ele>
        <time>2009-03-15T10:23:12Z</time>
      </trkpt>
      <trkpt lat="48.42544" lon="2.10978">
        <ele>48.68396</ele>
        <time>2009-03-15T10:23:22Z</time>
      </trkpt>
      <trkpt lat="48.42547" lon="2.10968">
        <ele>48.68396</ele>
        <time>2009-03-15T10:23:31Z</time>
      </trkpt>
      <trkpt lat="48.4255" lon="2.10957">
        <ele>48.68396</ele>
        <time>2009-03-15T10:23:36Z</time>
      </trkpt>
      <trkpt lat="48.42557" lon="2.10941">
        <ele>48.203369</ele>
        <time>2009-03-15T10:23:45Z</time>
      </trkpt>
      <trkpt lat="48.42558" lon="2.10935">
        <ele>48.68396</ele>
        <time>2009-03-15T10:23:48Z</time>
      </trkpt>
      <trkpt lat="48.42559" lon="2.10924">
        <ele>48.68396</ele>
        <time>2009-03-15T10:23:53Z</time>
      </trkpt>
      <trkpt lat="48.42562" lon="2.10911">
        <ele>48.68396</ele>
        <time>2009-03-15T10:23:59Z</time>
      </trkpt>
      <trkpt lat="48.42565" lon="2.10902">
        <ele>48.68396</ele>
        <time>2009-03-15T10:24:07Z</time>
      </trkpt>
      <trkpt lat="48.42565" lon="2.10899">
        <ele>48.68396</ele>
        <time>2009-03-15T10:24:09Z</time>
      </trkpt>
      <trkpt lat="48.42567" lon="2.1089">
        <ele>48.68396</ele>
        <time>2009-03-15T10:24:16Z</time>
      </trkpt>
      <trkpt lat="48.42568" lon="2.10878">
        <ele>48.203369</ele>
        <time>2009-03-15T10:24:23Z</time>
      </trkpt>
      <trkpt lat="48.42566" lon="2.10863">
        <ele>48.68396</ele>
        <time>2009-03-15T10:24:32Z</time>
      </trkpt>
      <trkpt lat="48.42565" lon="2.10848">
        <ele>48.203369</ele>
        <time>2009-03-15T10:24:41Z</time>
      </trkpt>
      <trkpt lat="48.42566" lon="2.10833">
        <ele>48.203369</ele>
        <time>2009-03-15T10:24:50Z</time>
      </trkpt>
      <trkpt lat="48.42567" lon="2.10817">
        <ele>48.203369</ele>
        <time>2009-03-15T10:24:58Z</time>
      </trkpt>
      <trkpt lat="48.42566" lon="2.10809">
        <ele>48.203369</ele>
        <time>2009-03-15T10:25:02Z</time>
      </trkpt>
      <trkpt lat="48.4256" lon="2.10792">
        <ele>48.203369</ele>
        <time>2009-03-15T10:25:12Z</time>
      </trkpt>
      <trkpt lat="48.4256" lon="2.10779">
        <ele>48.203369</ele>
        <time>2009-03-15T10:25:21Z</time>
      </trkpt>
      <trkpt lat="48.42565" lon="2.10769">
        <ele>48.203369</ele>
        <time>2009-03-15T10:25:28Z</time>
      </trkpt>
      <trkpt lat="48.42566" lon="2.10753">
        <ele>47.722534</ele>
        <time>2009-03-15T10:25:37Z</time>
      </trkpt>
      <trkpt lat="48.42568" lon="2.10742">
        <ele>47.722534</ele>
        <time>2009-03-15T10:25:45Z</time>
      </trkpt>
      <trkpt lat="48.42568" lon="2.10734">
        <ele>47.722534</ele>
        <time>2009-03-15T10:25:51Z</time>
      </trkpt>
      <trkpt lat="48.42566" lon="2.10723">
        <ele>47.722534</ele>
        <time>2009-03-15T10:25:57Z</time>
      </trkpt>
      <trkpt lat="48.42565" lon="2.10717">
        <ele>47.241821</ele>
        <time>2009-03-15T10:26:01Z</time>
      </trkpt>
      <trkpt lat="48.42564" lon="2.10699">
        <ele>47.722534</ele>
        <time>2009-03-15T10:26:07Z</time>
      </trkpt>
      <trkpt lat="48.42564" lon="2.10678">
        <ele>47.722534</ele>
        <time>2009-03-15T10:26:15Z</time>
      </trkpt>
      <trkpt lat="48.42567" lon="2.10672">
        <ele>47.722534</ele>
        <time>2009-03-15T10:26:21Z</time>
      </trkpt>
      <trkpt lat="48.42565" lon="2.10658">
        <ele>47.241821</ele>
        <time>2009-03-15T10:26:28Z</time>
      </trkpt>
      <trkpt lat="48.42561" lon="2.10641">
        <ele>47.241821</ele>
        <time>2009-03-15T10:26:36Z</time>
      </trkpt>
      <trkpt lat="48.42561" lon="2.10623">
        <ele>47.722534</ele>
        <time>2009-03-15T10:26:44Z</time>
      </trkpt>
      <trkpt lat="48.42562" lon="2.1062">
        <ele>47.722534</ele>
        <time>2009-03-15T10:26:47Z</time>
      </trkpt>
      <trkpt lat="48.42564" lon="2.10613">
        <ele>47.241821</ele>
        <time>2009-03-15T10:26:51Z</time>
      </trkpt>
      <trkpt lat="48.42563" lon="2.10604">
        <ele>47.241821</ele>
        <time>2009-03-15T10:26:58Z</time>
      </trkpt>
      <trkpt lat="48.42563" lon="2.10586">
        <ele>47.722534</ele>
        <time>2009-03-15T10:27:06Z</time>
      </trkpt>
      <trkpt lat="48.42563" lon="2.10585">
        <ele>47.241821</ele>
        <time>2009-03-15T10:27:07Z</time>
      </trkpt>
      <trkpt lat="48.4256" lon="2.10574">
        <ele>47.722534</ele>
        <time>2009-03-15T10:27:14Z</time>
      </trkpt>
      <trkpt lat="48.42557" lon="2.10568">
        <ele>48.203369</ele>
        <time>2009-03-15T10:27:22Z</time>
      </trkpt>
      <trkpt lat="48.42555" lon="2.10564">
        <ele>49.164551</ele>
        <time>2009-03-15T10:27:31Z</time>
      </trkpt>
      <trkpt lat="48.42551" lon="2.10551">
        <ele>50.606567</ele>
        <time>2009-03-15T10:27:46Z</time>
      </trkpt>
      <trkpt lat="48.42549" lon="2.10541">
        <ele>52.048584</ele>
        <time>2009-03-15T10:27:54Z</time>
      </trkpt>
      <trkpt lat="48.42549" lon="2.10537">
        <ele>52.048584</ele>
        <time>2009-03-15T10:27:56Z</time>
      </trkpt>
      <trkpt lat="48.42545" lon="2.10518">
        <ele>52.048584</ele>
        <time>2009-03-15T10:28:04Z</time>
      </trkpt>
      <trkpt lat="48.42544" lon="2.10514">
        <ele>52.529175</ele>
        <time>2009-03-15T10:28:06Z</time>
      </trkpt>
      <trkpt lat="48.42541" lon="2.10499">
        <ele>52.529175</ele>
        <time>2009-03-15T10:28:13Z</time>
      </trkpt>
      <trkpt lat="48.42536" lon="2.10489">
        <ele>53.009766</ele>
        <time>2009-03-15T10:28:20Z</time>
      </trkpt>
      <trkpt lat="48.42532" lon="2.10475">
        <ele>53.009766</ele>
        <time>2009-03-15T10:28:26Z</time>
      </trkpt>
      <trkpt lat="48.42528" lon="2.10463">
        <ele>53.490479</ele>
        <time>2009-03-15T10:28:31Z</time>
      </trkpt>
      <trkpt lat="48.42524" lon="2.10448">
        <ele>53.490479</ele>
        <time>2009-03-15T10:28:39Z</time>
      </trkpt>
      <trkpt lat="48.4252" lon="2.10435">
        <ele>53.971191</ele>
        <time>2009-03-15T10:28:48Z</time>
      </trkpt>
      <trkpt lat="48.4252" lon="2.1043">
        <ele>53.971191</ele>
        <time>2009-03-15T10:28:51Z</time>
      </trkpt>
      <trkpt lat="48.42518" lon="2.10425">
        <ele>53.971191</ele>
        <time>2009-03-15T10:28:54Z</time>
      </trkpt>
      <trkpt lat="48.42514" lon="2.10413">
        <ele>53.971191</ele>
        <time>2009-03-15T10:29:02Z</time>
      </trkpt>
      <trkpt lat="48.4251" lon="2.10398">
        <ele>53.490479</ele>
        <time>2009-03-15T10:29:10Z</time>
      </trkpt>
      <trkpt lat="48.42507" lon="2.10387">
        <ele>53.490479</ele>
        <time>2009-03-15T10:29:17Z</time>
      </trkpt>
      <trkpt lat="48.42503" lon="2.10378">
        <ele>53.490479</ele>
        <time>2009-03-15T10:29:24Z</time>
      </trkpt>
      <trkpt lat="48.42501" lon="2.10373">
        <ele>53.490479</ele>
        <time>2009-03-15T10:29:28Z</time>
      </trkpt>
      <trkpt lat="48.42496" lon="2.10358">
        <ele>53.490479</ele>
        <time>2009-03-15T10:29:37Z</time>
      </trkpt>
      <trkpt lat="48.42495" lon="2.10351">
        <ele>53.490479</ele>
        <time>2009-03-15T10:29:41Z</time>
      </trkpt>
      <trkpt lat="48.42493" lon="2.10342">
        <ele>53.490479</ele>
        <time>2009-03-15T10:29:47Z</time>
      </trkpt>
      <trkpt lat="48.42486" lon="2.10332">
        <ele>53.009766</ele>
        <time>2009-03-15T10:29:54Z</time>
      </trkpt>
      <trkpt lat="48.42478" lon="2.10319">
        <ele>52.529175</ele>
        <time>2009-03-15T10:30:03Z</time>
      </trkpt>
      <trkpt lat="48.42473" lon="2.10307">
        <ele>52.048584</ele>
        <time>2009-03-15T10:30:11Z</time>
      </trkpt>
      <trkpt lat="48.42471" lon="2.1029">
        <ele>52.048584</ele>
        <time>2009-03-15T10:30:21Z</time>
      </trkpt>
      <trkpt lat="48.42468" lon="2.10283">
        <ele>52.529175</ele>
        <time>2009-03-15T10:30:26Z</time>
      </trkpt>
      <trkpt lat="48.42465" lon="2.10267">
        <ele>51.567871</ele>
        <time>2009-03-15T10:30:34Z</time>
      </trkpt>
      <trkpt lat="48.42462" lon="2.10254">
        <ele>51.567871</ele>
        <time>2009-03-15T10:30:41Z</time>
      </trkpt>
      <trkpt lat="48.42461" lon="2.10236">
        <ele>51.567871</ele>
        <time>2009-03-15T10:30:50Z</time>
      </trkpt>
      <trkpt lat="48.42461" lon="2.10228">
        <ele>50.606567</ele>
        <time>2009-03-15T10:30:54Z</time>
      </trkpt>
      <trkpt lat="48.42462" lon="2.10219">
        <ele>51.087158</ele>
        <time>2009-03-15T10:30:59Z</time>
      </trkpt>
      <trkpt lat="48.42464" lon="2.1021">
        <ele>50.125977</ele>
        <time>2009-03-15T10:31:04Z</time>
      </trkpt>
      <trkpt lat="48.42466" lon="2.10207">
        <ele>50.606567</ele>
        <time>2009-03-15T10:31:06Z</time>
      </trkpt>
      <trkpt lat="48.42466" lon="2.10196">
        <ele>50.125977</ele>
        <time>2009-03-15T10:31:13Z</time>
      </trkpt>
      <trkpt lat="48.42458" lon="2.10188">
        <ele>51.567871</ele>
        <time>2009-03-15T10:31:23Z</time>
      </trkpt>
      <trkpt lat="48.42455" lon="2.10184">
        <ele>52.048584</ele>
        <time>2009-03-15T10:31:29Z</time>
      </trkpt>
      <trkpt lat="48.42447" lon="2.10179">
        <ele>53.009766</ele>
        <time>2009-03-15T10:31:38Z</time>
      </trkpt>
      <trkpt lat="48.42441" lon="2.10174">
        <ele>53.490479</ele>
        <time>2009-03-15T10:31:46Z</time>
      </trkpt>
      <trkpt lat="48.42431" lon="2.10166">
        <ele>54.451782</ele>
        <time>2009-03-15T10:31:56Z</time>
      </trkpt>
      <trkpt lat="48.42429" lon="2.10163">
        <ele>54.451782</ele>
        <time>2009-03-15T10:31:58Z</time>
      </trkpt>
      <trkpt lat="48.42424" lon="2.10157">
        <ele>55.413086</ele>
        <time>2009-03-15T10:32:05Z</time>
      </trkpt>
      <trkpt lat="48.42413" lon="2.10151">
        <ele>55.893799</ele>
        <time>2009-03-15T10:32:16Z</time>
      </trkpt>
      <trkpt lat="48.42406" lon="2.10137">
        <ele>57.816528</ele>
        <time>2009-03-15T10:32:31Z</time>
      </trkpt>
      <trkpt lat="48.42405" lon="2.10136">
        <ele>57.816528</ele>
        <time>2009-03-15T10:32:32Z</time>
      </trkpt>
      <trkpt lat="48.4239" lon="2.10129">
        <ele>59.739136</ele>
        <time>2009-03-15T10:32:45Z</time>
      </trkpt>
      <trkpt lat="48.42383" lon="2.10125">
        <ele>60.700317</ele>
        <time>2009-03-15T10:32:54Z</time>
      </trkpt>
      <trkpt lat="48.42373" lon="2.10118">
        <ele>61.18103</ele>
        <time>2009-03-15T10:33:06Z</time>
      </trkpt>
      <trkpt lat="48.42365" lon="2.10115">
        <ele>62.142334</ele>
        <time>2009-03-15T10:33:16Z</time>
      </trkpt>
      <trkpt lat="48.42359" lon="2.10105">
        <ele>63.103638</ele>
        <time>2009-03-15T10:33:27Z</time>
      </trkpt>
      <trkpt lat="48.42354" lon="2.101">
        <ele>64.065063</ele>
        <time>2009-03-15T10:33:33Z</time>
      </trkpt>
      <trkpt lat="48.42346" lon="2.10093">
        <ele>64.065063</ele>
        <time>2009-03-15T10:33:43Z</time>
      </trkpt>
      <trkpt lat="48.42344" lon="2.10091">
        <ele>64.545654</ele>
        <time>2009-03-15T10:33:45Z</time>
      </trkpt>
      <trkpt lat="48.42338" lon="2.10086">
        <ele>64.545654</ele>
        <time>2009-03-15T10:33:52Z</time>
      </trkpt>
      <trkpt lat="48.42327" lon="2.10075">
        <ele>65.50708</ele>
        <time>2009-03-15T10:34:02Z</time>
      </trkpt>
      <trkpt lat="48.42321" lon="2.10071">
        <ele>66.468262</ele>
        <time>2009-03-15T10:34:09Z</time>
      </trkpt>
      <trkpt lat="48.42318" lon="2.10066">
        <ele>66.948975</ele>
        <time>2009-03-15T10:34:13Z</time>
      </trkpt>
      <trkpt lat="48.42309" lon="2.10054">
        <ele>67.429688</ele>
        <time>2009-03-15T10:34:22Z</time>
      </trkpt>
      <trkpt lat="48.423" lon="2.10047">
        <ele>68.390869</ele>
        <time>2009-03-15T10:34:33Z</time>
      </trkpt>
      <trkpt lat="48.42294" lon="2.10039">
        <ele>68.871582</ele>
        <time>2009-03-15T10:34:42Z</time>
      </trkpt>
      <trkpt lat="48.42285" lon="2.10027">
        <ele>69.832886</ele>
        <time>2009-03-15T10:34:54Z</time>
      </trkpt>
      <trkpt lat="48.4228" lon="2.10021">
        <ele>70.794189</ele>
        <time>2009-03-15T10:35:04Z</time>
      </trkpt>
      <trkpt lat="48.42269" lon="2.10016">
        <ele>71.274902</ele>
        <time>2009-03-15T10:35:12Z</time>
      </trkpt>
      <trkpt lat="48.4226" lon="2.10004">
        <ele>72.236206</ele>
        <time>2009-03-15T10:35:22Z</time>
      </trkpt>
      <trkpt lat="48.42255" lon="2.09996">
        <ele>72.236206</ele>
        <time>2009-03-15T10:35:31Z</time>
      </trkpt>
      <trkpt lat="48.42249" lon="2.09987">
        <ele>73.197632</ele>
        <time>2009-03-15T10:35:39Z</time>
      </trkpt>
      <trkpt lat="48.42243" lon="2.09981">
        <ele>73.197632</ele>
        <time>2009-03-15T10:35:45Z</time>
      </trkpt>
      <trkpt lat="48.42238" lon="2.09971">
        <ele>73.197632</ele>
        <time>2009-03-15T10:35:53Z</time>
      </trkpt>
      <trkpt lat="48.42228" lon="2.09965">
        <ele>74.158813</ele>
        <time>2009-03-15T10:36:04Z</time>
      </trkpt>
      <trkpt lat="48.42225" lon="2.09959">
        <ele>74.639526</ele>
        <time>2009-03-15T10:36:09Z</time>
      </trkpt>
      <trkpt lat="48.42218" lon="2.09948">
        <ele>75.120239</ele>
        <time>2009-03-15T10:36:17Z</time>
      </trkpt>
      <trkpt lat="48.42209" lon="2.09938">
        <ele>75.60083</ele>
        <time>2009-03-15T10:36:25Z</time>
      </trkpt>
      <trkpt lat="48.42203" lon="2.0993">
        <ele>76.562134</ele>
        <time>2009-03-15T10:36:33Z</time>
      </trkpt>
      <trkpt lat="48.42196" lon="2.09925">
        <ele>77.042847</ele>
        <time>2009-03-15T10:36:41Z</time>
      </trkpt>
      <trkpt lat="48.4219" lon="2.09917">
        <ele>77.523438</ele>
        <time>2009-03-15T10:36:47Z</time>
      </trkpt>
      <trkpt lat="48.42184" lon="2.09912">
        <ele>78.484741</ele>
        <time>2009-03-15T10:36:55Z</time>
      </trkpt>
      <trkpt lat="48.42188" lon="2.09902">
        <ele>78.004028</ele>
        <time>2009-03-15T10:37:02Z</time>
      </trkpt>
      <trkpt lat="48.42195" lon="2.09892">
        <ele>78.965454</ele>
        <time>2009-03-15T10:37:09Z</time>
      </trkpt>
      <trkpt lat="48.42196" lon="2.09891">
        <ele>78.965454</ele>
        <time>2009-03-15T10:37:10Z</time>
      </trkpt>
      <trkpt lat="48.42204" lon="2.09881">
        <ele>78.965454</ele>
        <time>2009-03-15T10:37:19Z</time>
      </trkpt>
      <trkpt lat="48.42211" lon="2.09872">
        <ele>79.446045</ele>
        <time>2009-03-15T10:37:27Z</time>
      </trkpt>
      <trkpt lat="48.42217" lon="2.09863">
        <ele>78.965454</ele>
        <time>2009-03-15T10:37:34Z</time>
      </trkpt>
      <trkpt lat="48.42222" lon="2.09861">
        <ele>79.446045</ele>
        <time>2009-03-15T10:37:40Z</time>
      </trkpt>
      <trkpt lat="48.4223" lon="2.09866">
        <ele>79.926636</ele>
        <time>2009-03-15T10:37:49Z</time>
      </trkpt>
      <trkpt lat="48.42231" lon="2.09876">
        <ele>79.446045</ele>
        <time>2009-03-15T10:37:59Z</time>
      </trkpt>
      <trkpt lat="48.42227" lon="2.09882">
        <ele>78.965454</ele>
        <time>2009-03-15T10:38:18Z</time>
      </trkpt>
      <trkpt lat="48.42228" lon="2.09872">
        <ele>79.926636</ele>
        <time>2009-03-15T10:38:44Z</time>
      </trkpt>
      <trkpt lat="48.42228" lon="2.09867">
        <ele>81.368774</ele>
        <time>2009-03-15T10:38:46Z</time>
      </trkpt>
      <trkpt lat="48.4223" lon="2.09859">
        <ele>81.849365</ele>
        <time>2009-03-15T10:38:51Z</time>
      </trkpt>
      <trkpt lat="48.42236" lon="2.09848">
        <ele>82.810791</ele>
        <time>2009-03-15T10:38:59Z</time>
      </trkpt>
      <trkpt lat="48.42242" lon="2.09834">
        <ele>84.733398</ele>
        <time>2009-03-15T10:39:09Z</time>
      </trkpt>
      <trkpt lat="48.42246" lon="2.09824">
        <ele>87.136597</ele>
        <time>2009-03-15T10:39:16Z</time>
      </trkpt>
      <trkpt lat="48.42254" lon="2.09814">
        <ele>88.578735</ele>
        <time>2009-03-15T10:39:26Z</time>
      </trkpt>
      <trkpt lat="48.42256" lon="2.09805">
        <ele>89.059326</ele>
        <time>2009-03-15T10:39:34Z</time>
      </trkpt>
      <trkpt lat="48.4226" lon="2.09794">
        <ele>91.462524</ele>
        <time>2009-03-15T10:39:42Z</time>
      </trkpt>
      <trkpt lat="48.42261" lon="2.0979">
        <ele>91.462524</ele>
        <time>2009-03-15T10:39:45Z</time>
      </trkpt>
      <trkpt lat="48.42265" lon="2.09781">
        <ele>92.904541</ele>
        <time>2009-03-15T10:39:53Z</time>
      </trkpt>
      <trkpt lat="48.42267" lon="2.09774">
        <ele>92.904541</ele>
        <time>2009-03-15T10:39:58Z</time>
      </trkpt>
      <trkpt lat="48.42272" lon="2.09761">
        <ele>94.827148</ele>
        <time>2009-03-15T10:40:08Z</time>
      </trkpt>
      <trkpt lat="48.42275" lon="2.09755">
        <ele>94.827148</ele>
        <time>2009-03-15T10:40:14Z</time>
      </trkpt>
      <trkpt lat="48.4228" lon="2.09744">
        <ele>96.749878</ele>
        <time>2009-03-15T10:40:22Z</time>
      </trkpt>
      <trkpt lat="48.42284" lon="2.09733">
        <ele>96.269287</ele>
        <time>2009-03-15T10:40:30Z</time>
      </trkpt>
      <trkpt lat="48.42288" lon="2.0972">
        <ele>97.230469</ele>
        <time>2009-03-15T10:40:38Z</time>
      </trkpt>
      <trkpt lat="48.42287" lon="2.09715">
        <ele>97.230469</ele>
        <time>2009-03-15T10:40:48Z</time>
      </trkpt>
      <trkpt lat="48.42287" lon="2.09713">
        <ele>97.711182</ele>
        <time>2009-03-15T10:40:59Z</time>
      </trkpt>
      <trkpt lat="48.42289" lon="2.09709">
        <ele>99.153076</ele>
        <time>2009-03-15T10:41:25Z</time>
      </trkpt>
      <trkpt lat="48.42293" lon="2.09712">
        <ele>95.788452</ele>
        <time>2009-03-15T10:42:49Z</time>
      </trkpt>
      <trkpt lat="48.42293" lon="2.09712">
        <ele>98.191895</ele>
        <time>2009-03-15T10:42:52Z</time>
      </trkpt>
      <trkpt lat="48.42291" lon="2.09691">
        <ele>97.230469</ele>
        <time>2009-03-15T10:49:02Z</time>
      </trkpt>
      <trkpt lat="48.42294" lon="2.09685">
        <ele>97.230469</ele>
        <time>2009-03-15T10:49:10Z</time>
      </trkpt>
      <trkpt lat="48.42294" lon="2.0968">
        <ele>97.711182</ele>
        <time>2009-03-15T10:49:16Z</time>
      </trkpt>
      <trkpt lat="48.42297" lon="2.09674">
        <ele>97.230469</ele>
        <time>2009-03-15T10:49:23Z</time>
      </trkpt>
      <trkpt lat="48.42296" lon="2.0967">
        <ele>97.711182</ele>
        <time>2009-03-15T10:49:26Z</time>
      </trkpt>
      <trkpt lat="48.42299" lon="2.09661">
        <ele>97.711182</ele>
        <time>2009-03-15T10:49:34Z</time>
      </trkpt>
      <trkpt lat="48.423" lon="2.0965">
        <ele>97.711182</ele>
        <time>2009-03-15T10:49:42Z</time>
      </trkpt>
      <trkpt lat="48.42303" lon="2.09641">
        <ele>98.191895</ele>
        <time>2009-03-15T10:49:50Z</time>
      </trkpt>
      <trkpt lat="48.42304" lon="2.09628">
        <ele>98.191895</ele>
        <time>2009-03-15T10:49:58Z</time>
      </trkpt>
      <trkpt lat="48.42305" lon="2.09614">
        <ele>98.672485</ele>
        <time>2009-03-15T10:50:06Z</time>
      </trkpt>
      <trkpt lat="48.42307" lon="2.09604">
        <ele>98.672485</ele>
        <time>2009-03-15T10:50:13Z</time>
      </trkpt>
      <trkpt lat="48.4231" lon="2.09593">
        <ele>98.672485</ele>
        <time>2009-03-15T10:50:19Z</time>
      </trkpt>
      <trkpt lat="48.4231" lon="2.09576">
        <ele>98.672485</ele>
        <time>2009-03-15T10:50:27Z</time>
      </trkpt>
      <trkpt lat="48.42313" lon="2.09573">
        <ele>98.191895</ele>
        <time>2009-03-15T10:50:34Z</time>
      </trkpt>
      <trkpt lat="48.42313" lon="2.09571">
        <ele>98.672485</ele>
        <time>2009-03-15T10:50:47Z</time>
      </trkpt>
      <trkpt lat="48.42315" lon="2.09561">
        <ele>98.672485</ele>
        <time>2009-03-15T10:50:55Z</time>
      </trkpt>
      <trkpt lat="48.42316" lon="2.0955">
        <ele>98.191895</ele>
        <time>2009-03-15T10:51:05Z</time>
      </trkpt>
      <trkpt lat="48.42317" lon="2.0954">
        <ele>99.153076</ele>
        <time>2009-03-15T10:51:12Z</time>
      </trkpt>
      <trkpt lat="48.42317" lon="2.09523">
        <ele>99.153076</ele>
        <time>2009-03-15T10:51:20Z</time>
      </trkpt>
      <trkpt lat="48.42319" lon="2.09512">
        <ele>98.191895</ele>
        <time>2009-03-15T10:51:27Z</time>
      </trkpt>
      <trkpt lat="48.4232" lon="2.09501">
        <ele>97.711182</ele>
        <time>2009-03-15T10:51:35Z</time>
      </trkpt>
      <trkpt lat="48.42322" lon="2.0949">
        <ele>98.672485</ele>
        <time>2009-03-15T10:51:43Z</time>
      </trkpt>
      <trkpt lat="48.42323" lon="2.09478">
        <ele>98.191895</ele>
        <time>2009-03-15T10:51:52Z</time>
      </trkpt>
      <trkpt lat="48.42322" lon="2.09474">
        <ele>98.191895</ele>
        <time>2009-03-15T10:51:54Z</time>
      </trkpt>
      <trkpt lat="48.42323" lon="2.09457">
        <ele>98.191895</ele>
        <time>2009-03-15T10:52:05Z</time>
      </trkpt>
      <trkpt lat="48.42324" lon="2.09445">
        <ele>98.672485</ele>
        <time>2009-03-15T10:52:12Z</time>
      </trkpt>
      <trkpt lat="48.42325" lon="2.09429">
        <ele>98.191895</ele>
        <time>2009-03-15T10:52:21Z</time>
      </trkpt>
      <trkpt lat="48.42325" lon="2.09412">
        <ele>98.672485</ele>
        <time>2009-03-15T10:52:29Z</time>
      </trkpt>
      <trkpt lat="48.42326" lon="2.09403">
        <ele>97.230469</ele>
        <time>2009-03-15T10:52:34Z</time>
      </trkpt>
      <trkpt lat="48.42328" lon="2.0939">
        <ele>97.230469</ele>
        <time>2009-03-15T10:52:43Z</time>
      </trkpt>
      <trkpt lat="48.42329" lon="2.09378">
        <ele>96.749878</ele>
        <time>2009-03-15T10:52:51Z</time>
      </trkpt>
      <trkpt lat="48.42329" lon="2.09368">
        <ele>99.153076</ele>
        <time>2009-03-15T10:52:57Z</time>
      </trkpt>
      <trkpt lat="48.42331" lon="2.09354">
        <ele>97.230469</ele>
        <time>2009-03-15T10:53:04Z</time>
      </trkpt>
      <trkpt lat="48.42331" lon="2.09352">
        <ele>96.749878</ele>
        <time>2009-03-15T10:53:05Z</time>
      </trkpt>
      <trkpt lat="48.42334" lon="2.0934">
        <ele>98.191895</ele>
        <time>2009-03-15T10:53:13Z</time>
      </trkpt>
      <trkpt lat="48.42336" lon="2.09324">
        <ele>98.191895</ele>
        <time>2009-03-15T10:53:22Z</time>
      </trkpt>
      <trkpt lat="48.42341" lon="2.09308">
        <ele>98.191895</ele>
        <time>2009-03-15T10:53:32Z</time>
      </trkpt>
      <trkpt lat="48.42344" lon="2.09295">
        <ele>97.230469</ele>
        <time>2009-03-15T10:53:39Z</time>
      </trkpt>
      <trkpt lat="48.42344" lon="2.09282">
        <ele>96.749878</ele>
        <time>2009-03-15T10:53:46Z</time>
      </trkpt>
      <trkpt lat="48.42347" lon="2.09267">
        <ele>97.230469</ele>
        <time>2009-03-15T10:53:54Z</time>
      </trkpt>
      <trkpt lat="48.4235" lon="2.09251">
        <ele>97.230469</ele>
        <time>2009-03-15T10:54:04Z</time>
      </trkpt>
      <trkpt lat="48.42351" lon="2.09237">
        <ele>97.230469</ele>
        <time>2009-03-15T10:54:12Z</time>
      </trkpt>
      <trkpt lat="48.42354" lon="2.09219">
        <ele>97.230469</ele>
        <time>2009-03-15T10:54:21Z</time>
      </trkpt>
      <trkpt lat="48.42357" lon="2.09202">
        <ele>96.749878</ele>
        <time>2009-03-15T10:54:31Z</time>
      </trkpt>
      <trkpt lat="48.4236" lon="2.09185">
        <ele>96.269287</ele>
        <time>2009-03-15T10:54:40Z</time>
      </trkpt>
      <trkpt lat="48.42362" lon="2.09166">
        <ele>95.788452</ele>
        <time>2009-03-15T10:54:50Z</time>
      </trkpt>
      <trkpt lat="48.42366" lon="2.09152">
        <ele>95.307739</ele>
        <time>2009-03-15T10:54:58Z</time>
      </trkpt>
      <trkpt lat="48.42368" lon="2.09135">
        <ele>95.307739</ele>
        <time>2009-03-15T10:55:07Z</time>
      </trkpt>
      <trkpt lat="48.42371" lon="2.09121">
        <ele>94.827148</ele>
        <time>2009-03-15T10:55:16Z</time>
      </trkpt>
      <trkpt lat="48.42374" lon="2.09104">
        <ele>94.827148</ele>
        <time>2009-03-15T10:55:26Z</time>
      </trkpt>
      <trkpt lat="48.42376" lon="2.09089">
        <ele>94.827148</ele>
        <time>2009-03-15T10:55:34Z</time>
      </trkpt>
      <trkpt lat="48.42378" lon="2.09073">
        <ele>94.346558</ele>
        <time>2009-03-15T10:55:43Z</time>
      </trkpt>
      <trkpt lat="48.4238" lon="2.09056">
        <ele>94.346558</ele>
        <time>2009-03-15T10:55:52Z</time>
      </trkpt>
      <trkpt lat="48.42382" lon="2.09042">
        <ele>93.865845</ele>
        <time>2009-03-15T10:55:59Z</time>
      </trkpt>
      <trkpt lat="48.42384" lon="2.09028">
        <ele>93.865845</ele>
        <time>2009-03-15T10:56:07Z</time>
      </trkpt>
      <trkpt lat="48.42388" lon="2.09015">
        <ele>93.385132</ele>
        <time>2009-03-15T10:56:14Z</time>
      </trkpt>
      <trkpt lat="48.42392" lon="2.09001">
        <ele>93.385132</ele>
        <time>2009-03-15T10:56:22Z</time>
      </trkpt>
      <trkpt lat="48.42393" lon="2.08988">
        <ele>92.904541</ele>
        <time>2009-03-15T10:56:30Z</time>
      </trkpt>
      <trkpt lat="48.42396" lon="2.08972">
        <ele>92.904541</ele>
        <time>2009-03-15T10:56:39Z</time>
      </trkpt>
      <trkpt lat="48.42399" lon="2.08958">
        <ele>92.904541</ele>
        <time>2009-03-15T10:56:47Z</time>
      </trkpt>
      <trkpt lat="48.42402" lon="2.08936">
        <ele>91.462524</ele>
        <time>2009-03-15T10:56:58Z</time>
      </trkpt>
      <trkpt lat="48.42404" lon="2.08919">
        <ele>90.981934</ele>
        <time>2009-03-15T10:57:08Z</time>
      </trkpt>
      <trkpt lat="48.42408" lon="2.08899">
        <ele>89.059326</ele>
        <time>2009-03-15T10:57:20Z</time>
      </trkpt>
      <trkpt lat="48.42409" lon="2.08894">
        <ele>88.578735</ele>
        <time>2009-03-15T10:57:23Z</time>
      </trkpt>
      <trkpt lat="48.42412" lon="2.08877">
        <ele>87.136597</ele>
        <time>2009-03-15T10:57:32Z</time>
      </trkpt>
      <trkpt lat="48.42414" lon="2.08859">
        <ele>86.656006</ele>
        <time>2009-03-15T10:57:42Z</time>
      </trkpt>
      <trkpt lat="48.42414" lon="2.0885">
        <ele>86.175293</ele>
        <time>2009-03-15T10:57:46Z</time>
      </trkpt>
      <trkpt lat="48.42419" lon="2.08833">
        <ele>84.733398</ele>
        <time>2009-03-15T10:57:57Z</time>
      </trkpt>
      <trkpt lat="48.42422" lon="2.08812">
        <ele>83.771973</ele>
        <time>2009-03-15T10:58:08Z</time>
      </trkpt>
      <trkpt lat="48.42428" lon="2.08793">
        <ele>83.291382</ele>
        <time>2009-03-15T10:58:19Z</time>
      </trkpt>
      <trkpt lat="48.42432" lon="2.08784">
        <ele>82.810791</ele>
        <time>2009-03-15T10:58:27Z</time>
      </trkpt>
      <trkpt lat="48.42433" lon="2.08783">
        <ele>82.810791</ele>
        <time>2009-03-15T10:58:28Z</time>
      </trkpt>
      <trkpt lat="48.42439" lon="2.0877">
        <ele>82.810791</ele>
        <time>2009-03-15T10:58:36Z</time>
      </trkpt>
      <trkpt lat="48.42444" lon="2.08759">
        <ele>84.252686</ele>
        <time>2009-03-15T10:58:43Z</time>
      </trkpt>
      <trkpt lat="48.42452" lon="2.08739">
        <ele>84.733398</ele>
        <time>2009-03-15T10:58:53Z</time>
      </trkpt>
      <trkpt lat="48.42457" lon="2.08727">
        <ele>85.69458</ele>
        <time>2009-03-15T10:59:01Z</time>
      </trkpt>
      <trkpt lat="48.4246" lon="2.08713">
        <ele>86.175293</ele>
        <time>2009-03-15T10:59:10Z</time>
      </trkpt>
      <trkpt lat="48.42464" lon="2.08702">
        <ele>87.136597</ele>
        <time>2009-03-15T10:59:19Z</time>
      </trkpt>
      <trkpt lat="48.42466" lon="2.08697">
        <ele>87.617188</ele>
        <time>2009-03-15T10:59:22Z</time>
      </trkpt>
      <trkpt lat="48.42472" lon="2.08685">
        <ele>89.059326</ele>
        <time>2009-03-15T10:59:32Z</time>
      </trkpt>
      <trkpt lat="48.42474" lon="2.08672">
        <ele>89.539917</ele>
        <time>2009-03-15T10:59:42Z</time>
      </trkpt>
      <trkpt lat="48.42477" lon="2.0866">
        <ele>91.462524</ele>
        <time>2009-03-15T10:59:51Z</time>
      </trkpt>
      <trkpt lat="48.42483" lon="2.0865">
        <ele>91.462524</ele>
        <time>2009-03-15T11:00:00Z</time>
      </trkpt>
      <trkpt lat="48.42486" lon="2.08638">
        <ele>92.42395</ele>
        <time>2009-03-15T11:00:08Z</time>
      </trkpt>
      <trkpt lat="48.4249" lon="2.08623">
        <ele>92.904541</ele>
        <time>2009-03-15T11:00:16Z</time>
      </trkpt>
      <trkpt lat="48.42494" lon="2.08611">
        <ele>92.904541</ele>
        <time>2009-03-15T11:00:24Z</time>
      </trkpt>
      <trkpt lat="48.42496" lon="2.08597">
        <ele>93.865845</ele>
        <time>2009-03-15T11:00:32Z</time>
      </trkpt>
      <trkpt lat="48.42503" lon="2.08586">
        <ele>94.827148</ele>
        <time>2009-03-15T11:00:40Z</time>
      </trkpt>
      <trkpt lat="48.42507" lon="2.08575">
        <ele>95.307739</ele>
        <time>2009-03-15T11:00:49Z</time>
      </trkpt>
      <trkpt lat="48.42514" lon="2.08561">
        <ele>95.788452</ele>
        <time>2009-03-15T11:00:59Z</time>
      </trkpt>
      <trkpt lat="48.42516" lon="2.08547">
        <ele>96.269287</ele>
        <time>2009-03-15T11:01:08Z</time>
      </trkpt>
      <trkpt lat="48.42518" lon="2.0854">
        <ele>95.788452</ele>
        <time>2009-03-15T11:01:11Z</time>
      </trkpt>
      <trkpt lat="48.42524" lon="2.0853">
        <ele>96.749878</ele>
        <time>2009-03-15T11:01:19Z</time>
      </trkpt>
      <trkpt lat="48.42528" lon="2.08521">
        <ele>96.749878</ele>
        <time>2009-03-15T11:01:26Z</time>
      </trkpt>
      <trkpt lat="48.42536" lon="2.0851">
        <ele>96.749878</ele>
        <time>2009-03-15T11:01:35Z</time>
      </trkpt>
      <trkpt lat="48.42541" lon="2.085">
        <ele>97.230469</ele>
        <time>2009-03-15T11:01:41Z</time>
      </trkpt>
      <trkpt lat="48.42544" lon="2.0849">
        <ele>96.749878</ele>
        <time>2009-03-15T11:01:47Z</time>
      </trkpt>
      <trkpt lat="48.42549" lon="2.08478">
        <ele>97.230469</ele>
        <time>2009-03-15T11:01:55Z</time>
      </trkpt>
      <trkpt lat="48.42555" lon="2.08466">
        <ele>96.749878</ele>
        <time>2009-03-15T11:02:04Z</time>
      </trkpt>
      <trkpt lat="48.42555" lon="2.08459">
        <ele>96.269287</ele>
        <time>2009-03-15T11:02:08Z</time>
      </trkpt>
      <trkpt lat="48.42561" lon="2.08444">
        <ele>96.269287</ele>
        <time>2009-03-15T11:02:18Z</time>
      </trkpt>
      <trkpt lat="48.42561" lon="2.08442">
        <ele>95.788452</ele>
        <time>2009-03-15T11:02:19Z</time>
      </trkpt>
      <trkpt lat="48.42564" lon="2.08428">
        <ele>95.788452</ele>
        <time>2009-03-15T11:02:27Z</time>
      </trkpt>
      <trkpt lat="48.42568" lon="2.08415">
        <ele>95.788452</ele>
        <time>2009-03-15T11:02:35Z</time>
      </trkpt>
      <trkpt lat="48.42571" lon="2.08405">
        <ele>95.307739</ele>
        <time>2009-03-15T11:02:42Z</time>
      </trkpt>
      <trkpt lat="48.42571" lon="2.08397">
        <ele>94.827148</ele>
        <time>2009-03-15T11:02:47Z</time>
      </trkpt>
      <trkpt lat="48.42572" lon="2.08382">
        <ele>94.346558</ele>
        <time>2009-03-15T11:02:55Z</time>
      </trkpt>
      <trkpt lat="48.42574" lon="2.08368">
        <ele>94.346558</ele>
        <time>2009-03-15T11:03:02Z</time>
      </trkpt>
      <trkpt lat="48.42574" lon="2.08364">
        <ele>93.865845</ele>
        <time>2009-03-15T11:03:04Z</time>
      </trkpt>
      <trkpt lat="48.42577" lon="2.08349">
        <ele>93.385132</ele>
        <time>2009-03-15T11:03:13Z</time>
      </trkpt>
      <trkpt lat="48.42577" lon="2.08331">
        <ele>92.904541</ele>
        <time>2009-03-15T11:03:21Z</time>
      </trkpt>
      <trkpt lat="48.42577" lon="2.08312">
        <ele>92.42395</ele>
        <time>2009-03-15T11:03:31Z</time>
      </trkpt>
      <trkpt lat="48.42578" lon="2.08294">
        <ele>92.42395</ele>
        <time>2009-03-15T11:03:39Z</time>
      </trkpt>
      <trkpt lat="48.4258" lon="2.0828">
        <ele>91.943237</ele>
        <time>2009-03-15T11:03:47Z</time>
      </trkpt>
      <trkpt lat="48.42579" lon="2.08263">
        <ele>91.462524</ele>
        <time>2009-03-15T11:03:56Z</time>
      </trkpt>
      <trkpt lat="48.42581" lon="2.08256">
        <ele>91.462524</ele>
        <time>2009-03-15T11:04:03Z</time>
      </trkpt>
      <trkpt lat="48.42582" lon="2.0825">
        <ele>90.981934</ele>
        <time>2009-03-15T11:04:10Z</time>
      </trkpt>
      <trkpt lat="48.42582" lon="2.08232">
        <ele>90.981934</ele>
        <time>2009-03-15T11:04:19Z</time>
      </trkpt>
      <trkpt lat="48.42581" lon="2.08216">
        <ele>90.501343</ele>
        <time>2009-03-15T11:04:28Z</time>
      </trkpt>
      <trkpt lat="48.42579" lon="2.08195">
        <ele>90.501343</ele>
        <time>2009-03-15T11:04:38Z</time>
      </trkpt>
      <trkpt lat="48.42576" lon="2.08178">
        <ele>90.501343</ele>
        <time>2009-03-15T11:04:46Z</time>
      </trkpt>
      <trkpt lat="48.42576" lon="2.08163">
        <ele>90.501343</ele>
        <time>2009-03-15T11:04:55Z</time>
      </trkpt>
      <trkpt lat="48.42575" lon="2.08162">
        <ele>90.02063</ele>
        <time>2009-03-15T11:04:56Z</time>
      </trkpt>
      <trkpt lat="48.42575" lon="2.08148">
        <ele>90.501343</ele>
        <time>2009-03-15T11:05:05Z</time>
      </trkpt>
      <trkpt lat="48.42578" lon="2.08137">
        <ele>89.539917</ele>
        <time>2009-03-15T11:05:12Z</time>
      </trkpt>
      <trkpt lat="48.4258" lon="2.08134">
        <ele>89.059326</ele>
        <time>2009-03-15T11:05:16Z</time>
      </trkpt>
      <trkpt lat="48.42581" lon="2.08123">
        <ele>88.578735</ele>
        <time>2009-03-15T11:05:23Z</time>
      </trkpt>
      <trkpt lat="48.42578" lon="2.08105">
        <ele>88.098022</ele>
        <time>2009-03-15T11:05:35Z</time>
      </trkpt>
      <trkpt lat="48.42575" lon="2.0809">
        <ele>88.098022</ele>
        <time>2009-03-15T11:05:44Z</time>
      </trkpt>
      <trkpt lat="48.4258" lon="2.08071">
        <ele>88.098022</ele>
        <time>2009-03-15T11:05:56Z</time>
      </trkpt>
      <trkpt lat="48.42581" lon="2.08049">
        <ele>88.098022</ele>
        <time>2009-03-15T11:06:08Z</time>
      </trkpt>
      <trkpt lat="48.42577" lon="2.08028">
        <ele>88.098022</ele>
        <time>2009-03-15T11:06:18Z</time>
      </trkpt>
      <trkpt lat="48.42578" lon="2.08006">
        <ele>87.617188</ele>
        <time>2009-03-15T11:06:31Z</time>
      </trkpt>
      <trkpt lat="48.42581" lon="2.07992">
        <ele>87.136597</ele>
        <time>2009-03-15T11:06:42Z</time>
      </trkpt>
      <trkpt lat="48.4258" lon="2.07973">
        <ele>86.656006</ele>
        <time>2009-03-15T11:06:53Z</time>
      </trkpt>
      <trkpt lat="48.42586" lon="2.0796">
        <ele>86.656006</ele>
        <time>2009-03-15T11:07:01Z</time>
      </trkpt>
      <trkpt lat="48.42588" lon="2.07945">
        <ele>86.175293</ele>
        <time>2009-03-15T11:07:13Z</time>
      </trkpt>
      <trkpt lat="48.42591" lon="2.0793">
        <ele>86.175293</ele>
        <time>2009-03-15T11:07:23Z</time>
      </trkpt>
      <trkpt lat="48.42597" lon="2.07907">
        <ele>85.69458</ele>
        <time>2009-03-15T11:07:34Z</time>
      </trkpt>
      <trkpt lat="48.42601" lon="2.07892">
        <ele>85.69458</ele>
        <time>2009-03-15T11:07:43Z</time>
      </trkpt>
      <trkpt lat="48.42603" lon="2.07881">
        <ele>86.175293</ele>
        <time>2009-03-15T11:07:51Z</time>
      </trkpt>
      <trkpt lat="48.42606" lon="2.07869">
        <ele>85.69458</ele>
        <time>2009-03-15T11:08:00Z</time>
      </trkpt>
      <trkpt lat="48.42611" lon="2.07854">
        <ele>85.69458</ele>
        <time>2009-03-15T11:08:09Z</time>
      </trkpt>
      <trkpt lat="48.42612" lon="2.07842">
        <ele>85.69458</ele>
        <time>2009-03-15T11:08:15Z</time>
      </trkpt>
      <trkpt lat="48.42614" lon="2.07834">
        <ele>85.213989</ele>
        <time>2009-03-15T11:08:19Z</time>
      </trkpt>
      <trkpt lat="48.42616" lon="2.07824">
        <ele>85.213989</ele>
        <time>2009-03-15T11:08:24Z</time>
      </trkpt>
      <trkpt lat="48.42619" lon="2.0781">
        <ele>85.213989</ele>
        <time>2009-03-15T11:08:31Z</time>
      </trkpt>
      <trkpt lat="48.42623" lon="2.07798">
        <ele>85.213989</ele>
        <time>2009-03-15T11:08:39Z</time>
      </trkpt>
      <trkpt lat="48.42626" lon="2.07786">
        <ele>84.733398</ele>
        <time>2009-03-15T11:08:47Z</time>
      </trkpt>
      <trkpt lat="48.42628" lon="2.07775">
        <ele>84.252686</ele>
        <time>2009-03-15T11:08:55Z</time>
      </trkpt>
      <trkpt lat="48.42633" lon="2.07761">
        <ele>84.252686</ele>
        <time>2009-03-15T11:09:03Z</time>
      </trkpt>
      <trkpt lat="48.42639" lon="2.07749">
        <ele>84.733398</ele>
        <time>2009-03-15T11:09:10Z</time>
      </trkpt>
      <trkpt lat="48.42643" lon="2.07737">
        <ele>84.252686</ele>
        <time>2009-03-15T11:09:18Z</time>
      </trkpt>
      <trkpt lat="48.42645" lon="2.07728">
        <ele>84.252686</ele>
        <time>2009-03-15T11:09:23Z</time>
      </trkpt>
      <trkpt lat="48.42649" lon="2.07713">
        <ele>83.291382</ele>
        <time>2009-03-15T11:09:32Z</time>
      </trkpt>
      <trkpt lat="48.42654" lon="2.07697">
        <ele>82.330078</ele>
        <time>2009-03-15T11:09:44Z</time>
      </trkpt>
      <trkpt lat="48.4266" lon="2.07678">
        <ele>81.368774</ele>
        <time>2009-03-15T11:09:56Z</time>
      </trkpt>
      <trkpt lat="48.42666" lon="2.07667">
        <ele>80.888184</ele>
        <time>2009-03-15T11:10:05Z</time>
      </trkpt>
      <trkpt lat="48.42671" lon="2.07653">
        <ele>80.407471</ele>
        <time>2009-03-15T11:10:15Z</time>
      </trkpt>
      <trkpt lat="48.42673" lon="2.07639">
        <ele>79.446045</ele>
        <time>2009-03-15T11:10:23Z</time>
      </trkpt>
      <trkpt lat="48.42678" lon="2.07622">
        <ele>78.484741</ele>
        <time>2009-03-15T11:10:33Z</time>
      </trkpt>
      <trkpt lat="48.42679" lon="2.07601">
        <ele>78.484741</ele>
        <time>2009-03-15T11:10:44Z</time>
      </trkpt>
      <trkpt lat="48.42677" lon="2.07576">
        <ele>77.042847</ele>
        <time>2009-03-15T11:10:56Z</time>
      </trkpt>
      <trkpt lat="48.42679" lon="2.07561">
        <ele>77.042847</ele>
        <time>2009-03-15T11:11:04Z</time>
      </trkpt>
      <trkpt lat="48.42681" lon="2.07547">
        <ele>76.081421</ele>
        <time>2009-03-15T11:11:13Z</time>
      </trkpt>
      <trkpt lat="48.42683" lon="2.07531">
        <ele>75.120239</ele>
        <time>2009-03-15T11:11:23Z</time>
      </trkpt>
      <trkpt lat="48.42683" lon="2.07517">
        <ele>74.639526</ele>
        <time>2009-03-15T11:11:31Z</time>
      </trkpt>
      <trkpt lat="48.42683" lon="2.07516">
        <ele>74.639526</ele>
        <time>2009-03-15T11:11:32Z</time>
      </trkpt>
      <trkpt lat="48.42683" lon="2.07501">
        <ele>74.158813</ele>
        <time>2009-03-15T11:11:40Z</time>
      </trkpt>
      <trkpt lat="48.42684" lon="2.07488">
        <ele>73.197632</ele>
        <time>2009-03-15T11:11:49Z</time>
      </trkpt>
      <trkpt lat="48.42684" lon="2.07474">
        <ele>72.716919</ele>
        <time>2009-03-15T11:11:57Z</time>
      </trkpt>
      <trkpt lat="48.42684" lon="2.0746">
        <ele>71.755493</ele>
        <time>2009-03-15T11:12:05Z</time>
      </trkpt>
      <trkpt lat="48.42685" lon="2.07455">
        <ele>71.755493</ele>
        <time>2009-03-15T11:12:08Z</time>
      </trkpt>
      <trkpt lat="48.42684" lon="2.0744">
        <ele>70.794189</ele>
        <time>2009-03-15T11:12:17Z</time>
      </trkpt>
      <trkpt lat="48.42684" lon="2.07434">
        <ele>70.313477</ele>
        <time>2009-03-15T11:12:20Z</time>
      </trkpt>
      <trkpt lat="48.42686" lon="2.0742">
        <ele>69.352295</ele>
        <time>2009-03-15T11:12:29Z</time>
      </trkpt>
      <trkpt lat="48.42685" lon="2.07419">
        <ele>69.352295</ele>
        <time>2009-03-15T11:12:30Z</time>
      </trkpt>
      <trkpt lat="48.42686" lon="2.07404">
        <ele>68.390869</ele>
        <time>2009-03-15T11:12:38Z</time>
      </trkpt>
      <trkpt lat="48.42687" lon="2.0739">
        <ele>67.429688</ele>
        <time>2009-03-15T11:12:46Z</time>
      </trkpt>
      <trkpt lat="48.42686" lon="2.07382">
        <ele>66.468262</ele>
        <time>2009-03-15T11:12:52Z</time>
      </trkpt>
      <trkpt lat="48.42684" lon="2.07369">
        <ele>65.987671</ele>
        <time>2009-03-15T11:12:59Z</time>
      </trkpt>
      <trkpt lat="48.42685" lon="2.07367">
        <ele>65.987671</ele>
        <time>2009-03-15T11:13:00Z</time>
      </trkpt>
      <trkpt lat="48.42681" lon="2.07349">
        <ele>65.026367</ele>
        <time>2009-03-15T11:13:10Z</time>
      </trkpt>
      <trkpt lat="48.42679" lon="2.07337">
        <ele>64.065063</ele>
        <time>2009-03-15T11:13:18Z</time>
      </trkpt>
      <trkpt lat="48.42677" lon="2.07324">
        <ele>64.065063</ele>
        <time>2009-03-15T11:13:26Z</time>
      </trkpt>
      <trkpt lat="48.42674" lon="2.07313">
        <ele>63.103638</ele>
        <time>2009-03-15T11:13:34Z</time>
      </trkpt>
      <trkpt lat="48.4267" lon="2.07299">
        <ele>63.103638</ele>
        <time>2009-03-15T11:13:42Z</time>
      </trkpt>
      <trkpt lat="48.42665" lon="2.07288">
        <ele>63.103638</ele>
        <time>2009-03-15T11:13:49Z</time>
      </trkpt>
      <trkpt lat="48.42659" lon="2.07274">
        <ele>62.142334</ele>
        <time>2009-03-15T11:13:58Z</time>
      </trkpt>
      <trkpt lat="48.42656" lon="2.07266">
        <ele>63.103638</ele>
        <time>2009-03-15T11:14:07Z</time>
      </trkpt>
      <trkpt lat="48.42649" lon="2.0725">
        <ele>61.18103</ele>
        <time>2009-03-15T11:14:18Z</time>
      </trkpt>
      <trkpt lat="48.42637" lon="2.07226">
        <ele>61.18103</ele>
        <time>2009-03-15T11:14:34Z</time>
      </trkpt>
      <trkpt lat="48.42627" lon="2.07213">
        <ele>60.219727</ele>
        <time>2009-03-15T11:14:49Z</time>
      </trkpt>
      <trkpt lat="48.42618" lon="2.07196">
        <ele>59.258423</ele>
        <time>2009-03-15T11:15:05Z</time>
      </trkpt>
      <trkpt lat="48.42609" lon="2.07182">
        <ele>58.77771</ele>
        <time>2009-03-15T11:15:17Z</time>
      </trkpt>
      <trkpt lat="48.42596" lon="2.0717">
        <ele>58.77771</ele>
        <time>2009-03-15T11:15:30Z</time>
      </trkpt>
      <trkpt lat="48.42585" lon="2.07154">
        <ele>58.297119</ele>
        <time>2009-03-15T11:15:45Z</time>
      </trkpt>
      <trkpt lat="48.42574" lon="2.07139">
        <ele>58.297119</ele>
        <time>2009-03-15T11:16:00Z</time>
      </trkpt>
      <trkpt lat="48.42561" lon="2.07122">
        <ele>58.297119</ele>
        <time>2009-03-15T11:16:18Z</time>
      </trkpt>
      <trkpt lat="48.42544" lon="2.07098">
        <ele>56.855103</ele>
        <time>2009-03-15T11:16:34Z</time>
      </trkpt>
      <trkpt lat="48.42527" lon="2.07084">
        <ele>57.335815</ele>
        <time>2009-03-15T11:16:47Z</time>
      </trkpt>
      <trkpt lat="48.42525" lon="2.07082">
        <ele>56.855103</ele>
        <time>2009-03-15T11:16:49Z</time>
      </trkpt>
      <trkpt lat="48.42513" lon="2.0707">
        <ele>55.893799</ele>
        <time>2009-03-15T11:17:00Z</time>
      </trkpt>
      <trkpt lat="48.42508" lon="2.07063">
        <ele>55.893799</ele>
        <time>2009-03-15T11:17:07Z</time>
      </trkpt>
      <trkpt lat="48.42503" lon="2.07056">
        <ele>55.893799</ele>
        <time>2009-03-15T11:17:15Z</time>
      </trkpt>
      <trkpt lat="48.42496" lon="2.07043">
        <ele>54.451782</ele>
        <time>2009-03-15T11:17:24Z</time>
      </trkpt>
      <trkpt lat="48.42489" lon="2.07039">
        <ele>53.490479</ele>
        <time>2009-03-15T11:17:36Z</time>
      </trkpt>
      <trkpt lat="48.42486" lon="2.07023">
        <ele>52.048584</ele>
        <time>2009-03-15T11:17:49Z</time>
      </trkpt>
      <trkpt lat="48.42485" lon="2.06999">
        <ele>52.048584</ele>
        <time>2009-03-15T11:18:04Z</time>
      </trkpt>
      <trkpt lat="48.42488" lon="2.06987">
        <ele>51.567871</ele>
        <time>2009-03-15T11:18:18Z</time>
      </trkpt>
      <trkpt lat="48.4249" lon="2.06986">
        <ele>50.125977</ele>
        <time>2009-03-15T11:18:48Z</time>
      </trkpt>
      <trkpt lat="48.42527" lon="2.06983">
        <ele>49.164551</ele>
        <time>2009-03-15T11:18:57Z</time>
      </trkpt>
      <trkpt lat="48.42545" lon="2.06979">
        <ele>49.164551</ele>
        <time>2009-03-15T11:19:08Z</time>
      </trkpt>
      <trkpt lat="48.4255" lon="2.06977">
        <ele>49.164551</ele>
        <time>2009-03-15T11:19:11Z</time>
      </trkpt>
      <trkpt lat="48.42562" lon="2.06982">
        <ele>49.164551</ele>
        <time>2009-03-15T11:19:22Z</time>
      </trkpt>
      <trkpt lat="48.42573" lon="2.06979">
        <ele>48.68396</ele>
        <time>2009-03-15T11:19:35Z</time>
      </trkpt>
      <trkpt lat="48.42574" lon="2.06971">
        <ele>48.68396</ele>
        <time>2009-03-15T11:19:44Z</time>
      </trkpt>
      <trkpt lat="48.42574" lon="2.06963">
        <ele>49.164551</ele>
        <time>2009-03-15T11:19:50Z</time>
      </trkpt>
      <trkpt lat="48.4258" lon="2.06944">
        <ele>48.203369</ele>
        <time>2009-03-15T11:20:02Z</time>
      </trkpt>
      <trkpt lat="48.42585" lon="2.06921">
        <ele>48.203369</ele>
        <time>2009-03-15T11:20:13Z</time>
      </trkpt>
      <trkpt lat="48.42585" lon="2.06915">
        <ele>48.203369</ele>
        <time>2009-03-15T11:20:17Z</time>
      </trkpt>
      <trkpt lat="48.42589" lon="2.06912">
        <ele>48.68396</ele>
        <time>2009-03-15T11:20:21Z</time>
      </trkpt>
      <trkpt lat="48.42595" lon="2.06899">
        <ele>48.68396</ele>
        <time>2009-03-15T11:20:29Z</time>
      </trkpt>
      <trkpt lat="48.42604" lon="2.0689">
        <ele>48.68396</ele>
        <time>2009-03-15T11:20:37Z</time>
      </trkpt>
      <trkpt lat="48.42605" lon="2.06889">
        <ele>48.68396</ele>
        <time>2009-03-15T11:20:39Z</time>
      </trkpt>
      <trkpt lat="48.42613" lon="2.06886">
        <ele>48.203369</ele>
        <time>2009-03-15T11:20:48Z</time>
      </trkpt>
      <trkpt lat="48.42619" lon="2.06888">
        <ele>47.722534</ele>
        <time>2009-03-15T11:20:55Z</time>
      </trkpt>
      <trkpt lat="48.42632" lon="2.06897">
        <ele>47.241821</ele>
        <time>2009-03-15T11:21:07Z</time>
      </trkpt>
      <trkpt lat="48.42632" lon="2.06898">
        <ele>48.203369</ele>
        <time>2009-03-15T11:21:08Z</time>
      </trkpt>
      <trkpt lat="48.42641" lon="2.06903">
        <ele>48.203369</ele>
        <time>2009-03-15T11:21:16Z</time>
      </trkpt>
      <trkpt lat="48.42647" lon="2.06907">
        <ele>49.164551</ele>
        <time>2009-03-15T11:21:25Z</time>
      </trkpt>
      <trkpt lat="48.42652" lon="2.06913">
        <ele>47.241821</ele>
        <time>2009-03-15T11:21:32Z</time>
      </trkpt>
      <trkpt lat="48.42655" lon="2.06915">
        <ele>48.203369</ele>
        <time>2009-03-15T11:21:40Z</time>
      </trkpt>
      <trkpt lat="48.42658" lon="2.06919">
        <ele>48.203369</ele>
        <time>2009-03-15T11:21:54Z</time>
      </trkpt>
      <trkpt lat="48.42663" lon="2.06926">
        <ele>47.722534</ele>
        <time>2009-03-15T11:22:06Z</time>
      </trkpt>
      <trkpt lat="48.42668" lon="2.06925">
        <ele>47.241821</ele>
        <time>2009-03-15T11:22:22Z</time>
      </trkpt>
    </trkseg>
  </trk>
  <trk>
    <name><![CDATA[ACTIVE LOG 002]]></name>
    <trkseg>
      <trkpt lat="48.42667" lon="2.06925">
        <ele>79.446045</ele>
        <time>2009-03-15T12:17:42Z</time>
      </trkpt>
      <trkpt lat="48.42671" lon="2.06925">
        <ele>50.125977</ele>
        <time>2009-03-15T12:17:43Z</time>
      </trkpt>
      <trkpt lat="48.42672" lon="2.06926">
        <ele>49.645264</ele>
        <time>2009-03-15T12:17:49Z</time>
      </trkpt>
      <trkpt lat="48.42667" lon="2.06922">
        <ele>49.645264</ele>
        <time>2009-03-15T12:18:16Z</time>
      </trkpt>
      <trkpt lat="48.42658" lon="2.06917">
        <ele>50.125977</ele>
        <time>2009-03-15T12:18:28Z</time>
      </trkpt>
      <trkpt lat="48.42659" lon="2.06916">
        <ele>50.125977</ele>
        <time>2009-03-15T12:18:42Z</time>
      </trkpt>
      <trkpt lat="48.42656" lon="2.06915">
        <ele>48.68396</ele>
        <time>2009-03-15T12:18:52Z</time>
      </trkpt>
      <trkpt lat="48.42651" lon="2.06909">
        <ele>49.164551</ele>
        <time>2009-03-15T12:19:03Z</time>
      </trkpt>
      <trkpt lat="48.42649" lon="2.06911">
        <ele>49.645264</ele>
        <time>2009-03-15T12:19:11Z</time>
      </trkpt>
      <trkpt lat="48.42646" lon="2.06894">
        <ele>51.087158</ele>
        <time>2009-03-15T12:19:23Z</time>
      </trkpt>
      <trkpt lat="48.42643" lon="2.06882">
        <ele>49.645264</ele>
        <time>2009-03-15T12:19:33Z</time>
      </trkpt>
      <trkpt lat="48.4264" lon="2.06872">
        <ele>50.125977</ele>
        <time>2009-03-15T12:19:41Z</time>
      </trkpt>
      <trkpt lat="48.42636" lon="2.06864">
        <ele>50.125977</ele>
        <time>2009-03-15T12:19:49Z</time>
      </trkpt>
      <trkpt lat="48.42631" lon="2.06859">
        <ele>51.087158</ele>
        <time>2009-03-15T12:19:58Z</time>
      </trkpt>
      <trkpt lat="48.42627" lon="2.06859">
        <ele>51.087158</ele>
        <time>2009-03-15T12:20:06Z</time>
      </trkpt>
      <trkpt lat="48.4263" lon="2.06851">
        <ele>51.087158</ele>
        <time>2009-03-15T12:20:14Z</time>
      </trkpt>
      <trkpt lat="48.42634" lon="2.06841">
        <ele>51.567871</ele>
        <time>2009-03-15T12:20:25Z</time>
      </trkpt>
      <trkpt lat="48.42638" lon="2.06835">
        <ele>51.567871</ele>
        <time>2009-03-15T12:20:33Z</time>
      </trkpt>
      <trkpt lat="48.42641" lon="2.0683">
        <ele>52.048584</ele>
        <time>2009-03-15T12:20:41Z</time>
      </trkpt>
      <trkpt lat="48.42644" lon="2.0682">
        <ele>52.529175</ele>
        <time>2009-03-15T12:20:50Z</time>
      </trkpt>
      <trkpt lat="48.42647" lon="2.06812">
        <ele>53.009766</ele>
        <time>2009-03-15T12:21:00Z</time>
      </trkpt>
      <trkpt lat="48.4265" lon="2.06807">
        <ele>53.490479</ele>
        <time>2009-03-15T12:21:07Z</time>
      </trkpt>
      <trkpt lat="48.42651" lon="2.06808">
        <ele>53.490479</ele>
        <time>2009-03-15T12:21:20Z</time>
      </trkpt>
      <trkpt lat="48.42658" lon="2.06811">
        <ele>53.490479</ele>
        <time>2009-03-15T12:21:34Z</time>
      </trkpt>
      <trkpt lat="48.42667" lon="2.06813">
        <ele>53.009766</ele>
        <time>2009-03-15T12:21:46Z</time>
      </trkpt>
      <trkpt lat="48.42671" lon="2.06818">
        <ele>53.009766</ele>
        <time>2009-03-15T12:21:55Z</time>
      </trkpt>
      <trkpt lat="48.42674" lon="2.06816">
        <ele>53.490479</ele>
        <time>2009-03-15T12:22:04Z</time>
      </trkpt>
      <trkpt lat="48.42679" lon="2.06815">
        <ele>53.009766</ele>
        <time>2009-03-15T12:22:13Z</time>
      </trkpt>
      <trkpt lat="48.42681" lon="2.06808">
        <ele>53.009766</ele>
        <time>2009-03-15T12:22:25Z</time>
      </trkpt>
      <trkpt lat="48.42687" lon="2.0679">
        <ele>53.971191</ele>
        <time>2009-03-15T12:22:41Z</time>
      </trkpt>
      <trkpt lat="48.42692" lon="2.06774">
        <ele>55.893799</ele>
        <time>2009-03-15T12:22:54Z</time>
      </trkpt>
      <trkpt lat="48.42695" lon="2.06761">
        <ele>55.893799</ele>
        <time>2009-03-15T12:23:01Z</time>
      </trkpt>
      <trkpt lat="48.42698" lon="2.06758">
        <ele>56.374512</ele>
        <time>2009-03-15T12:23:05Z</time>
      </trkpt>
      <trkpt lat="48.42706" lon="2.06751">
        <ele>56.855103</ele>
        <time>2009-03-15T12:23:14Z</time>
      </trkpt>
      <trkpt lat="48.42716" lon="2.06758">
        <ele>56.855103</ele>
        <time>2009-03-15T12:23:27Z</time>
      </trkpt>
      <trkpt lat="48.42726" lon="2.06763">
        <ele>57.335815</ele>
        <time>2009-03-15T12:23:40Z</time>
      </trkpt>
      <trkpt lat="48.42729" lon="2.06763">
        <ele>57.335815</ele>
        <time>2009-03-15T12:23:51Z</time>
      </trkpt>
      <trkpt lat="48.42732" lon="2.06763">
        <ele>57.816528</ele>
        <time>2009-03-15T12:24:07Z</time>
      </trkpt>
      <trkpt lat="48.42741" lon="2.0675">
        <ele>60.700317</ele>
        <time>2009-03-15T12:24:26Z</time>
      </trkpt>
      <trkpt lat="48.42748" lon="2.06745">
        <ele>62.142334</ele>
        <time>2009-03-15T12:24:41Z</time>
      </trkpt>
      <trkpt lat="48.42754" lon="2.06738">
        <ele>64.065063</ele>
        <time>2009-03-15T12:24:56Z</time>
      </trkpt>
      <trkpt lat="48.42755" lon="2.06736">
        <ele>65.50708</ele>
        <time>2009-03-15T12:25:07Z</time>
      </trkpt>
      <trkpt lat="48.42761" lon="2.0673">
        <ele>67.429688</ele>
        <time>2009-03-15T12:25:34Z</time>
      </trkpt>
      <trkpt lat="48.42764" lon="2.06725">
        <ele>69.352295</ele>
        <time>2009-03-15T12:25:48Z</time>
      </trkpt>
      <trkpt lat="48.4277" lon="2.06719">
        <ele>71.755493</ele>
        <time>2009-03-15T12:26:07Z</time>
      </trkpt>
      <trkpt lat="48.42779" lon="2.06713">
        <ele>74.639526</ele>
        <time>2009-03-15T12:26:26Z</time>
      </trkpt>
      <trkpt lat="48.42783" lon="2.06704">
        <ele>77.042847</ele>
        <time>2009-03-15T12:26:38Z</time>
      </trkpt>
      <trkpt lat="48.42788" lon="2.06699">
        <ele>79.926636</ele>
        <time>2009-03-15T12:26:49Z</time>
      </trkpt>
      <trkpt lat="48.42791" lon="2.06689">
        <ele>79.926636</ele>
        <time>2009-03-15T12:26:59Z</time>
      </trkpt>
      <trkpt lat="48.42797" lon="2.06683">
        <ele>81.368774</ele>
        <time>2009-03-15T12:27:08Z</time>
      </trkpt>
      <trkpt lat="48.42798" lon="2.06669">
        <ele>81.849365</ele>
        <time>2009-03-15T12:27:18Z</time>
      </trkpt>
      <trkpt lat="48.428" lon="2.06667">
        <ele>81.849365</ele>
        <time>2009-03-15T12:27:26Z</time>
      </trkpt>
      <trkpt lat="48.42804" lon="2.06669">
        <ele>82.810791</ele>
        <time>2009-03-15T12:27:46Z</time>
      </trkpt>
      <trkpt lat="48.42811" lon="2.06667">
        <ele>83.291382</ele>
        <time>2009-03-15T12:27:57Z</time>
      </trkpt>
      <trkpt lat="48.42821" lon="2.06656">
        <ele>85.213989</ele>
        <time>2009-03-15T12:28:11Z</time>
      </trkpt>
      <trkpt lat="48.42827" lon="2.06647">
        <ele>87.136597</ele>
        <time>2009-03-15T12:28:25Z</time>
      </trkpt>
      <trkpt lat="48.42831" lon="2.06643">
        <ele>88.578735</ele>
        <time>2009-03-15T12:28:36Z</time>
      </trkpt>
      <trkpt lat="48.42837" lon="2.06634">
        <ele>90.02063</ele>
        <time>2009-03-15T12:28:48Z</time>
      </trkpt>
      <trkpt lat="48.42842" lon="2.06627">
        <ele>91.462524</ele>
        <time>2009-03-15T12:29:00Z</time>
      </trkpt>
      <trkpt lat="48.4285" lon="2.06619">
        <ele>92.904541</ele>
        <time>2009-03-15T12:29:13Z</time>
      </trkpt>
      <trkpt lat="48.42856" lon="2.06612">
        <ele>94.827148</ele>
        <time>2009-03-15T12:29:26Z</time>
      </trkpt>
      <trkpt lat="48.42862" lon="2.06606">
        <ele>95.788452</ele>
        <time>2009-03-15T12:29:36Z</time>
      </trkpt>
      <trkpt lat="48.4287" lon="2.06596">
        <ele>97.711182</ele>
        <time>2009-03-15T12:29:49Z</time>
      </trkpt>
      <trkpt lat="48.42878" lon="2.06589">
        <ele>98.672485</ele>
        <time>2009-03-15T12:30:02Z</time>
      </trkpt>
      <trkpt lat="48.42882" lon="2.06587">
        <ele>99.633789</ele>
        <time>2009-03-15T12:30:10Z</time>
      </trkpt>
      <trkpt lat="48.42888" lon="2.06579">
        <ele>100.595093</ele>
        <time>2009-03-15T12:30:21Z</time>
      </trkpt>
      <trkpt lat="48.42888" lon="2.06579">
        <ele>100.595093</ele>
        <time>2009-03-15T12:30:22Z</time>
      </trkpt>
      <trkpt lat="48.42898" lon="2.06566">
        <ele>101.556396</ele>
        <time>2009-03-15T12:30:31Z</time>
      </trkpt>
      <trkpt lat="48.42904" lon="2.06558">
        <ele>102.5177</ele>
        <time>2009-03-15T12:30:38Z</time>
      </trkpt>
      <trkpt lat="48.42905" lon="2.06555">
        <ele>102.5177</ele>
        <time>2009-03-15T12:30:40Z</time>
      </trkpt>
      <trkpt lat="48.42911" lon="2.06546">
        <ele>103.959717</ele>
        <time>2009-03-15T12:30:47Z</time>
      </trkpt>
      <trkpt lat="48.42916" lon="2.06537">
        <ele>103.479004</ele>
        <time>2009-03-15T12:30:54Z</time>
      </trkpt>
      <trkpt lat="48.42923" lon="2.06526">
        <ele>103.479004</ele>
        <time>2009-03-15T12:31:02Z</time>
      </trkpt>
      <trkpt lat="48.42928" lon="2.06518">
        <ele>103.959717</ele>
        <time>2009-03-15T12:31:09Z</time>
      </trkpt>
      <trkpt lat="48.42935" lon="2.0651">
        <ele>104.44043</ele>
        <time>2009-03-15T12:31:18Z</time>
      </trkpt>
      <trkpt lat="48.42943" lon="2.06496">
        <ele>104.44043</ele>
        <time>2009-03-15T12:31:29Z</time>
      </trkpt>
      <trkpt lat="48.42946" lon="2.0649">
        <ele>104.921021</ele>
        <time>2009-03-15T12:31:35Z</time>
      </trkpt>
      <trkpt lat="48.42952" lon="2.06479">
        <ele>104.921021</ele>
        <time>2009-03-15T12:31:44Z</time>
      </trkpt>
      <trkpt lat="48.42955" lon="2.06466">
        <ele>105.401733</ele>
        <time>2009-03-15T12:31:52Z</time>
      </trkpt>
      <trkpt lat="48.42957" lon="2.06457">
        <ele>104.921021</ele>
        <time>2009-03-15T12:31:57Z</time>
      </trkpt>
      <trkpt lat="48.42955" lon="2.06445">
        <ele>104.921021</ele>
        <time>2009-03-15T12:32:06Z</time>
      </trkpt>
      <trkpt lat="48.42952" lon="2.06426">
        <ele>105.401733</ele>
        <time>2009-03-15T12:32:16Z</time>
      </trkpt>
      <trkpt lat="48.42952" lon="2.06408">
        <ele>104.921021</ele>
        <time>2009-03-15T12:32:27Z</time>
      </trkpt>
      <trkpt lat="48.42952" lon="2.06402">
        <ele>105.401733</ele>
        <time>2009-03-15T12:32:30Z</time>
      </trkpt>
      <trkpt lat="48.4295" lon="2.0639">
        <ele>104.921021</ele>
        <time>2009-03-15T12:32:38Z</time>
      </trkpt>
      <trkpt lat="48.42948" lon="2.06377">
        <ele>104.921021</ele>
        <time>2009-03-15T12:32:45Z</time>
      </trkpt>
      <trkpt lat="48.42948" lon="2.06365">
        <ele>104.921021</ele>
        <time>2009-03-15T12:32:53Z</time>
      </trkpt>
      <trkpt lat="48.42948" lon="2.0636">
        <ele>104.921021</ele>
        <time>2009-03-15T12:32:56Z</time>
      </trkpt>
      <trkpt lat="48.42948" lon="2.06342">
        <ele>104.44043</ele>
        <time>2009-03-15T12:33:06Z</time>
      </trkpt>
      <trkpt lat="48.42947" lon="2.06328">
        <ele>104.921021</ele>
        <time>2009-03-15T12:33:15Z</time>
      </trkpt>
      <trkpt lat="48.42946" lon="2.06321">
        <ele>104.44043</ele>
        <time>2009-03-15T12:33:19Z</time>
      </trkpt>
      <trkpt lat="48.42947" lon="2.06306">
        <ele>104.44043</ele>
        <time>2009-03-15T12:33:28Z</time>
      </trkpt>
      <trkpt lat="48.42946" lon="2.06301">
        <ele>104.44043</ele>
        <time>2009-03-15T12:33:32Z</time>
      </trkpt>
      <trkpt lat="48.42945" lon="2.0629">
        <ele>104.44043</ele>
        <time>2009-03-15T12:33:39Z</time>
      </trkpt>
      <trkpt lat="48.42945" lon="2.06285">
        <ele>104.44043</ele>
        <time>2009-03-15T12:33:42Z</time>
      </trkpt>
      <trkpt lat="48.42944" lon="2.0627">
        <ele>104.44043</ele>
        <time>2009-03-15T12:33:50Z</time>
      </trkpt>
      <trkpt lat="48.42946" lon="2.06257">
        <ele>104.44043</ele>
        <time>2009-03-15T12:33:58Z</time>
      </trkpt>
      <trkpt lat="48.42948" lon="2.06242">
        <ele>104.44043</ele>
        <time>2009-03-15T12:34:08Z</time>
      </trkpt>
      <trkpt lat="48.42949" lon="2.06228">
        <ele>104.44043</ele>
        <time>2009-03-15T12:34:16Z</time>
      </trkpt>
      <trkpt lat="48.42948" lon="2.06213">
        <ele>104.921021</ele>
        <time>2009-03-15T12:34:25Z</time>
      </trkpt>
      <trkpt lat="48.42953" lon="2.06197">
        <ele>104.921021</ele>
        <time>2009-03-15T12:34:35Z</time>
      </trkpt>
      <trkpt lat="48.42957" lon="2.06179">
        <ele>104.921021</ele>
        <time>2009-03-15T12:34:45Z</time>
      </trkpt>
      <trkpt lat="48.42957" lon="2.06177">
        <ele>104.921021</ele>
        <time>2009-03-15T12:34:46Z</time>
      </trkpt>
      <trkpt lat="48.4296" lon="2.06164">
        <ele>105.401733</ele>
        <time>2009-03-15T12:34:55Z</time>
      </trkpt>
      <trkpt lat="48.4296" lon="2.06155">
        <ele>105.401733</ele>
        <time>2009-03-15T12:35:00Z</time>
      </trkpt>
      <trkpt lat="48.4296" lon="2.06136">
        <ele>105.401733</ele>
        <time>2009-03-15T12:35:11Z</time>
      </trkpt>
      <trkpt lat="48.42961" lon="2.06119">
        <ele>104.921021</ele>
        <time>2009-03-15T12:35:21Z</time>
      </trkpt>
      <trkpt lat="48.42962" lon="2.06106">
        <ele>105.401733</ele>
        <time>2009-03-15T12:35:29Z</time>
      </trkpt>
      <trkpt lat="48.42962" lon="2.06093">
        <ele>105.882446</ele>
        <time>2009-03-15T12:35:36Z</time>
      </trkpt>
      <trkpt lat="48.42961" lon="2.0609">
        <ele>105.401733</ele>
        <time>2009-03-15T12:35:38Z</time>
      </trkpt>
      <trkpt lat="48.42963" lon="2.06078">
        <ele>105.401733</ele>
        <time>2009-03-15T12:35:46Z</time>
      </trkpt>
      <trkpt lat="48.42962" lon="2.06066">
        <ele>105.882446</ele>
        <time>2009-03-15T12:35:54Z</time>
      </trkpt>
      <trkpt lat="48.42961" lon="2.0605">
        <ele>105.401733</ele>
        <time>2009-03-15T12:36:04Z</time>
      </trkpt>
      <trkpt lat="48.42961" lon="2.06038">
        <ele>105.882446</ele>
        <time>2009-03-15T12:36:13Z</time>
      </trkpt>
      <trkpt lat="48.42962" lon="2.0602">
        <ele>105.882446</ele>
        <time>2009-03-15T12:36:22Z</time>
      </trkpt>
      <trkpt lat="48.42962" lon="2.06006">
        <ele>105.882446</ele>
        <time>2009-03-15T12:36:30Z</time>
      </trkpt>
      <trkpt lat="48.42962" lon="2.05992">
        <ele>105.401733</ele>
        <time>2009-03-15T12:36:39Z</time>
      </trkpt>
      <trkpt lat="48.42962" lon="2.05974">
        <ele>105.401733</ele>
        <time>2009-03-15T12:36:47Z</time>
      </trkpt>
      <trkpt lat="48.42962" lon="2.05964">
        <ele>105.401733</ele>
        <time>2009-03-15T12:36:54Z</time>
      </trkpt>
      <trkpt lat="48.42961" lon="2.05947">
        <ele>105.401733</ele>
        <time>2009-03-15T12:37:03Z</time>
      </trkpt>
      <trkpt lat="48.42959" lon="2.05933">
        <ele>105.401733</ele>
        <time>2009-03-15T12:37:12Z</time>
      </trkpt>
      <trkpt lat="48.42961" lon="2.05926">
        <ele>105.401733</ele>
        <time>2009-03-15T12:37:16Z</time>
      </trkpt>
      <trkpt lat="48.42959" lon="2.05904">
        <ele>105.401733</ele>
        <time>2009-03-15T12:37:26Z</time>
      </trkpt>
      <trkpt lat="48.42958" lon="2.059">
        <ele>105.401733</ele>
        <time>2009-03-15T12:37:29Z</time>
      </trkpt>
      <trkpt lat="48.42958" lon="2.05895">
        <ele>105.401733</ele>
        <time>2009-03-15T12:37:31Z</time>
      </trkpt>
      <trkpt lat="48.42957" lon="2.0588">
        <ele>105.401733</ele>
        <time>2009-03-15T12:37:39Z</time>
      </trkpt>
      <trkpt lat="48.42957" lon="2.0587">
        <ele>105.401733</ele>
        <time>2009-03-15T12:37:47Z</time>
      </trkpt>
      <trkpt lat="48.42958" lon="2.05856">
        <ele>105.401733</ele>
        <time>2009-03-15T12:37:55Z</time>
      </trkpt>
      <trkpt lat="48.42956" lon="2.05843">
        <ele>105.401733</ele>
        <time>2009-03-15T12:38:02Z</time>
      </trkpt>
      <trkpt lat="48.42955" lon="2.05827">
        <ele>104.921021</ele>
        <time>2009-03-15T12:38:11Z</time>
      </trkpt>
      <trkpt lat="48.42954" lon="2.05811">
        <ele>104.921021</ele>
        <time>2009-03-15T12:38:20Z</time>
      </trkpt>
      <trkpt lat="48.42954" lon="2.05798">
        <ele>104.921021</ele>
        <time>2009-03-15T12:38:27Z</time>
      </trkpt>
      <trkpt lat="48.42953" lon="2.05788">
        <ele>104.921021</ele>
        <time>2009-03-15T12:38:35Z</time>
      </trkpt>
      <trkpt lat="48.42953" lon="2.05771">
        <ele>104.921021</ele>
        <time>2009-03-15T12:38:43Z</time>
      </trkpt>
      <trkpt lat="48.42952" lon="2.0576">
        <ele>104.44043</ele>
        <time>2009-03-15T12:38:50Z</time>
      </trkpt>
      <trkpt lat="48.42951" lon="2.05744">
        <ele>103.959717</ele>
        <time>2009-03-15T12:38:58Z</time>
      </trkpt>
      <trkpt lat="48.42949" lon="2.05725">
        <ele>103.479004</ele>
        <time>2009-03-15T12:39:07Z</time>
      </trkpt>
      <trkpt lat="48.42949" lon="2.05712">
        <ele>103.479004</ele>
        <time>2009-03-15T12:39:16Z</time>
      </trkpt>
      <trkpt lat="48.42952" lon="2.05704">
        <ele>103.959717</ele>
        <time>2009-03-15T12:39:22Z</time>
      </trkpt>
      <trkpt lat="48.42961" lon="2.05698">
        <ele>104.44043</ele>
        <time>2009-03-15T12:39:31Z</time>
      </trkpt>
      <trkpt lat="48.42967" lon="2.05696">
        <ele>104.921021</ele>
        <time>2009-03-15T12:39:37Z</time>
      </trkpt>
      <trkpt lat="48.42972" lon="2.05694">
        <ele>104.921021</ele>
        <time>2009-03-15T12:39:45Z</time>
      </trkpt>
      <trkpt lat="48.42975" lon="2.05693">
        <ele>105.401733</ele>
        <time>2009-03-15T12:40:36Z</time>
      </trkpt>
      <trkpt lat="48.4298" lon="2.05692">
        <ele>105.401733</ele>
        <time>2009-03-15T12:40:45Z</time>
      </trkpt>
      <trkpt lat="48.42989" lon="2.05689">
        <ele>105.882446</ele>
        <time>2009-03-15T12:40:52Z</time>
      </trkpt>
      <trkpt lat="48.42999" lon="2.05687">
        <ele>106.363037</ele>
        <time>2009-03-15T12:41:00Z</time>
      </trkpt>
      <trkpt lat="48.43012" lon="2.05685">
        <ele>106.843628</ele>
        <time>2009-03-15T12:41:10Z</time>
      </trkpt>
      <trkpt lat="48.43025" lon="2.05685">
        <ele>106.843628</ele>
        <time>2009-03-15T12:41:19Z</time>
      </trkpt>
      <trkpt lat="48.43032" lon="2.05685">
        <ele>107.324341</ele>
        <time>2009-03-15T12:41:24Z</time>
      </trkpt>
      <trkpt lat="48.43043" lon="2.05686">
        <ele>108.285645</ele>
        <time>2009-03-15T12:41:33Z</time>
      </trkpt>
      <trkpt lat="48.43055" lon="2.05686">
        <ele>108.285645</ele>
        <time>2009-03-15T12:41:41Z</time>
      </trkpt>
      <trkpt lat="48.43065" lon="2.05687">
        <ele>108.766235</ele>
        <time>2009-03-15T12:41:49Z</time>
      </trkpt>
      <trkpt lat="48.43073" lon="2.05692">
        <ele>108.766235</ele>
        <time>2009-03-15T12:41:56Z</time>
      </trkpt>
      <trkpt lat="48.43083" lon="2.05693">
        <ele>109.246948</ele>
        <time>2009-03-15T12:42:04Z</time>
      </trkpt>
      <trkpt lat="48.43093" lon="2.05695">
        <ele>108.766235</ele>
        <time>2009-03-15T12:42:12Z</time>
      </trkpt>
      <trkpt lat="48.43104" lon="2.05696">
        <ele>109.246948</ele>
        <time>2009-03-15T12:42:20Z</time>
      </trkpt>
      <trkpt lat="48.43113" lon="2.05698">
        <ele>108.766235</ele>
        <time>2009-03-15T12:42:28Z</time>
      </trkpt>
      <trkpt lat="48.43123" lon="2.05696">
        <ele>109.246948</ele>
        <time>2009-03-15T12:42:36Z</time>
      </trkpt>
      <trkpt lat="48.43132" lon="2.05697">
        <ele>109.246948</ele>
        <time>2009-03-15T12:42:44Z</time>
      </trkpt>
      <trkpt lat="48.43143" lon="2.05696">
        <ele>109.727661</ele>
        <time>2009-03-15T12:42:52Z</time>
      </trkpt>
      <trkpt lat="48.43153" lon="2.05696">
        <ele>109.727661</ele>
        <time>2009-03-15T12:43:01Z</time>
      </trkpt>
      <trkpt lat="48.43162" lon="2.05696">
        <ele>109.727661</ele>
        <time>2009-03-15T12:43:09Z</time>
      </trkpt>
      <trkpt lat="48.43173" lon="2.05695">
        <ele>110.208252</ele>
        <time>2009-03-15T12:43:18Z</time>
      </trkpt>
      <trkpt lat="48.43182" lon="2.05695">
        <ele>110.208252</ele>
        <time>2009-03-15T12:43:26Z</time>
      </trkpt>
      <trkpt lat="48.4319" lon="2.05696">
        <ele>110.208252</ele>
        <time>2009-03-15T12:43:33Z</time>
      </trkpt>
      <trkpt lat="48.43201" lon="2.05695">
        <ele>110.208252</ele>
        <time>2009-03-15T12:43:42Z</time>
      </trkpt>
      <trkpt lat="48.4321" lon="2.05694">
        <ele>110.208252</ele>
        <time>2009-03-15T12:43:49Z</time>
      </trkpt>
      <trkpt lat="48.43219" lon="2.05693">
        <ele>110.208252</ele>
        <time>2009-03-15T12:43:56Z</time>
      </trkpt>
      <trkpt lat="48.43228" lon="2.05691">
        <ele>109.727661</ele>
        <time>2009-03-15T12:44:04Z</time>
      </trkpt>
      <trkpt lat="48.43242" lon="2.05691">
        <ele>110.208252</ele>
        <time>2009-03-15T12:44:14Z</time>
      </trkpt>
      <trkpt lat="48.43251" lon="2.0569">
        <ele>109.727661</ele>
        <time>2009-03-15T12:44:22Z</time>
      </trkpt>
      <trkpt lat="48.43261" lon="2.0569">
        <ele>110.208252</ele>
        <time>2009-03-15T12:44:30Z</time>
      </trkpt>
      <trkpt lat="48.43271" lon="2.05689">
        <ele>109.727661</ele>
        <time>2009-03-15T12:44:38Z</time>
      </trkpt>
      <trkpt lat="48.4328" lon="2.05689">
        <ele>109.727661</ele>
        <time>2009-03-15T12:44:46Z</time>
      </trkpt>
      <trkpt lat="48.4329" lon="2.05689">
        <ele>109.727661</ele>
        <time>2009-03-15T12:44:54Z</time>
      </trkpt>
      <trkpt lat="48.433" lon="2.05689">
        <ele>109.727661</ele>
        <time>2009-03-15T12:45:03Z</time>
      </trkpt>
      <trkpt lat="48.43309" lon="2.05688">
        <ele>110.208252</ele>
        <time>2009-03-15T12:45:11Z</time>
      </trkpt>
      <trkpt lat="48.4332" lon="2.05691">
        <ele>110.208252</ele>
        <time>2009-03-15T12:45:19Z</time>
      </trkpt>
      <trkpt lat="48.43329" lon="2.05691">
        <ele>109.727661</ele>
        <time>2009-03-15T12:45:26Z</time>
      </trkpt>
      <trkpt lat="48.43339" lon="2.05692">
        <ele>109.727661</ele>
        <time>2009-03-15T12:45:35Z</time>
      </trkpt>
      <trkpt lat="48.4335" lon="2.05697">
        <ele>109.727661</ele>
        <time>2009-03-15T12:45:45Z</time>
      </trkpt>
      <trkpt lat="48.43358" lon="2.05701">
        <ele>109.246948</ele>
        <time>2009-03-15T12:45:54Z</time>
      </trkpt>
      <trkpt lat="48.43372" lon="2.05703">
        <ele>109.246948</ele>
        <time>2009-03-15T12:46:04Z</time>
      </trkpt>
      <trkpt lat="48.43377" lon="2.05701">
        <ele>109.246948</ele>
        <time>2009-03-15T12:46:12Z</time>
      </trkpt>
      <trkpt lat="48.43382" lon="2.05701">
        <ele>109.246948</ele>
        <time>2009-03-15T12:46:21Z</time>
      </trkpt>
      <trkpt lat="48.43386" lon="2.05697">
        <ele>109.246948</ele>
        <time>2009-03-15T12:46:26Z</time>
      </trkpt>
      <trkpt lat="48.43394" lon="2.05689">
        <ele>109.246948</ele>
        <time>2009-03-15T12:46:36Z</time>
      </trkpt>
      <trkpt lat="48.434" lon="2.0568">
        <ele>109.246948</ele>
        <time>2009-03-15T12:46:45Z</time>
      </trkpt>
      <trkpt lat="48.43407" lon="2.05674">
        <ele>109.246948</ele>
        <time>2009-03-15T12:46:52Z</time>
      </trkpt>
      <trkpt lat="48.43412" lon="2.05665">
        <ele>108.766235</ele>
        <time>2009-03-15T12:47:00Z</time>
      </trkpt>
      <trkpt lat="48.43418" lon="2.05658">
        <ele>109.246948</ele>
        <time>2009-03-15T12:47:08Z</time>
      </trkpt>
      <trkpt lat="48.43426" lon="2.05649">
        <ele>108.285645</ele>
        <time>2009-03-15T12:47:17Z</time>
      </trkpt>
      <trkpt lat="48.43435" lon="2.05637">
        <ele>108.766235</ele>
        <time>2009-03-15T12:47:26Z</time>
      </trkpt>
      <trkpt lat="48.43442" lon="2.05628">
        <ele>108.766235</ele>
        <time>2009-03-15T12:47:35Z</time>
      </trkpt>
      <trkpt lat="48.43448" lon="2.05619">
        <ele>108.766235</ele>
        <time>2009-03-15T12:47:43Z</time>
      </trkpt>
      <trkpt lat="48.43455" lon="2.05609">
        <ele>108.766235</ele>
        <time>2009-03-15T12:47:52Z</time>
      </trkpt>
      <trkpt lat="48.43463" lon="2.05599">
        <ele>108.766235</ele>
        <time>2009-03-15T12:48:01Z</time>
      </trkpt>
      <trkpt lat="48.43469" lon="2.0559">
        <ele>108.766235</ele>
        <time>2009-03-15T12:48:09Z</time>
      </trkpt>
      <trkpt lat="48.43476" lon="2.05581">
        <ele>108.766235</ele>
        <time>2009-03-15T12:48:17Z</time>
      </trkpt>
      <trkpt lat="48.43484" lon="2.05568">
        <ele>108.766235</ele>
        <time>2009-03-15T12:48:27Z</time>
      </trkpt>
      <trkpt lat="48.4349" lon="2.05559">
        <ele>108.766235</ele>
        <time>2009-03-15T12:48:34Z</time>
      </trkpt>
      <trkpt lat="48.43496" lon="2.05552">
        <ele>109.246948</ele>
        <time>2009-03-15T12:48:41Z</time>
      </trkpt>
      <trkpt lat="48.43504" lon="2.05543">
        <ele>109.246948</ele>
        <time>2009-03-15T12:48:49Z</time>
      </trkpt>
      <trkpt lat="48.43511" lon="2.05534">
        <ele>109.246948</ele>
        <time>2009-03-15T12:48:57Z</time>
      </trkpt>
      <trkpt lat="48.43519" lon="2.05524">
        <ele>109.246948</ele>
        <time>2009-03-15T12:49:06Z</time>
      </trkpt>
      <trkpt lat="48.43527" lon="2.05515">
        <ele>109.246948</ele>
        <time>2009-03-15T12:49:14Z</time>
      </trkpt>
      <trkpt lat="48.43535" lon="2.05507">
        <ele>109.246948</ele>
        <time>2009-03-15T12:49:24Z</time>
      </trkpt>
      <trkpt lat="48.43544" lon="2.05503">
        <ele>109.727661</ele>
        <time>2009-03-15T12:49:32Z</time>
      </trkpt>
      <trkpt lat="48.43551" lon="2.055">
        <ele>109.727661</ele>
        <time>2009-03-15T12:49:38Z</time>
      </trkpt>
      <trkpt lat="48.43559" lon="2.05497">
        <ele>109.727661</ele>
        <time>2009-03-15T12:49:46Z</time>
      </trkpt>
      <trkpt lat="48.43567" lon="2.05497">
        <ele>110.208252</ele>
        <time>2009-03-15T12:49:52Z</time>
      </trkpt>
      <trkpt lat="48.43576" lon="2.05495">
        <ele>110.688843</ele>
        <time>2009-03-15T12:49:59Z</time>
      </trkpt>
      <trkpt lat="48.43586" lon="2.05496">
        <ele>110.688843</ele>
        <time>2009-03-15T12:50:07Z</time>
      </trkpt>
      <trkpt lat="48.43596" lon="2.05498">
        <ele>110.208252</ele>
        <time>2009-03-15T12:50:16Z</time>
      </trkpt>
      <trkpt lat="48.43604" lon="2.05497">
        <ele>110.208252</ele>
        <time>2009-03-15T12:50:24Z</time>
      </trkpt>
      <trkpt lat="48.4361" lon="2.05498">
        <ele>110.208252</ele>
        <time>2009-03-15T12:50:30Z</time>
      </trkpt>
      <trkpt lat="48.43619" lon="2.05498">
        <ele>110.688843</ele>
        <time>2009-03-15T12:50:38Z</time>
      </trkpt>
      <trkpt lat="48.4363" lon="2.05498">
        <ele>111.169556</ele>
        <time>2009-03-15T12:50:48Z</time>
      </trkpt>
      <trkpt lat="48.43637" lon="2.05498">
        <ele>111.169556</ele>
        <time>2009-03-15T12:50:54Z</time>
      </trkpt>
      <trkpt lat="48.43648" lon="2.05498">
        <ele>111.169556</ele>
        <time>2009-03-15T12:51:03Z</time>
      </trkpt>
      <trkpt lat="48.43658" lon="2.05498">
        <ele>111.169556</ele>
        <time>2009-03-15T12:51:11Z</time>
      </trkpt>
      <trkpt lat="48.43666" lon="2.05498">
        <ele>110.688843</ele>
        <time>2009-03-15T12:51:19Z</time>
      </trkpt>
      <trkpt lat="48.43678" lon="2.05499">
        <ele>110.688843</ele>
        <time>2009-03-15T12:51:28Z</time>
      </trkpt>
      <trkpt lat="48.43687" lon="2.05501">
        <ele>110.688843</ele>
        <time>2009-03-15T12:51:37Z</time>
      </trkpt>
      <trkpt lat="48.43695" lon="2.05502">
        <ele>110.208252</ele>
        <time>2009-03-15T12:51:44Z</time>
      </trkpt>
      <trkpt lat="48.43705" lon="2.05503">
        <ele>110.688843</ele>
        <time>2009-03-15T12:51:52Z</time>
      </trkpt>
      <trkpt lat="48.43716" lon="2.05502">
        <ele>110.688843</ele>
        <time>2009-03-15T12:52:01Z</time>
      </trkpt>
      <trkpt lat="48.43725" lon="2.05499">
        <ele>110.208252</ele>
        <time>2009-03-15T12:52:10Z</time>
      </trkpt>
      <trkpt lat="48.4373" lon="2.05493">
        <ele>110.688843</ele>
        <time>2009-03-15T12:52:19Z</time>
      </trkpt>
      <trkpt lat="48.43741" lon="2.05491">
        <ele>110.688843</ele>
        <time>2009-03-15T12:52:29Z</time>
      </trkpt>
      <trkpt lat="48.43747" lon="2.05484">
        <ele>110.688843</ele>
        <time>2009-03-15T12:52:38Z</time>
      </trkpt>
      <trkpt lat="48.43748" lon="2.05476">
        <ele>110.688843</ele>
        <time>2009-03-15T12:52:47Z</time>
      </trkpt>
      <trkpt lat="48.4375" lon="2.05467">
        <ele>110.208252</ele>
        <time>2009-03-15T12:52:56Z</time>
      </trkpt>
      <trkpt lat="48.43753" lon="2.05454">
        <ele>109.727661</ele>
        <time>2009-03-15T12:53:08Z</time>
      </trkpt>
      <trkpt lat="48.43753" lon="2.05452">
        <ele>109.246948</ele>
        <time>2009-03-15T12:53:16Z</time>
      </trkpt>
      <trkpt lat="48.43753" lon="2.05449">
        <ele>109.727661</ele>
        <time>2009-03-15T12:53:30Z</time>
      </trkpt>
      <trkpt lat="48.43753" lon="2.05448">
        <ele>109.246948</ele>
        <time>2009-03-15T12:54:00Z</time>
      </trkpt>
      <trkpt lat="48.43752" lon="2.05456">
        <ele>109.727661</ele>
        <time>2009-03-15T12:54:23Z</time>
      </trkpt>
      <trkpt lat="48.43751" lon="2.05472">
        <ele>110.208252</ele>
        <time>2009-03-15T12:54:38Z</time>
      </trkpt>
      <trkpt lat="48.43749" lon="2.0549">
        <ele>110.208252</ele>
        <time>2009-03-15T12:54:55Z</time>
      </trkpt>
      <trkpt lat="48.43747" lon="2.05504">
        <ele>110.208252</ele>
        <time>2009-03-15T12:55:10Z</time>
      </trkpt>
      <trkpt lat="48.43753" lon="2.05504">
        <ele>110.208252</ele>
        <time>2009-03-15T12:55:32Z</time>
      </trkpt>
      <trkpt lat="48.43761" lon="2.05505">
        <ele>110.208252</ele>
        <time>2009-03-15T12:56:12Z</time>
      </trkpt>
      <trkpt lat="48.43771" lon="2.05507">
        <ele>109.727661</ele>
        <time>2009-03-15T12:56:22Z</time>
      </trkpt>
      <trkpt lat="48.4378" lon="2.05505">
        <ele>109.727661</ele>
        <time>2009-03-15T12:56:32Z</time>
      </trkpt>
      <trkpt lat="48.43788" lon="2.05503">
        <ele>109.246948</ele>
        <time>2009-03-15T12:56:42Z</time>
      </trkpt>
      <trkpt lat="48.43796" lon="2.05506">
        <ele>108.766235</ele>
        <time>2009-03-15T12:56:54Z</time>
      </trkpt>
      <trkpt lat="48.43808" lon="2.05506">
        <ele>108.766235</ele>
        <time>2009-03-15T12:57:04Z</time>
      </trkpt>
      <trkpt lat="48.43817" lon="2.05507">
        <ele>109.246948</ele>
        <time>2009-03-15T12:57:15Z</time>
      </trkpt>
      <trkpt lat="48.43827" lon="2.05509">
        <ele>109.246948</ele>
        <time>2009-03-15T12:57:25Z</time>
      </trkpt>
      <trkpt lat="48.43837" lon="2.05507">
        <ele>108.766235</ele>
        <time>2009-03-15T12:57:34Z</time>
      </trkpt>
      <trkpt lat="48.43849" lon="2.05505">
        <ele>109.246948</ele>
        <time>2009-03-15T12:57:46Z</time>
      </trkpt>
      <trkpt lat="48.43865" lon="2.05508">
        <ele>109.246948</ele>
        <time>2009-03-15T12:57:59Z</time>
      </trkpt>
      <trkpt lat="48.43875" lon="2.05509">
        <ele>109.246948</ele>
        <time>2009-03-15T12:58:08Z</time>
      </trkpt>
      <trkpt lat="48.43885" lon="2.05508">
        <ele>109.246948</ele>
        <time>2009-03-15T12:58:17Z</time>
      </trkpt>
      <trkpt lat="48.43893" lon="2.05505">
        <ele>108.766235</ele>
        <time>2009-03-15T12:58:25Z</time>
      </trkpt>
      <trkpt lat="48.43905" lon="2.05506">
        <ele>108.766235</ele>
        <time>2009-03-15T12:58:33Z</time>
      </trkpt>
      <trkpt lat="48.43917" lon="2.05506">
        <ele>108.766235</ele>
        <time>2009-03-15T12:58:42Z</time>
      </trkpt>
      <trkpt lat="48.43927" lon="2.05508">
        <ele>108.285645</ele>
        <time>2009-03-15T12:58:51Z</time>
      </trkpt>
      <trkpt lat="48.4394" lon="2.05508">
        <ele>108.285645</ele>
        <time>2009-03-15T12:59:02Z</time>
      </trkpt>
      <trkpt lat="48.43952" lon="2.05505">
        <ele>107.324341</ele>
        <time>2009-03-15T12:59:10Z</time>
      </trkpt>
      <trkpt lat="48.43962" lon="2.05506">
        <ele>106.843628</ele>
        <time>2009-03-15T12:59:19Z</time>
      </trkpt>
      <trkpt lat="48.43971" lon="2.05506">
        <ele>106.363037</ele>
        <time>2009-03-15T12:59:27Z</time>
      </trkpt>
      <trkpt lat="48.43982" lon="2.05507">
        <ele>105.401733</ele>
        <time>2009-03-15T12:59:35Z</time>
      </trkpt>
      <trkpt lat="48.43994" lon="2.05507">
        <ele>104.44043</ele>
        <time>2009-03-15T12:59:47Z</time>
      </trkpt>
      <trkpt lat="48.44002" lon="2.05507">
        <ele>103.959717</ele>
        <time>2009-03-15T12:59:56Z</time>
      </trkpt>
      <trkpt lat="48.44009" lon="2.05506">
        <ele>102.998291</ele>
        <time>2009-03-15T13:00:02Z</time>
      </trkpt>
      <trkpt lat="48.44017" lon="2.05506">
        <ele>102.5177</ele>
        <time>2009-03-15T13:00:10Z</time>
      </trkpt>
      <trkpt lat="48.44026" lon="2.05507">
        <ele>101.075684</ele>
        <time>2009-03-15T13:00:20Z</time>
      </trkpt>
      <trkpt lat="48.4403" lon="2.05505">
        <ele>101.075684</ele>
        <time>2009-03-15T13:00:26Z</time>
      </trkpt>
      <trkpt lat="48.44035" lon="2.05502">
        <ele>100.114502</ele>
        <time>2009-03-15T13:00:32Z</time>
      </trkpt>
      <trkpt lat="48.44046" lon="2.05502">
        <ele>99.633789</ele>
        <time>2009-03-15T13:00:42Z</time>
      </trkpt>
      <trkpt lat="48.44056" lon="2.05502">
        <ele>99.153076</ele>
        <time>2009-03-15T13:00:49Z</time>
      </trkpt>
      <trkpt lat="48.44064" lon="2.05501">
        <ele>99.633789</ele>
        <time>2009-03-15T13:00:55Z</time>
      </trkpt>
      <trkpt lat="48.44073" lon="2.055">
        <ele>99.153076</ele>
        <time>2009-03-15T13:01:04Z</time>
      </trkpt>
      <trkpt lat="48.44078" lon="2.05503">
        <ele>99.633789</ele>
        <time>2009-03-15T13:01:11Z</time>
      </trkpt>
      <trkpt lat="48.44087" lon="2.0551">
        <ele>99.633789</ele>
        <time>2009-03-15T13:01:20Z</time>
      </trkpt>
      <trkpt lat="48.44094" lon="2.05511">
        <ele>101.075684</ele>
        <time>2009-03-15T13:01:29Z</time>
      </trkpt>
      <trkpt lat="48.44098" lon="2.0551">
        <ele>102.037109</ele>
        <time>2009-03-15T13:01:37Z</time>
      </trkpt>
      <trkpt lat="48.44108" lon="2.05509">
        <ele>102.998291</ele>
        <time>2009-03-15T13:01:49Z</time>
      </trkpt>
      <trkpt lat="48.44114" lon="2.05513">
        <ele>102.998291</ele>
        <time>2009-03-15T13:01:52Z</time>
      </trkpt>
      <trkpt lat="48.44125" lon="2.05524">
        <ele>103.479004</ele>
        <time>2009-03-15T13:02:00Z</time>
      </trkpt>
      <trkpt lat="48.44134" lon="2.05535">
        <ele>102.998291</ele>
        <time>2009-03-15T13:02:10Z</time>
      </trkpt>
      <trkpt lat="48.44144" lon="2.05547">
        <ele>102.998291</ele>
        <time>2009-03-15T13:02:21Z</time>
      </trkpt>
      <trkpt lat="48.44153" lon="2.05561">
        <ele>103.479004</ele>
        <time>2009-03-15T13:02:32Z</time>
      </trkpt>
      <trkpt lat="48.44162" lon="2.05569">
        <ele>103.479004</ele>
        <time>2009-03-15T13:02:42Z</time>
      </trkpt>
      <trkpt lat="48.44166" lon="2.05579">
        <ele>102.998291</ele>
        <time>2009-03-15T13:02:50Z</time>
      </trkpt>
      <trkpt lat="48.44175" lon="2.05592">
        <ele>103.479004</ele>
        <time>2009-03-15T13:03:02Z</time>
      </trkpt>
      <trkpt lat="48.44187" lon="2.0561">
        <ele>103.479004</ele>
        <time>2009-03-15T13:03:15Z</time>
      </trkpt>
      <trkpt lat="48.44194" lon="2.05623">
        <ele>102.998291</ele>
        <time>2009-03-15T13:03:25Z</time>
      </trkpt>
      <trkpt lat="48.442" lon="2.05636">
        <ele>102.5177</ele>
        <time>2009-03-15T13:03:35Z</time>
      </trkpt>
      <trkpt lat="48.4421" lon="2.05652">
        <ele>102.037109</ele>
        <time>2009-03-15T13:03:47Z</time>
      </trkpt>
      <trkpt lat="48.44217" lon="2.05663">
        <ele>101.556396</ele>
        <time>2009-03-15T13:03:56Z</time>
      </trkpt>
      <trkpt lat="48.44225" lon="2.05675">
        <ele>101.075684</ele>
        <time>2009-03-15T13:04:06Z</time>
      </trkpt>
      <trkpt lat="48.4423" lon="2.05687">
        <ele>100.595093</ele>
        <time>2009-03-15T13:04:15Z</time>
      </trkpt>
      <trkpt lat="48.44232" lon="2.05697">
        <ele>99.633789</ele>
        <time>2009-03-15T13:04:22Z</time>
      </trkpt>
      <trkpt lat="48.44238" lon="2.05706">
        <ele>99.633789</ele>
        <time>2009-03-15T13:04:29Z</time>
      </trkpt>
      <trkpt lat="48.44247" lon="2.05717">
        <ele>99.153076</ele>
        <time>2009-03-15T13:04:38Z</time>
      </trkpt>
      <trkpt lat="48.44254" lon="2.05732">
        <ele>98.672485</ele>
        <time>2009-03-15T13:04:48Z</time>
      </trkpt>
      <trkpt lat="48.44258" lon="2.05742">
        <ele>98.191895</ele>
        <time>2009-03-15T13:04:55Z</time>
      </trkpt>
      <trkpt lat="48.44265" lon="2.05755">
        <ele>97.230469</ele>
        <time>2009-03-15T13:05:06Z</time>
      </trkpt>
      <trkpt lat="48.4427" lon="2.05767">
        <ele>96.749878</ele>
        <time>2009-03-15T13:05:14Z</time>
      </trkpt>
      <trkpt lat="48.44275" lon="2.05774">
        <ele>96.269287</ele>
        <time>2009-03-15T13:05:22Z</time>
      </trkpt>
      <trkpt lat="48.44281" lon="2.05785">
        <ele>95.788452</ele>
        <time>2009-03-15T13:05:30Z</time>
      </trkpt>
      <trkpt lat="48.44289" lon="2.05795">
        <ele>94.346558</ele>
        <time>2009-03-15T13:05:40Z</time>
      </trkpt>
      <trkpt lat="48.443" lon="2.05801">
        <ele>93.385132</ele>
        <time>2009-03-15T13:05:52Z</time>
      </trkpt>
      <trkpt lat="48.44311" lon="2.05806">
        <ele>91.943237</ele>
        <time>2009-03-15T13:06:02Z</time>
      </trkpt>
      <trkpt lat="48.44316" lon="2.05808">
        <ele>90.981934</ele>
        <time>2009-03-15T13:06:10Z</time>
      </trkpt>
      <trkpt lat="48.4433" lon="2.05806">
        <ele>90.02063</ele>
        <time>2009-03-15T13:06:21Z</time>
      </trkpt>
      <trkpt lat="48.44343" lon="2.05804">
        <ele>89.539917</ele>
        <time>2009-03-15T13:06:31Z</time>
      </trkpt>
      <trkpt lat="48.44355" lon="2.05799">
        <ele>88.578735</ele>
        <time>2009-03-15T13:06:42Z</time>
      </trkpt>
      <trkpt lat="48.44365" lon="2.05789">
        <ele>87.617188</ele>
        <time>2009-03-15T13:06:52Z</time>
      </trkpt>
      <trkpt lat="48.44373" lon="2.05782">
        <ele>86.656006</ele>
        <time>2009-03-15T13:07:01Z</time>
      </trkpt>
      <trkpt lat="48.44384" lon="2.05772">
        <ele>85.69458</ele>
        <time>2009-03-15T13:07:13Z</time>
      </trkpt>
      <trkpt lat="48.44393" lon="2.05761">
        <ele>84.252686</ele>
        <time>2009-03-15T13:07:24Z</time>
      </trkpt>
      <trkpt lat="48.44405" lon="2.0575">
        <ele>82.810791</ele>
        <time>2009-03-15T13:07:37Z</time>
      </trkpt>
      <trkpt lat="48.44415" lon="2.05744">
        <ele>81.849365</ele>
        <time>2009-03-15T13:07:47Z</time>
      </trkpt>
      <trkpt lat="48.44425" lon="2.05737">
        <ele>80.888184</ele>
        <time>2009-03-15T13:07:58Z</time>
      </trkpt>
      <trkpt lat="48.44435" lon="2.05731">
        <ele>81.368774</ele>
        <time>2009-03-15T13:08:10Z</time>
      </trkpt>
      <trkpt lat="48.44434" lon="2.0573">
        <ele>80.407471</ele>
        <time>2009-03-15T13:08:18Z</time>
      </trkpt>
    </trkseg>
  </trk>
  <trk>
    <name><![CDATA[ACTIVE LOG 003]]></name>
    <trkseg>
      <trkpt lat="48.44434" lon="2.0573">
        <ele>116.9375</ele>
        <time>2009-03-15T13:24:11Z</time>
      </trkpt>
      <trkpt lat="48.44434" lon="2.0573">
        <ele>116.9375</ele>
        <time>2009-03-15T13:24:13Z</time>
      </trkpt>
      <trkpt lat="48.44453" lon="2.05733">
        <ele>50.125977</ele>
        <time>2009-03-15T13:24:19Z</time>
      </trkpt>
      <trkpt lat="48.44441" lon="2.0573">
        <ele>50.125977</ele>
        <time>2009-03-15T13:24:56Z</time>
      </trkpt>
      <trkpt lat="48.44443" lon="2.05722">
        <ele>50.125977</ele>
        <time>2009-03-15T13:25:10Z</time>
      </trkpt>
      <trkpt lat="48.44446" lon="2.05719">
        <ele>50.125977</ele>
        <time>2009-03-15T13:25:58Z</time>
      </trkpt>
      <trkpt lat="48.44444" lon="2.05719">
        <ele>49.645264</ele>
        <time>2009-03-15T13:26:13Z</time>
      </trkpt>
      <trkpt lat="48.44453" lon="2.05713">
        <ele>48.68396</ele>
        <time>2009-03-15T13:29:48Z</time>
      </trkpt>
      <trkpt lat="48.44461" lon="2.05706">
        <ele>48.68396</ele>
        <time>2009-03-15T13:29:55Z</time>
      </trkpt>
      <trkpt lat="48.44472" lon="2.05696">
        <ele>48.203369</ele>
        <time>2009-03-15T13:30:04Z</time>
      </trkpt>
      <trkpt lat="48.44484" lon="2.05683">
        <ele>47.722534</ele>
        <time>2009-03-15T13:30:15Z</time>
      </trkpt>
      <trkpt lat="48.44497" lon="2.05674">
        <ele>47.722534</ele>
        <time>2009-03-15T13:30:25Z</time>
      </trkpt>
      <trkpt lat="48.44509" lon="2.05667">
        <ele>47.241821</ele>
        <time>2009-03-15T13:30:36Z</time>
      </trkpt>
      <trkpt lat="48.44515" lon="2.05659">
        <ele>47.241821</ele>
        <time>2009-03-15T13:30:46Z</time>
      </trkpt>
      <trkpt lat="48.44523" lon="2.05648">
        <ele>46.76123</ele>
        <time>2009-03-15T13:30:57Z</time>
      </trkpt>
      <trkpt lat="48.4453" lon="2.05642">
        <ele>45.799927</ele>
        <time>2009-03-15T13:31:07Z</time>
      </trkpt>
      <trkpt lat="48.44537" lon="2.05638">
        <ele>44.358032</ele>
        <time>2009-03-15T13:31:18Z</time>
      </trkpt>
      <trkpt lat="48.4454" lon="2.05633">
        <ele>43.396606</ele>
        <time>2009-03-15T13:31:27Z</time>
      </trkpt>
      <trkpt lat="48.44551" lon="2.05629">
        <ele>42.435425</ele>
        <time>2009-03-15T13:31:40Z</time>
      </trkpt>
      <trkpt lat="48.44559" lon="2.05626">
        <ele>40.993408</ele>
        <time>2009-03-15T13:31:51Z</time>
      </trkpt>
      <trkpt lat="48.44571" lon="2.05628">
        <ele>40.032104</ele>
        <time>2009-03-15T13:32:01Z</time>
      </trkpt>
      <trkpt lat="48.44576" lon="2.05625">
        <ele>39.070679</ele>
        <time>2009-03-15T13:32:10Z</time>
      </trkpt>
      <trkpt lat="48.44589" lon="2.05624">
        <ele>37.628662</ele>
        <time>2009-03-15T13:32:20Z</time>
      </trkpt>
      <trkpt lat="48.44602" lon="2.05631">
        <ele>36.186768</ele>
        <time>2009-03-15T13:32:32Z</time>
      </trkpt>
      <trkpt lat="48.44611" lon="2.05629">
        <ele>35.706055</ele>
        <time>2009-03-15T13:32:43Z</time>
      </trkpt>
      <trkpt lat="48.44617" lon="2.05621">
        <ele>35.706055</ele>
        <time>2009-03-15T13:32:53Z</time>
      </trkpt>
      <trkpt lat="48.44629" lon="2.05611">
        <ele>35.706055</ele>
        <time>2009-03-15T13:33:07Z</time>
      </trkpt>
      <trkpt lat="48.44638" lon="2.05601">
        <ele>35.706055</ele>
        <time>2009-03-15T13:33:15Z</time>
      </trkpt>
      <trkpt lat="48.44642" lon="2.05591">
        <ele>35.706055</ele>
        <time>2009-03-15T13:33:25Z</time>
      </trkpt>
      <trkpt lat="48.44648" lon="2.0558">
        <ele>35.225464</ele>
        <time>2009-03-15T13:33:34Z</time>
      </trkpt>
      <trkpt lat="48.4465" lon="2.05578">
        <ele>35.225464</ele>
        <time>2009-03-15T13:33:37Z</time>
      </trkpt>
      <trkpt lat="48.44654" lon="2.05566">
        <ele>35.225464</ele>
        <time>2009-03-15T13:33:46Z</time>
      </trkpt>
      <trkpt lat="48.44662" lon="2.05553">
        <ele>35.706055</ele>
        <time>2009-03-15T13:33:57Z</time>
      </trkpt>
      <trkpt lat="48.44668" lon="2.05541">
        <ele>36.186768</ele>
        <time>2009-03-15T13:34:05Z</time>
      </trkpt>
      <trkpt lat="48.44673" lon="2.05526">
        <ele>36.186768</ele>
        <time>2009-03-15T13:34:13Z</time>
      </trkpt>
      <trkpt lat="48.44676" lon="2.05514">
        <ele>36.186768</ele>
        <time>2009-03-15T13:34:22Z</time>
      </trkpt>
      <trkpt lat="48.44681" lon="2.05504">
        <ele>36.186768</ele>
        <time>2009-03-15T13:34:33Z</time>
      </trkpt>
      <trkpt lat="48.44686" lon="2.0549">
        <ele>36.186768</ele>
        <time>2009-03-15T13:34:43Z</time>
      </trkpt>
      <trkpt lat="48.44695" lon="2.05488">
        <ele>35.706055</ele>
        <time>2009-03-15T13:34:53Z</time>
      </trkpt>
      <trkpt lat="48.44706" lon="2.05487">
        <ele>36.66748</ele>
        <time>2009-03-15T13:35:03Z</time>
      </trkpt>
      <trkpt lat="48.44713" lon="2.0548">
        <ele>37.148071</ele>
        <time>2009-03-15T13:35:13Z</time>
      </trkpt>
      <trkpt lat="48.44724" lon="2.05472">
        <ele>37.628662</ele>
        <time>2009-03-15T13:35:25Z</time>
      </trkpt>
      <trkpt lat="48.4473" lon="2.05457">
        <ele>37.628662</ele>
        <time>2009-03-15T13:35:36Z</time>
      </trkpt>
      <trkpt lat="48.44735" lon="2.05439">
        <ele>39.55127</ele>
        <time>2009-03-15T13:35:47Z</time>
      </trkpt>
      <trkpt lat="48.44742" lon="2.05427">
        <ele>40.032104</ele>
        <time>2009-03-15T13:35:58Z</time>
      </trkpt>
      <trkpt lat="48.44747" lon="2.05417">
        <ele>39.55127</ele>
        <time>2009-03-15T13:36:06Z</time>
      </trkpt>
      <trkpt lat="48.44754" lon="2.05404">
        <ele>40.512817</ele>
        <time>2009-03-15T13:36:15Z</time>
      </trkpt>
      <trkpt lat="48.4476" lon="2.0539">
        <ele>41.473999</ele>
        <time>2009-03-15T13:36:27Z</time>
      </trkpt>
      <trkpt lat="48.44767" lon="2.05377">
        <ele>42.435425</ele>
        <time>2009-03-15T13:36:38Z</time>
      </trkpt>
      <trkpt lat="48.4477" lon="2.05376">
        <ele>42.916016</ele>
        <time>2009-03-15T13:36:40Z</time>
      </trkpt>
      <trkpt lat="48.44778" lon="2.05374">
        <ele>42.916016</ele>
        <time>2009-03-15T13:36:50Z</time>
      </trkpt>
      <trkpt lat="48.44785" lon="2.05377">
        <ele>42.916016</ele>
        <time>2009-03-15T13:36:58Z</time>
      </trkpt>
      <trkpt lat="48.4479" lon="2.05379">
        <ele>43.877319</ele>
        <time>2009-03-15T13:37:05Z</time>
      </trkpt>
      <trkpt lat="48.44798" lon="2.05382">
        <ele>44.358032</ele>
        <time>2009-03-15T13:37:10Z</time>
      </trkpt>
      <trkpt lat="48.44806" lon="2.05396">
        <ele>44.838623</ele>
        <time>2009-03-15T13:37:19Z</time>
      </trkpt>
      <trkpt lat="48.44812" lon="2.05406">
        <ele>45.319214</ele>
        <time>2009-03-15T13:37:24Z</time>
      </trkpt>
      <trkpt lat="48.44813" lon="2.05417">
        <ele>45.319214</ele>
        <time>2009-03-15T13:37:30Z</time>
      </trkpt>
      <trkpt lat="48.44815" lon="2.05422">
        <ele>46.28064</ele>
        <time>2009-03-15T13:37:34Z</time>
      </trkpt>
      <trkpt lat="48.44814" lon="2.05424">
        <ele>45.799927</ele>
        <time>2009-03-15T13:37:35Z</time>
      </trkpt>
      <trkpt lat="48.44815" lon="2.05428">
        <ele>45.319214</ele>
        <time>2009-03-15T13:37:38Z</time>
      </trkpt>
      <trkpt lat="48.44814" lon="2.0544">
        <ele>46.28064</ele>
        <time>2009-03-15T13:37:46Z</time>
      </trkpt>
      <trkpt lat="48.44812" lon="2.0545">
        <ele>46.76123</ele>
        <time>2009-03-15T13:37:57Z</time>
      </trkpt>
      <trkpt lat="48.44816" lon="2.05458">
        <ele>48.68396</ele>
        <time>2009-03-15T13:38:17Z</time>
      </trkpt>
      <trkpt lat="48.4483" lon="2.05463">
        <ele>49.645264</ele>
        <time>2009-03-15T13:38:27Z</time>
      </trkpt>
      <trkpt lat="48.44842" lon="2.05465">
        <ele>51.087158</ele>
        <time>2009-03-15T13:38:38Z</time>
      </trkpt>
      <trkpt lat="48.4485" lon="2.05473">
        <ele>52.048584</ele>
        <time>2009-03-15T13:38:49Z</time>
      </trkpt>
      <trkpt lat="48.44858" lon="2.05479">
        <ele>53.009766</ele>
        <time>2009-03-15T13:38:59Z</time>
      </trkpt>
      <trkpt lat="48.4487" lon="2.05485">
        <ele>54.451782</ele>
        <time>2009-03-15T13:39:10Z</time>
      </trkpt>
      <trkpt lat="48.44879" lon="2.05486">
        <ele>55.413086</ele>
        <time>2009-03-15T13:39:21Z</time>
      </trkpt>
      <trkpt lat="48.44893" lon="2.05491">
        <ele>56.374512</ele>
        <time>2009-03-15T13:39:31Z</time>
      </trkpt>
      <trkpt lat="48.449" lon="2.05502">
        <ele>56.855103</ele>
        <time>2009-03-15T13:39:42Z</time>
      </trkpt>
      <trkpt lat="48.44909" lon="2.05513">
        <ele>57.335815</ele>
        <time>2009-03-15T13:39:51Z</time>
      </trkpt>
      <trkpt lat="48.44912" lon="2.05524">
        <ele>57.816528</ele>
        <time>2009-03-15T13:39:59Z</time>
      </trkpt>
      <trkpt lat="48.44914" lon="2.0554">
        <ele>58.297119</ele>
        <time>2009-03-15T13:40:08Z</time>
      </trkpt>
      <trkpt lat="48.44917" lon="2.05551">
        <ele>58.77771</ele>
        <time>2009-03-15T13:40:17Z</time>
      </trkpt>
      <trkpt lat="48.44926" lon="2.05558">
        <ele>60.219727</ele>
        <time>2009-03-15T13:40:29Z</time>
      </trkpt>
      <trkpt lat="48.44925" lon="2.05548">
        <ele>59.739136</ele>
        <time>2009-03-15T13:40:39Z</time>
      </trkpt>
      <trkpt lat="48.44926" lon="2.05557">
        <ele>59.739136</ele>
        <time>2009-03-15T13:40:51Z</time>
      </trkpt>
      <trkpt lat="48.44927" lon="2.05569">
        <ele>59.739136</ele>
        <time>2009-03-15T13:40:59Z</time>
      </trkpt>
      <trkpt lat="48.44932" lon="2.05579">
        <ele>61.661743</ele>
        <time>2009-03-15T13:41:08Z</time>
      </trkpt>
      <trkpt lat="48.44938" lon="2.05586">
        <ele>61.661743</ele>
        <time>2009-03-15T13:41:15Z</time>
      </trkpt>
      <trkpt lat="48.44941" lon="2.05591">
        <ele>61.661743</ele>
        <time>2009-03-15T13:41:22Z</time>
      </trkpt>
      <trkpt lat="48.44945" lon="2.05605">
        <ele>61.661743</ele>
        <time>2009-03-15T13:41:32Z</time>
      </trkpt>
      <trkpt lat="48.44948" lon="2.05616">
        <ele>63.103638</ele>
        <time>2009-03-15T13:41:44Z</time>
      </trkpt>
      <trkpt lat="48.44953" lon="2.05638">
        <ele>63.584351</ele>
        <time>2009-03-15T13:42:00Z</time>
      </trkpt>
      <trkpt lat="48.44962" lon="2.05654">
        <ele>64.545654</ele>
        <time>2009-03-15T13:42:12Z</time>
      </trkpt>
      <trkpt lat="48.44967" lon="2.0567">
        <ele>64.545654</ele>
        <time>2009-03-15T13:42:20Z</time>
      </trkpt>
      <trkpt lat="48.44975" lon="2.05682">
        <ele>65.026367</ele>
        <time>2009-03-15T13:42:31Z</time>
      </trkpt>
      <trkpt lat="48.44986" lon="2.05689">
        <ele>66.468262</ele>
        <time>2009-03-15T13:42:41Z</time>
      </trkpt>
      <trkpt lat="48.44991" lon="2.05694">
        <ele>66.468262</ele>
        <time>2009-03-15T13:42:47Z</time>
      </trkpt>
      <trkpt lat="48.44997" lon="2.05702">
        <ele>67.429688</ele>
        <time>2009-03-15T13:42:56Z</time>
      </trkpt>
      <trkpt lat="48.45008" lon="2.05711">
        <ele>67.910278</ele>
        <time>2009-03-15T13:43:06Z</time>
      </trkpt>
      <trkpt lat="48.45016" lon="2.05715">
        <ele>68.390869</ele>
        <time>2009-03-15T13:43:15Z</time>
      </trkpt>
      <trkpt lat="48.45023" lon="2.05722">
        <ele>69.352295</ele>
        <time>2009-03-15T13:43:27Z</time>
      </trkpt>
      <trkpt lat="48.45028" lon="2.05729">
        <ele>69.832886</ele>
        <time>2009-03-15T13:43:36Z</time>
      </trkpt>
      <trkpt lat="48.45031" lon="2.05735">
        <ele>70.313477</ele>
        <time>2009-03-15T13:43:52Z</time>
      </trkpt>
      <trkpt lat="48.4504" lon="2.05739">
        <ele>71.274902</ele>
        <time>2009-03-15T13:44:00Z</time>
      </trkpt>
      <trkpt lat="48.45048" lon="2.0575">
        <ele>71.274902</ele>
        <time>2009-03-15T13:44:08Z</time>
      </trkpt>
      <trkpt lat="48.45052" lon="2.05761">
        <ele>72.236206</ele>
        <time>2009-03-15T13:44:15Z</time>
      </trkpt>
      <trkpt lat="48.45053" lon="2.0577">
        <ele>72.236206</ele>
        <time>2009-03-15T13:44:24Z</time>
      </trkpt>
      <trkpt lat="48.45055" lon="2.05776">
        <ele>72.236206</ele>
        <time>2009-03-15T13:44:29Z</time>
      </trkpt>
      <trkpt lat="48.45061" lon="2.0579">
        <ele>73.197632</ele>
        <time>2009-03-15T13:44:39Z</time>
      </trkpt>
      <trkpt lat="48.45066" lon="2.05802">
        <ele>74.158813</ele>
        <time>2009-03-15T13:44:47Z</time>
      </trkpt>
      <trkpt lat="48.4507" lon="2.05813">
        <ele>74.639526</ele>
        <time>2009-03-15T13:44:55Z</time>
      </trkpt>
      <trkpt lat="48.45072" lon="2.05827">
        <ele>74.158813</ele>
        <time>2009-03-15T13:45:03Z</time>
      </trkpt>
      <trkpt lat="48.45075" lon="2.05844">
        <ele>75.120239</ele>
        <time>2009-03-15T13:45:11Z</time>
      </trkpt>
      <trkpt lat="48.45081" lon="2.05854">
        <ele>75.120239</ele>
        <time>2009-03-15T13:45:18Z</time>
      </trkpt>
      <trkpt lat="48.45085" lon="2.05867">
        <ele>75.60083</ele>
        <time>2009-03-15T13:45:26Z</time>
      </trkpt>
      <trkpt lat="48.45085" lon="2.05869">
        <ele>76.081421</ele>
        <time>2009-03-15T13:45:27Z</time>
      </trkpt>
      <trkpt lat="48.45091" lon="2.0588">
        <ele>77.042847</ele>
        <time>2009-03-15T13:45:34Z</time>
      </trkpt>
      <trkpt lat="48.45096" lon="2.05889">
        <ele>77.523438</ele>
        <time>2009-03-15T13:45:41Z</time>
      </trkpt>
      <trkpt lat="48.45104" lon="2.05896">
        <ele>78.004028</ele>
        <time>2009-03-15T13:45:49Z</time>
      </trkpt>
      <trkpt lat="48.45109" lon="2.05899">
        <ele>77.042847</ele>
        <time>2009-03-15T13:45:58Z</time>
      </trkpt>
      <trkpt lat="48.45115" lon="2.05899">
        <ele>77.523438</ele>
        <time>2009-03-15T13:46:04Z</time>
      </trkpt>
      <trkpt lat="48.45128" lon="2.05902">
        <ele>78.965454</ele>
        <time>2009-03-15T13:46:14Z</time>
      </trkpt>
      <trkpt lat="48.45133" lon="2.05912">
        <ele>79.446045</ele>
        <time>2009-03-15T13:46:24Z</time>
      </trkpt>
      <trkpt lat="48.45132" lon="2.05919">
        <ele>81.368774</ele>
        <time>2009-03-15T13:46:29Z</time>
      </trkpt>
      <trkpt lat="48.45127" lon="2.05928">
        <ele>79.446045</ele>
        <time>2009-03-15T13:46:35Z</time>
      </trkpt>
      <trkpt lat="48.45125" lon="2.05932">
        <ele>79.926636</ele>
        <time>2009-03-15T13:46:37Z</time>
      </trkpt>
      <trkpt lat="48.45122" lon="2.05942">
        <ele>80.888184</ele>
        <time>2009-03-15T13:46:44Z</time>
      </trkpt>
      <trkpt lat="48.45116" lon="2.05951">
        <ele>80.888184</ele>
        <time>2009-03-15T13:46:50Z</time>
      </trkpt>
      <trkpt lat="48.4511" lon="2.05963">
        <ele>82.330078</ele>
        <time>2009-03-15T13:46:58Z</time>
      </trkpt>
      <trkpt lat="48.45104" lon="2.05972">
        <ele>81.849365</ele>
        <time>2009-03-15T13:47:07Z</time>
      </trkpt>
      <trkpt lat="48.45099" lon="2.05982">
        <ele>82.810791</ele>
        <time>2009-03-15T13:47:13Z</time>
      </trkpt>
      <trkpt lat="48.45089" lon="2.06003">
        <ele>82.810791</ele>
        <time>2009-03-15T13:47:27Z</time>
      </trkpt>
      <trkpt lat="48.4508" lon="2.0602">
        <ele>83.291382</ele>
        <time>2009-03-15T13:47:38Z</time>
      </trkpt>
      <trkpt lat="48.45073" lon="2.06032">
        <ele>83.291382</ele>
        <time>2009-03-15T13:47:45Z</time>
      </trkpt>
      <trkpt lat="48.45071" lon="2.06035">
        <ele>83.771973</ele>
        <time>2009-03-15T13:47:46Z</time>
      </trkpt>
      <trkpt lat="48.45068" lon="2.06044">
        <ele>83.771973</ele>
        <time>2009-03-15T13:47:55Z</time>
      </trkpt>
      <trkpt lat="48.45066" lon="2.06047">
        <ele>83.771973</ele>
        <time>2009-03-15T13:47:58Z</time>
      </trkpt>
      <trkpt lat="48.45062" lon="2.06057">
        <ele>84.252686</ele>
        <time>2009-03-15T13:48:08Z</time>
      </trkpt>
      <trkpt lat="48.45062" lon="2.0606">
        <ele>83.771973</ele>
        <time>2009-03-15T13:48:11Z</time>
      </trkpt>
      <trkpt lat="48.45056" lon="2.06072">
        <ele>83.771973</ele>
        <time>2009-03-15T13:48:19Z</time>
      </trkpt>
      <trkpt lat="48.45054" lon="2.06077">
        <ele>83.771973</ele>
        <time>2009-03-15T13:48:23Z</time>
      </trkpt>
      <trkpt lat="48.45053" lon="2.06081">
        <ele>84.252686</ele>
        <time>2009-03-15T13:48:27Z</time>
      </trkpt>
      <trkpt lat="48.45052" lon="2.06084">
        <ele>84.252686</ele>
        <time>2009-03-15T13:48:29Z</time>
      </trkpt>
      <trkpt lat="48.45046" lon="2.06095">
        <ele>83.771973</ele>
        <time>2009-03-15T13:48:37Z</time>
      </trkpt>
      <trkpt lat="48.45041" lon="2.06105">
        <ele>84.733398</ele>
        <time>2009-03-15T13:48:44Z</time>
      </trkpt>
      <trkpt lat="48.45036" lon="2.06117">
        <ele>84.252686</ele>
        <time>2009-03-15T13:48:52Z</time>
      </trkpt>
      <trkpt lat="48.4503" lon="2.06131">
        <ele>84.733398</ele>
        <time>2009-03-15T13:49:00Z</time>
      </trkpt>
      <trkpt lat="48.45024" lon="2.06141">
        <ele>85.213989</ele>
        <time>2009-03-15T13:49:07Z</time>
      </trkpt>
      <trkpt lat="48.45019" lon="2.06154">
        <ele>84.733398</ele>
        <time>2009-03-15T13:49:14Z</time>
      </trkpt>
      <trkpt lat="48.45015" lon="2.06166">
        <ele>84.733398</ele>
        <time>2009-03-15T13:49:22Z</time>
      </trkpt>
      <trkpt lat="48.45011" lon="2.06174">
        <ele>85.213989</ele>
        <time>2009-03-15T13:49:28Z</time>
      </trkpt>
      <trkpt lat="48.45006" lon="2.06186">
        <ele>85.213989</ele>
        <time>2009-03-15T13:49:35Z</time>
      </trkpt>
      <trkpt lat="48.45002" lon="2.06198">
        <ele>83.771973</ele>
        <time>2009-03-15T13:49:43Z</time>
      </trkpt>
      <trkpt lat="48.44997" lon="2.06208">
        <ele>85.213989</ele>
        <time>2009-03-15T13:49:50Z</time>
      </trkpt>
      <trkpt lat="48.4499" lon="2.06221">
        <ele>83.771973</ele>
        <time>2009-03-15T13:49:59Z</time>
      </trkpt>
      <trkpt lat="48.44985" lon="2.06232">
        <ele>85.213989</ele>
        <time>2009-03-15T13:50:07Z</time>
      </trkpt>
      <trkpt lat="48.44984" lon="2.06236">
        <ele>85.213989</ele>
        <time>2009-03-15T13:50:10Z</time>
      </trkpt>
      <trkpt lat="48.44978" lon="2.0625">
        <ele>83.771973</ele>
        <time>2009-03-15T13:50:20Z</time>
      </trkpt>
      <trkpt lat="48.44974" lon="2.06262">
        <ele>84.733398</ele>
        <time>2009-03-15T13:50:29Z</time>
      </trkpt>
      <trkpt lat="48.4497" lon="2.06272">
        <ele>84.252686</ele>
        <time>2009-03-15T13:50:36Z</time>
      </trkpt>
      <trkpt lat="48.44967" lon="2.06276">
        <ele>85.213989</ele>
        <time>2009-03-15T13:50:40Z</time>
      </trkpt>
      <trkpt lat="48.44963" lon="2.06285">
        <ele>84.733398</ele>
        <time>2009-03-15T13:50:48Z</time>
      </trkpt>
      <trkpt lat="48.44959" lon="2.06296">
        <ele>83.771973</ele>
        <time>2009-03-15T13:50:55Z</time>
      </trkpt>
      <trkpt lat="48.44952" lon="2.0631">
        <ele>83.771973</ele>
        <time>2009-03-15T13:51:05Z</time>
      </trkpt>
      <trkpt lat="48.44949" lon="2.06318">
        <ele>83.771973</ele>
        <time>2009-03-15T13:51:11Z</time>
      </trkpt>
      <trkpt lat="48.44944" lon="2.06332">
        <ele>83.771973</ele>
        <time>2009-03-15T13:51:20Z</time>
      </trkpt>
      <trkpt lat="48.44937" lon="2.06346">
        <ele>83.291382</ele>
        <time>2009-03-15T13:51:29Z</time>
      </trkpt>
      <trkpt lat="48.44935" lon="2.06352">
        <ele>84.252686</ele>
        <time>2009-03-15T13:51:34Z</time>
      </trkpt>
      <trkpt lat="48.44931" lon="2.06366">
        <ele>83.771973</ele>
        <time>2009-03-15T13:51:43Z</time>
      </trkpt>
      <trkpt lat="48.44928" lon="2.0637">
        <ele>83.771973</ele>
        <time>2009-03-15T13:51:47Z</time>
      </trkpt>
      <trkpt lat="48.4492" lon="2.06386">
        <ele>82.810791</ele>
        <time>2009-03-15T13:51:57Z</time>
      </trkpt>
      <trkpt lat="48.44916" lon="2.06393">
        <ele>82.810791</ele>
        <time>2009-03-15T13:52:01Z</time>
      </trkpt>
      <trkpt lat="48.44912" lon="2.06405">
        <ele>83.771973</ele>
        <time>2009-03-15T13:52:09Z</time>
      </trkpt>
      <trkpt lat="48.44908" lon="2.06413">
        <ele>83.771973</ele>
        <time>2009-03-15T13:52:16Z</time>
      </trkpt>
      <trkpt lat="48.44903" lon="2.06427">
        <ele>83.291382</ele>
        <time>2009-03-15T13:52:26Z</time>
      </trkpt>
      <trkpt lat="48.44898" lon="2.06438">
        <ele>83.771973</ele>
        <time>2009-03-15T13:52:34Z</time>
      </trkpt>
      <trkpt lat="48.44892" lon="2.06451">
        <ele>83.771973</ele>
        <time>2009-03-15T13:52:44Z</time>
      </trkpt>
      <trkpt lat="48.44891" lon="2.06452">
        <ele>83.291382</ele>
        <time>2009-03-15T13:52:45Z</time>
      </trkpt>
      <trkpt lat="48.44885" lon="2.06466">
        <ele>83.771973</ele>
        <time>2009-03-15T13:52:54Z</time>
      </trkpt>
      <trkpt lat="48.4488" lon="2.06478">
        <ele>83.771973</ele>
        <time>2009-03-15T13:53:02Z</time>
      </trkpt>
      <trkpt lat="48.44876" lon="2.06488">
        <ele>83.771973</ele>
        <time>2009-03-15T13:53:10Z</time>
      </trkpt>
      <trkpt lat="48.4487" lon="2.06502">
        <ele>82.810791</ele>
        <time>2009-03-15T13:53:18Z</time>
      </trkpt>
      <trkpt lat="48.44865" lon="2.06511">
        <ele>83.291382</ele>
        <time>2009-03-15T13:53:26Z</time>
      </trkpt>
      <trkpt lat="48.4486" lon="2.06525">
        <ele>82.810791</ele>
        <time>2009-03-15T13:53:36Z</time>
      </trkpt>
      <trkpt lat="48.44854" lon="2.06538">
        <ele>83.291382</ele>
        <time>2009-03-15T13:53:46Z</time>
      </trkpt>
      <trkpt lat="48.44848" lon="2.06548">
        <ele>82.810791</ele>
        <time>2009-03-15T13:53:53Z</time>
      </trkpt>
      <trkpt lat="48.44843" lon="2.06558">
        <ele>82.810791</ele>
        <time>2009-03-15T13:54:02Z</time>
      </trkpt>
      <trkpt lat="48.44838" lon="2.06572">
        <ele>82.330078</ele>
        <time>2009-03-15T13:54:11Z</time>
      </trkpt>
      <trkpt lat="48.44833" lon="2.06581">
        <ele>82.810791</ele>
        <time>2009-03-15T13:54:18Z</time>
      </trkpt>
      <trkpt lat="48.44828" lon="2.06591">
        <ele>82.810791</ele>
        <time>2009-03-15T13:54:25Z</time>
      </trkpt>
      <trkpt lat="48.44821" lon="2.06596">
        <ele>82.810791</ele>
        <time>2009-03-15T13:54:33Z</time>
      </trkpt>
      <trkpt lat="48.44819" lon="2.06605">
        <ele>82.330078</ele>
        <time>2009-03-15T13:54:43Z</time>
      </trkpt>
      <trkpt lat="48.44819" lon="2.06609">
        <ele>82.330078</ele>
        <time>2009-03-15T13:54:54Z</time>
      </trkpt>
      <trkpt lat="48.44818" lon="2.0661">
        <ele>80.888184</ele>
        <time>2009-03-15T13:55:39Z</time>
      </trkpt>
    </trkseg>
  </trk>
  <trk>
    <name><![CDATA[ACTIVE LOG 005]]></name>
    <trkseg>
      <trkpt lat="48.44789" lon="2.06691">
        <ele>151.064209</ele>
        <time>2009-03-15T14:10:07Z</time>
      </trkpt>
      <trkpt lat="48.44791" lon="2.06692">
        <ele>50.125977</ele>
        <time>2009-03-15T14:10:08Z</time>
      </trkpt>
      <trkpt lat="48.44789" lon="2.06694">
        <ele>49.645264</ele>
        <time>2009-03-15T14:10:09Z</time>
      </trkpt>
      <trkpt lat="48.44785" lon="2.06693">
        <ele>49.164551</ele>
        <time>2009-03-15T14:10:10Z</time>
      </trkpt>
      <trkpt lat="48.4478" lon="2.06706">
        <ele>49.164551</ele>
        <time>2009-03-15T14:10:17Z</time>
      </trkpt>
      <trkpt lat="48.44778" lon="2.06718">
        <ele>49.164551</ele>
        <time>2009-03-15T14:10:24Z</time>
      </trkpt>
      <trkpt lat="48.44772" lon="2.06729">
        <ele>48.68396</ele>
        <time>2009-03-15T14:10:30Z</time>
      </trkpt>
      <trkpt lat="48.44769" lon="2.06738">
        <ele>48.203369</ele>
        <time>2009-03-15T14:10:35Z</time>
      </trkpt>
      <trkpt lat="48.44763" lon="2.06753">
        <ele>48.203369</ele>
        <time>2009-03-15T14:10:43Z</time>
      </trkpt>
      <trkpt lat="48.4476" lon="2.06766">
        <ele>48.203369</ele>
        <time>2009-03-15T14:10:48Z</time>
      </trkpt>
      <trkpt lat="48.44757" lon="2.06779">
        <ele>48.203369</ele>
        <time>2009-03-15T14:10:55Z</time>
      </trkpt>
      <trkpt lat="48.44752" lon="2.06801">
        <ele>47.722534</ele>
        <time>2009-03-15T14:11:03Z</time>
      </trkpt>
      <trkpt lat="48.44752" lon="2.06813">
        <ele>46.76123</ele>
        <time>2009-03-15T14:11:10Z</time>
      </trkpt>
      <trkpt lat="48.44751" lon="2.06831">
        <ele>46.28064</ele>
        <time>2009-03-15T14:11:23Z</time>
      </trkpt>
      <trkpt lat="48.4475" lon="2.06836">
        <ele>46.28064</ele>
        <time>2009-03-15T14:11:26Z</time>
      </trkpt>
      <trkpt lat="48.44745" lon="2.06849">
        <ele>45.799927</ele>
        <time>2009-03-15T14:11:34Z</time>
      </trkpt>
      <trkpt lat="48.44742" lon="2.06857">
        <ele>45.799927</ele>
        <time>2009-03-15T14:11:42Z</time>
      </trkpt>
      <trkpt lat="48.44741" lon="2.06863">
        <ele>44.358032</ele>
        <time>2009-03-15T14:11:45Z</time>
      </trkpt>
      <trkpt lat="48.44735" lon="2.06878">
        <ele>45.319214</ele>
        <time>2009-03-15T14:11:54Z</time>
      </trkpt>
      <trkpt lat="48.44731" lon="2.0689">
        <ele>44.358032</ele>
        <time>2009-03-15T14:12:03Z</time>
      </trkpt>
      <trkpt lat="48.44727" lon="2.06898">
        <ele>43.877319</ele>
        <time>2009-03-15T14:12:10Z</time>
      </trkpt>
      <trkpt lat="48.44726" lon="2.06905">
        <ele>43.396606</ele>
        <time>2009-03-15T14:12:14Z</time>
      </trkpt>
      <trkpt lat="48.44724" lon="2.06915">
        <ele>42.435425</ele>
        <time>2009-03-15T14:12:20Z</time>
      </trkpt>
      <trkpt lat="48.44722" lon="2.06928">
        <ele>41.473999</ele>
        <time>2009-03-15T14:12:28Z</time>
      </trkpt>
      <trkpt lat="48.44718" lon="2.06937">
        <ele>39.55127</ele>
        <time>2009-03-15T14:12:36Z</time>
      </trkpt>
      <trkpt lat="48.44716" lon="2.06952">
        <ele>38.109375</ele>
        <time>2009-03-15T14:12:44Z</time>
      </trkpt>
      <trkpt lat="48.44716" lon="2.06961">
        <ele>37.628662</ele>
        <time>2009-03-15T14:12:52Z</time>
      </trkpt>
      <trkpt lat="48.44713" lon="2.0696">
        <ele>37.628662</ele>
        <time>2009-03-15T14:13:07Z</time>
      </trkpt>
      <trkpt lat="48.44714" lon="2.06966">
        <ele>37.148071</ele>
        <time>2009-03-15T14:13:18Z</time>
      </trkpt>
      <trkpt lat="48.44712" lon="2.06972">
        <ele>36.66748</ele>
        <time>2009-03-15T14:13:33Z</time>
      </trkpt>
      <trkpt lat="48.44711" lon="2.06977">
        <ele>35.706055</ele>
        <time>2009-03-15T14:13:38Z</time>
      </trkpt>
      <trkpt lat="48.44712" lon="2.06988">
        <ele>35.225464</ele>
        <time>2009-03-15T14:13:44Z</time>
      </trkpt>
      <trkpt lat="48.44709" lon="2.06999">
        <ele>33.783447</ele>
        <time>2009-03-15T14:13:52Z</time>
      </trkpt>
      <trkpt lat="48.44709" lon="2.07001">
        <ele>33.783447</ele>
        <time>2009-03-15T14:13:53Z</time>
      </trkpt>
      <trkpt lat="48.4471" lon="2.07014">
        <ele>32.822266</ele>
        <time>2009-03-15T14:14:02Z</time>
      </trkpt>
      <trkpt lat="48.44706" lon="2.07028">
        <ele>32.341553</ele>
        <time>2009-03-15T14:14:13Z</time>
      </trkpt>
      <trkpt lat="48.44704" lon="2.07041">
        <ele>31.860718</ele>
        <time>2009-03-15T14:14:21Z</time>
      </trkpt>
      <trkpt lat="48.44702" lon="2.07053">
        <ele>31.860718</ele>
        <time>2009-03-15T14:14:29Z</time>
      </trkpt>
      <trkpt lat="48.447" lon="2.07056">
        <ele>32.341553</ele>
        <time>2009-03-15T14:14:32Z</time>
      </trkpt>
      <trkpt lat="48.44694" lon="2.0707">
        <ele>32.822266</ele>
        <time>2009-03-15T14:14:40Z</time>
      </trkpt>
      <trkpt lat="48.44689" lon="2.07078">
        <ele>32.822266</ele>
        <time>2009-03-15T14:14:45Z</time>
      </trkpt>
      <trkpt lat="48.44688" lon="2.0708">
        <ele>33.302856</ele>
        <time>2009-03-15T14:14:47Z</time>
      </trkpt>
      <trkpt lat="48.4468" lon="2.07087">
        <ele>33.783447</ele>
        <time>2009-03-15T14:14:54Z</time>
      </trkpt>
      <trkpt lat="48.44677" lon="2.07094">
        <ele>34.744873</ele>
        <time>2009-03-15T14:15:01Z</time>
      </trkpt>
      <trkpt lat="48.44673" lon="2.07103">
        <ele>34.744873</ele>
        <time>2009-03-15T14:15:08Z</time>
      </trkpt>
      <trkpt lat="48.44672" lon="2.0711">
        <ele>35.225464</ele>
        <time>2009-03-15T14:15:12Z</time>
      </trkpt>
      <trkpt lat="48.44671" lon="2.07115">
        <ele>35.706055</ele>
        <time>2009-03-15T14:15:14Z</time>
      </trkpt>
      <trkpt lat="48.44669" lon="2.07124">
        <ele>36.186768</ele>
        <time>2009-03-15T14:15:20Z</time>
      </trkpt>
      <trkpt lat="48.44668" lon="2.07129">
        <ele>36.66748</ele>
        <time>2009-03-15T14:15:24Z</time>
      </trkpt>
      <trkpt lat="48.44668" lon="2.0714">
        <ele>38.109375</ele>
        <time>2009-03-15T14:15:32Z</time>
      </trkpt>
      <trkpt lat="48.44666" lon="2.07154">
        <ele>39.070679</ele>
        <time>2009-03-15T14:15:42Z</time>
      </trkpt>
      <trkpt lat="48.44666" lon="2.07159">
        <ele>39.070679</ele>
        <time>2009-03-15T14:15:45Z</time>
      </trkpt>
      <trkpt lat="48.44666" lon="2.07163">
        <ele>39.55127</ele>
        <time>2009-03-15T14:15:48Z</time>
      </trkpt>
      <trkpt lat="48.44666" lon="2.07172">
        <ele>40.512817</ele>
        <time>2009-03-15T14:15:55Z</time>
      </trkpt>
      <trkpt lat="48.44666" lon="2.07173">
        <ele>40.032104</ele>
        <time>2009-03-15T14:15:57Z</time>
      </trkpt>
      <trkpt lat="48.44665" lon="2.07182">
        <ele>40.512817</ele>
        <time>2009-03-15T14:16:06Z</time>
      </trkpt>
      <trkpt lat="48.44663" lon="2.07191">
        <ele>40.993408</ele>
        <time>2009-03-15T14:16:14Z</time>
      </trkpt>
      <trkpt lat="48.44662" lon="2.07203">
        <ele>41.954712</ele>
        <time>2009-03-15T14:16:22Z</time>
      </trkpt>
      <trkpt lat="48.44659" lon="2.07212">
        <ele>42.435425</ele>
        <time>2009-03-15T14:16:28Z</time>
      </trkpt>
      <trkpt lat="48.44657" lon="2.07216">
        <ele>42.435425</ele>
        <time>2009-03-15T14:16:31Z</time>
      </trkpt>
      <trkpt lat="48.44656" lon="2.07218">
        <ele>42.916016</ele>
        <time>2009-03-15T14:16:33Z</time>
      </trkpt>
      <trkpt lat="48.44654" lon="2.07229">
        <ele>43.396606</ele>
        <time>2009-03-15T14:16:41Z</time>
      </trkpt>
      <trkpt lat="48.44651" lon="2.07239">
        <ele>44.358032</ele>
        <time>2009-03-15T14:16:51Z</time>
      </trkpt>
      <trkpt lat="48.44649" lon="2.07251">
        <ele>44.838623</ele>
        <time>2009-03-15T14:16:58Z</time>
      </trkpt>
      <trkpt lat="48.44645" lon="2.07263">
        <ele>45.319214</ele>
        <time>2009-03-15T14:17:06Z</time>
      </trkpt>
      <trkpt lat="48.44643" lon="2.07268">
        <ele>45.319214</ele>
        <time>2009-03-15T14:17:09Z</time>
      </trkpt>
      <trkpt lat="48.4464" lon="2.07282">
        <ele>45.319214</ele>
        <time>2009-03-15T14:17:16Z</time>
      </trkpt>
      <trkpt lat="48.44635" lon="2.07295">
        <ele>45.799927</ele>
        <time>2009-03-15T14:17:24Z</time>
      </trkpt>
      <trkpt lat="48.44633" lon="2.07304">
        <ele>46.76123</ele>
        <time>2009-03-15T14:17:30Z</time>
      </trkpt>
      <trkpt lat="48.44631" lon="2.07314">
        <ele>46.76123</ele>
        <time>2009-03-15T14:17:37Z</time>
      </trkpt>
      <trkpt lat="48.44628" lon="2.07331">
        <ele>47.241821</ele>
        <time>2009-03-15T14:17:48Z</time>
      </trkpt>
      <trkpt lat="48.44627" lon="2.07338">
        <ele>47.722534</ele>
        <time>2009-03-15T14:17:53Z</time>
      </trkpt>
      <trkpt lat="48.44626" lon="2.07354">
        <ele>47.722534</ele>
        <time>2009-03-15T14:17:59Z</time>
      </trkpt>
      <trkpt lat="48.44626" lon="2.0737">
        <ele>48.203369</ele>
        <time>2009-03-15T14:18:08Z</time>
      </trkpt>
      <trkpt lat="48.44626" lon="2.07372">
        <ele>48.203369</ele>
        <time>2009-03-15T14:18:09Z</time>
      </trkpt>
      <trkpt lat="48.44625" lon="2.07385">
        <ele>48.203369</ele>
        <time>2009-03-15T14:18:16Z</time>
      </trkpt>
      <trkpt lat="48.44622" lon="2.07406">
        <ele>48.68396</ele>
        <time>2009-03-15T14:18:26Z</time>
      </trkpt>
      <trkpt lat="48.44622" lon="2.07411">
        <ele>49.164551</ele>
        <time>2009-03-15T14:18:28Z</time>
      </trkpt>
      <trkpt lat="48.44621" lon="2.07427">
        <ele>48.68396</ele>
        <time>2009-03-15T14:18:36Z</time>
      </trkpt>
      <trkpt lat="48.44618" lon="2.07447">
        <ele>50.125977</ele>
        <time>2009-03-15T14:18:46Z</time>
      </trkpt>
      <trkpt lat="48.44619" lon="2.07459">
        <ele>49.164551</ele>
        <time>2009-03-15T14:18:53Z</time>
      </trkpt>
      <trkpt lat="48.44618" lon="2.07474">
        <ele>49.645264</ele>
        <time>2009-03-15T14:19:00Z</time>
      </trkpt>
      <trkpt lat="48.44618" lon="2.07491">
        <ele>49.164551</ele>
        <time>2009-03-15T14:19:08Z</time>
      </trkpt>
      <trkpt lat="48.44617" lon="2.07508">
        <ele>49.645264</ele>
        <time>2009-03-15T14:19:15Z</time>
      </trkpt>
      <trkpt lat="48.44617" lon="2.07514">
        <ele>49.645264</ele>
        <time>2009-03-15T14:19:18Z</time>
      </trkpt>
      <trkpt lat="48.44615" lon="2.07532">
        <ele>50.125977</ele>
        <time>2009-03-15T14:19:26Z</time>
      </trkpt>
      <trkpt lat="48.44615" lon="2.07534">
        <ele>50.125977</ele>
        <time>2009-03-15T14:19:27Z</time>
      </trkpt>
      <trkpt lat="48.44611" lon="2.07551">
        <ele>50.125977</ele>
        <time>2009-03-15T14:19:36Z</time>
      </trkpt>
      <trkpt lat="48.44611" lon="2.07557">
        <ele>50.125977</ele>
        <time>2009-03-15T14:19:39Z</time>
      </trkpt>
      <trkpt lat="48.44612" lon="2.07562">
        <ele>50.125977</ele>
        <time>2009-03-15T14:19:42Z</time>
      </trkpt>
      <trkpt lat="48.44611" lon="2.07568">
        <ele>50.606567</ele>
        <time>2009-03-15T14:19:46Z</time>
      </trkpt>
      <trkpt lat="48.44611" lon="2.07587">
        <ele>51.087158</ele>
        <time>2009-03-15T14:19:55Z</time>
      </trkpt>
      <trkpt lat="48.4461" lon="2.07598">
        <ele>50.125977</ele>
        <time>2009-03-15T14:20:03Z</time>
      </trkpt>
      <trkpt lat="48.44609" lon="2.07612">
        <ele>51.087158</ele>
        <time>2009-03-15T14:20:12Z</time>
      </trkpt>
      <trkpt lat="48.44607" lon="2.07617">
        <ele>51.087158</ele>
        <time>2009-03-15T14:20:23Z</time>
      </trkpt>
      <trkpt lat="48.44606" lon="2.0763">
        <ele>51.087158</ele>
        <time>2009-03-15T14:21:10Z</time>
      </trkpt>
      <trkpt lat="48.44605" lon="2.0763">
        <ele>51.087158</ele>
        <time>2009-03-15T14:21:11Z</time>
      </trkpt>
      <trkpt lat="48.44601" lon="2.07631">
        <ele>51.087158</ele>
        <time>2009-03-15T14:21:15Z</time>
      </trkpt>
      <trkpt lat="48.44597" lon="2.0763">
        <ele>51.087158</ele>
        <time>2009-03-15T14:21:18Z</time>
      </trkpt>
      <trkpt lat="48.44593" lon="2.07628">
        <ele>50.606567</ele>
        <time>2009-03-15T14:21:22Z</time>
      </trkpt>
      <trkpt lat="48.44586" lon="2.07626">
        <ele>50.125977</ele>
        <time>2009-03-15T14:21:27Z</time>
      </trkpt>
      <trkpt lat="48.44576" lon="2.07621">
        <ele>50.125977</ele>
        <time>2009-03-15T14:21:36Z</time>
      </trkpt>
      <trkpt lat="48.44568" lon="2.07619">
        <ele>50.606567</ele>
        <time>2009-03-15T14:21:42Z</time>
      </trkpt>
      <trkpt lat="48.4456" lon="2.0762">
        <ele>50.606567</ele>
        <time>2009-03-15T14:21:49Z</time>
      </trkpt>
      <trkpt lat="48.44551" lon="2.0762">
        <ele>50.125977</ele>
        <time>2009-03-15T14:21:57Z</time>
      </trkpt>
      <trkpt lat="48.44543" lon="2.07616">
        <ele>50.606567</ele>
        <time>2009-03-15T14:22:04Z</time>
      </trkpt>
      <trkpt lat="48.44534" lon="2.07615">
        <ele>51.087158</ele>
        <time>2009-03-15T14:22:12Z</time>
      </trkpt>
      <trkpt lat="48.44522" lon="2.07611">
        <ele>49.645264</ele>
        <time>2009-03-15T14:22:22Z</time>
      </trkpt>
      <trkpt lat="48.44513" lon="2.07609">
        <ele>51.087158</ele>
        <time>2009-03-15T14:22:29Z</time>
      </trkpt>
      <trkpt lat="48.44506" lon="2.07608">
        <ele>51.087158</ele>
        <time>2009-03-15T14:22:35Z</time>
      </trkpt>
      <trkpt lat="48.44505" lon="2.07608">
        <ele>50.125977</ele>
        <time>2009-03-15T14:22:37Z</time>
      </trkpt>
      <trkpt lat="48.44495" lon="2.07606">
        <ele>51.087158</ele>
        <time>2009-03-15T14:22:45Z</time>
      </trkpt>
      <trkpt lat="48.44494" lon="2.07607">
        <ele>51.087158</ele>
        <time>2009-03-15T14:22:46Z</time>
      </trkpt>
      <trkpt lat="48.44492" lon="2.07607">
        <ele>49.645264</ele>
        <time>2009-03-15T14:22:48Z</time>
      </trkpt>
      <trkpt lat="48.44485" lon="2.07602">
        <ele>51.087158</ele>
        <time>2009-03-15T14:22:54Z</time>
      </trkpt>
      <trkpt lat="48.44479" lon="2.07599">
        <ele>51.087158</ele>
        <time>2009-03-15T14:23:00Z</time>
      </trkpt>
      <trkpt lat="48.44469" lon="2.07594">
        <ele>51.087158</ele>
        <time>2009-03-15T14:23:10Z</time>
      </trkpt>
      <trkpt lat="48.44459" lon="2.07594">
        <ele>51.567871</ele>
        <time>2009-03-15T14:23:21Z</time>
      </trkpt>
      <trkpt lat="48.44457" lon="2.07594">
        <ele>51.567871</ele>
        <time>2009-03-15T14:23:22Z</time>
      </trkpt>
      <trkpt lat="48.44445" lon="2.07587">
        <ele>51.567871</ele>
        <time>2009-03-15T14:23:31Z</time>
      </trkpt>
      <trkpt lat="48.44438" lon="2.07586">
        <ele>51.087158</ele>
        <time>2009-03-15T14:23:38Z</time>
      </trkpt>
      <trkpt lat="48.44437" lon="2.07585">
        <ele>51.567871</ele>
        <time>2009-03-15T14:23:39Z</time>
      </trkpt>
      <trkpt lat="48.44428" lon="2.07584">
        <ele>51.567871</ele>
        <time>2009-03-15T14:23:43Z</time>
      </trkpt>
      <trkpt lat="48.44419" lon="2.07581">
        <ele>52.048584</ele>
        <time>2009-03-15T14:23:53Z</time>
      </trkpt>
      <trkpt lat="48.44408" lon="2.07577">
        <ele>52.048584</ele>
        <time>2009-03-15T14:24:03Z</time>
      </trkpt>
      <trkpt lat="48.44397" lon="2.07573">
        <ele>52.048584</ele>
        <time>2009-03-15T14:24:11Z</time>
      </trkpt>
      <trkpt lat="48.4439" lon="2.07568">
        <ele>52.048584</ele>
        <time>2009-03-15T14:24:17Z</time>
      </trkpt>
      <trkpt lat="48.44379" lon="2.07566">
        <ele>52.048584</ele>
        <time>2009-03-15T14:24:26Z</time>
      </trkpt>
      <trkpt lat="48.44375" lon="2.07566">
        <ele>52.048584</ele>
        <time>2009-03-15T14:24:29Z</time>
      </trkpt>
      <trkpt lat="48.44369" lon="2.07568">
        <ele>52.048584</ele>
        <time>2009-03-15T14:24:34Z</time>
      </trkpt>
      <trkpt lat="48.4436" lon="2.07562">
        <ele>52.048584</ele>
        <time>2009-03-15T14:24:40Z</time>
      </trkpt>
      <trkpt lat="48.4435" lon="2.07561">
        <ele>52.048584</ele>
        <time>2009-03-15T14:24:48Z</time>
      </trkpt>
      <trkpt lat="48.44342" lon="2.07562">
        <ele>52.048584</ele>
        <time>2009-03-15T14:24:56Z</time>
      </trkpt>
      <trkpt lat="48.44334" lon="2.0756">
        <ele>52.529175</ele>
        <time>2009-03-15T14:25:03Z</time>
      </trkpt>
      <trkpt lat="48.44322" lon="2.07558">
        <ele>52.529175</ele>
        <time>2009-03-15T14:25:11Z</time>
      </trkpt>
      <trkpt lat="48.44317" lon="2.07556">
        <ele>52.529175</ele>
        <time>2009-03-15T14:25:17Z</time>
      </trkpt>
      <trkpt lat="48.44308" lon="2.07554">
        <ele>52.529175</ele>
        <time>2009-03-15T14:25:25Z</time>
      </trkpt>
      <trkpt lat="48.44295" lon="2.07553">
        <ele>52.529175</ele>
        <time>2009-03-15T14:25:34Z</time>
      </trkpt>
      <trkpt lat="48.44285" lon="2.0755">
        <ele>53.009766</ele>
        <time>2009-03-15T14:25:42Z</time>
      </trkpt>
      <trkpt lat="48.44276" lon="2.07547">
        <ele>53.009766</ele>
        <time>2009-03-15T14:25:50Z</time>
      </trkpt>
      <trkpt lat="48.44268" lon="2.07548">
        <ele>53.009766</ele>
        <time>2009-03-15T14:25:57Z</time>
      </trkpt>
      <trkpt lat="48.44261" lon="2.07545">
        <ele>53.009766</ele>
        <time>2009-03-15T14:26:05Z</time>
      </trkpt>
      <trkpt lat="48.44254" lon="2.07542">
        <ele>53.009766</ele>
        <time>2009-03-15T14:26:10Z</time>
      </trkpt>
      <trkpt lat="48.44244" lon="2.07541">
        <ele>53.009766</ele>
        <time>2009-03-15T14:26:19Z</time>
      </trkpt>
      <trkpt lat="48.44236" lon="2.07539">
        <ele>53.009766</ele>
        <time>2009-03-15T14:26:27Z</time>
      </trkpt>
      <trkpt lat="48.44225" lon="2.07537">
        <ele>53.490479</ele>
        <time>2009-03-15T14:26:36Z</time>
      </trkpt>
      <trkpt lat="48.44216" lon="2.07534">
        <ele>53.490479</ele>
        <time>2009-03-15T14:26:44Z</time>
      </trkpt>
      <trkpt lat="48.44209" lon="2.07532">
        <ele>53.490479</ele>
        <time>2009-03-15T14:26:52Z</time>
      </trkpt>
      <trkpt lat="48.44198" lon="2.07529">
        <ele>53.490479</ele>
        <time>2009-03-15T14:27:00Z</time>
      </trkpt>
      <trkpt lat="48.44189" lon="2.07522">
        <ele>53.490479</ele>
        <time>2009-03-15T14:27:08Z</time>
      </trkpt>
      <trkpt lat="48.44184" lon="2.07519">
        <ele>53.009766</ele>
        <time>2009-03-15T14:27:12Z</time>
      </trkpt>
      <trkpt lat="48.44176" lon="2.07516">
        <ele>53.009766</ele>
        <time>2009-03-15T14:27:21Z</time>
      </trkpt>
      <trkpt lat="48.44165" lon="2.0751">
        <ele>53.490479</ele>
        <time>2009-03-15T14:27:30Z</time>
      </trkpt>
      <trkpt lat="48.44155" lon="2.07509">
        <ele>53.009766</ele>
        <time>2009-03-15T14:27:38Z</time>
      </trkpt>
      <trkpt lat="48.44144" lon="2.07509">
        <ele>53.009766</ele>
        <time>2009-03-15T14:27:46Z</time>
      </trkpt>
      <trkpt lat="48.44134" lon="2.0751">
        <ele>53.009766</ele>
        <time>2009-03-15T14:27:54Z</time>
      </trkpt>
      <trkpt lat="48.44124" lon="2.0751">
        <ele>52.529175</ele>
        <time>2009-03-15T14:28:01Z</time>
      </trkpt>
      <trkpt lat="48.44117" lon="2.07508">
        <ele>52.529175</ele>
        <time>2009-03-15T14:28:07Z</time>
      </trkpt>
      <trkpt lat="48.44109" lon="2.07508">
        <ele>53.009766</ele>
        <time>2009-03-15T14:28:14Z</time>
      </trkpt>
      <trkpt lat="48.441" lon="2.07504">
        <ele>53.009766</ele>
        <time>2009-03-15T14:28:22Z</time>
      </trkpt>
      <trkpt lat="48.44094" lon="2.07505">
        <ele>52.529175</ele>
        <time>2009-03-15T14:28:30Z</time>
      </trkpt>
      <trkpt lat="48.44081" lon="2.07502">
        <ele>53.009766</ele>
        <time>2009-03-15T14:28:40Z</time>
      </trkpt>
      <trkpt lat="48.4407" lon="2.07499">
        <ele>52.529175</ele>
        <time>2009-03-15T14:28:49Z</time>
      </trkpt>
      <trkpt lat="48.44061" lon="2.07495">
        <ele>52.529175</ele>
        <time>2009-03-15T14:28:56Z</time>
      </trkpt>
      <trkpt lat="48.44052" lon="2.07491">
        <ele>52.048584</ele>
        <time>2009-03-15T14:29:03Z</time>
      </trkpt>
      <trkpt lat="48.44042" lon="2.07491">
        <ele>52.048584</ele>
        <time>2009-03-15T14:29:11Z</time>
      </trkpt>
      <trkpt lat="48.44032" lon="2.07491">
        <ele>52.529175</ele>
        <time>2009-03-15T14:29:19Z</time>
      </trkpt>
      <trkpt lat="48.44024" lon="2.07493">
        <ele>52.048584</ele>
        <time>2009-03-15T14:29:28Z</time>
      </trkpt>
      <trkpt lat="48.44023" lon="2.07495">
        <ele>52.048584</ele>
        <time>2009-03-15T14:29:30Z</time>
      </trkpt>
      <trkpt lat="48.44019" lon="2.07493">
        <ele>51.567871</ele>
        <time>2009-03-15T14:29:35Z</time>
      </trkpt>
      <trkpt lat="48.44014" lon="2.07495">
        <ele>51.567871</ele>
        <time>2009-03-15T14:29:39Z</time>
      </trkpt>
      <trkpt lat="48.44015" lon="2.07508">
        <ele>51.567871</ele>
        <time>2009-03-15T14:29:47Z</time>
      </trkpt>
      <trkpt lat="48.44017" lon="2.07522">
        <ele>52.048584</ele>
        <time>2009-03-15T14:29:57Z</time>
      </trkpt>
      <trkpt lat="48.4402" lon="2.07528">
        <ele>52.048584</ele>
        <time>2009-03-15T14:30:02Z</time>
      </trkpt>
      <trkpt lat="48.4402" lon="2.07546">
        <ele>52.048584</ele>
        <time>2009-03-15T14:30:12Z</time>
      </trkpt>
      <trkpt lat="48.4402" lon="2.07564">
        <ele>51.567871</ele>
        <time>2009-03-15T14:30:21Z</time>
      </trkpt>
      <trkpt lat="48.44019" lon="2.07585">
        <ele>51.087158</ele>
        <time>2009-03-15T14:30:31Z</time>
      </trkpt>
      <trkpt lat="48.44019" lon="2.07601">
        <ele>51.567871</ele>
        <time>2009-03-15T14:30:40Z</time>
      </trkpt>
      <trkpt lat="48.44018" lon="2.07615">
        <ele>51.567871</ele>
        <time>2009-03-15T14:30:49Z</time>
      </trkpt>
      <trkpt lat="48.44011" lon="2.07625">
        <ele>51.567871</ele>
        <time>2009-03-15T14:30:58Z</time>
      </trkpt>
      <trkpt lat="48.43995" lon="2.07644">
        <ele>51.087158</ele>
        <time>2009-03-15T14:31:09Z</time>
      </trkpt>
      <trkpt lat="48.43994" lon="2.07645">
        <ele>51.567871</ele>
        <time>2009-03-15T14:31:10Z</time>
      </trkpt>
      <trkpt lat="48.43987" lon="2.07647">
        <ele>51.087158</ele>
        <time>2009-03-15T14:31:17Z</time>
      </trkpt>
      <trkpt lat="48.43981" lon="2.07654">
        <ele>51.087158</ele>
        <time>2009-03-15T14:31:21Z</time>
      </trkpt>
      <trkpt lat="48.43973" lon="2.07657">
        <ele>50.606567</ele>
        <time>2009-03-15T14:31:29Z</time>
      </trkpt>
      <trkpt lat="48.43972" lon="2.07658">
        <ele>51.087158</ele>
        <time>2009-03-15T14:31:30Z</time>
      </trkpt>
      <trkpt lat="48.43967" lon="2.07666">
        <ele>50.606567</ele>
        <time>2009-03-15T14:31:35Z</time>
      </trkpt>
      <trkpt lat="48.43961" lon="2.07673">
        <ele>50.606567</ele>
        <time>2009-03-15T14:31:43Z</time>
      </trkpt>
      <trkpt lat="48.4396" lon="2.07675">
        <ele>50.606567</ele>
        <time>2009-03-15T14:31:45Z</time>
      </trkpt>
      <trkpt lat="48.43953" lon="2.07683">
        <ele>50.606567</ele>
        <time>2009-03-15T14:31:53Z</time>
      </trkpt>
      <trkpt lat="48.43952" lon="2.07683">
        <ele>50.606567</ele>
        <time>2009-03-15T14:31:54Z</time>
      </trkpt>
      <trkpt lat="48.43943" lon="2.07691">
        <ele>50.125977</ele>
        <time>2009-03-15T14:32:03Z</time>
      </trkpt>
      <trkpt lat="48.43931" lon="2.07695">
        <ele>50.125977</ele>
        <time>2009-03-15T14:32:13Z</time>
      </trkpt>
      <trkpt lat="48.43918" lon="2.07703">
        <ele>50.125977</ele>
        <time>2009-03-15T14:32:23Z</time>
      </trkpt>
      <trkpt lat="48.4391" lon="2.07712">
        <ele>49.645264</ele>
        <time>2009-03-15T14:32:30Z</time>
      </trkpt>
      <trkpt lat="48.439" lon="2.07712">
        <ele>49.164551</ele>
        <time>2009-03-15T14:32:39Z</time>
      </trkpt>
      <trkpt lat="48.43889" lon="2.07715">
        <ele>49.164551</ele>
        <time>2009-03-15T14:32:47Z</time>
      </trkpt>
      <trkpt lat="48.43881" lon="2.07727">
        <ele>49.164551</ele>
        <time>2009-03-15T14:32:55Z</time>
      </trkpt>
      <trkpt lat="48.43873" lon="2.07733">
        <ele>48.68396</ele>
        <time>2009-03-15T14:33:02Z</time>
      </trkpt>
      <trkpt lat="48.43862" lon="2.07736">
        <ele>48.203369</ele>
        <time>2009-03-15T14:33:10Z</time>
      </trkpt>
      <trkpt lat="48.43858" lon="2.07732">
        <ele>48.203369</ele>
        <time>2009-03-15T14:33:12Z</time>
      </trkpt>
      <trkpt lat="48.43851" lon="2.07738">
        <ele>48.203369</ele>
        <time>2009-03-15T14:33:19Z</time>
      </trkpt>
      <trkpt lat="48.43844" lon="2.07745">
        <ele>48.203369</ele>
        <time>2009-03-15T14:33:25Z</time>
      </trkpt>
      <trkpt lat="48.43843" lon="2.07747">
        <ele>48.203369</ele>
        <time>2009-03-15T14:33:26Z</time>
      </trkpt>
      <trkpt lat="48.43835" lon="2.07756">
        <ele>47.241821</ele>
        <time>2009-03-15T14:33:35Z</time>
      </trkpt>
      <trkpt lat="48.43826" lon="2.07764">
        <ele>46.76123</ele>
        <time>2009-03-15T14:33:43Z</time>
      </trkpt>
      <trkpt lat="48.43821" lon="2.07772">
        <ele>46.76123</ele>
        <time>2009-03-15T14:33:48Z</time>
      </trkpt>
      <trkpt lat="48.43819" lon="2.07795">
        <ele>46.28064</ele>
        <time>2009-03-15T14:33:53Z</time>
      </trkpt>
      <trkpt lat="48.43812" lon="2.07796">
        <ele>45.799927</ele>
        <time>2009-03-15T14:34:01Z</time>
      </trkpt>
      <trkpt lat="48.43807" lon="2.078">
        <ele>44.838623</ele>
        <time>2009-03-15T14:34:07Z</time>
      </trkpt>
      <trkpt lat="48.43804" lon="2.07809">
        <ele>45.319214</ele>
        <time>2009-03-15T14:34:09Z</time>
      </trkpt>
      <trkpt lat="48.43801" lon="2.07823">
        <ele>43.877319</ele>
        <time>2009-03-15T14:34:16Z</time>
      </trkpt>
      <trkpt lat="48.43795" lon="2.07831">
        <ele>43.396606</ele>
        <time>2009-03-15T14:34:23Z</time>
      </trkpt>
      <trkpt lat="48.43789" lon="2.07834">
        <ele>41.954712</ele>
        <time>2009-03-15T14:34:31Z</time>
      </trkpt>
      <trkpt lat="48.43783" lon="2.07844">
        <ele>40.032104</ele>
        <time>2009-03-15T14:34:41Z</time>
      </trkpt>
      <trkpt lat="48.43776" lon="2.0785">
        <ele>38.590088</ele>
        <time>2009-03-15T14:34:49Z</time>
      </trkpt>
      <trkpt lat="48.43765" lon="2.07852">
        <ele>36.66748</ele>
        <time>2009-03-15T14:35:00Z</time>
      </trkpt>
      <trkpt lat="48.43755" lon="2.07853">
        <ele>35.225464</ele>
        <time>2009-03-15T14:35:09Z</time>
      </trkpt>
      <trkpt lat="48.43746" lon="2.07857">
        <ele>34.26416</ele>
        <time>2009-03-15T14:35:17Z</time>
      </trkpt>
      <trkpt lat="48.43736" lon="2.07853">
        <ele>32.341553</ele>
        <time>2009-03-15T14:35:26Z</time>
      </trkpt>
      <trkpt lat="48.43731" lon="2.07852">
        <ele>31.380127</ele>
        <time>2009-03-15T14:35:30Z</time>
      </trkpt>
      <trkpt lat="48.43729" lon="2.07852">
        <ele>30.899536</ele>
        <time>2009-03-15T14:35:32Z</time>
      </trkpt>
      <trkpt lat="48.43722" lon="2.07847">
        <ele>30.418823</ele>
        <time>2009-03-15T14:35:39Z</time>
      </trkpt>
      <trkpt lat="48.43713" lon="2.07845">
        <ele>28.496216</ele>
        <time>2009-03-15T14:35:47Z</time>
      </trkpt>
      <trkpt lat="48.43706" lon="2.07839">
        <ele>27.534912</ele>
        <time>2009-03-15T14:35:54Z</time>
      </trkpt>
      <trkpt lat="48.43699" lon="2.07835">
        <ele>26.573608</ele>
        <time>2009-03-15T14:36:02Z</time>
      </trkpt>
      <trkpt lat="48.43693" lon="2.07832">
        <ele>25.612305</ele>
        <time>2009-03-15T14:36:09Z</time>
      </trkpt>
      <trkpt lat="48.43682" lon="2.07827">
        <ele>23.689575</ele>
        <time>2009-03-15T14:36:18Z</time>
      </trkpt>
      <trkpt lat="48.43673" lon="2.07823">
        <ele>22.728271</ele>
        <time>2009-03-15T14:36:27Z</time>
      </trkpt>
      <trkpt lat="48.43661" lon="2.07815">
        <ele>21.766968</ele>
        <time>2009-03-15T14:36:36Z</time>
      </trkpt>
      <trkpt lat="48.4365" lon="2.07814">
        <ele>20.805664</ele>
        <time>2009-03-15T14:36:46Z</time>
      </trkpt>
      <trkpt lat="48.43644" lon="2.07813">
        <ele>19.36377</ele>
        <time>2009-03-15T14:36:51Z</time>
      </trkpt>
      <trkpt lat="48.43635" lon="2.07811">
        <ele>17.441162</ele>
        <time>2009-03-15T14:37:00Z</time>
      </trkpt>
      <trkpt lat="48.43625" lon="2.07806">
        <ele>15.999023</ele>
        <time>2009-03-15T14:37:10Z</time>
      </trkpt>
      <trkpt lat="48.43617" lon="2.07804">
        <ele>15.03772</ele>
        <time>2009-03-15T14:37:17Z</time>
      </trkpt>
      <trkpt lat="48.43605" lon="2.07804">
        <ele>13.595825</ele>
        <time>2009-03-15T14:37:29Z</time>
      </trkpt>
      <trkpt lat="48.43594" lon="2.078">
        <ele>12.634399</ele>
        <time>2009-03-15T14:37:39Z</time>
      </trkpt>
      <trkpt lat="48.43586" lon="2.07799">
        <ele>11.192505</ele>
        <time>2009-03-15T14:37:46Z</time>
      </trkpt>
      <trkpt lat="48.4358" lon="2.07797">
        <ele>9.75061</ele>
        <time>2009-03-15T14:37:52Z</time>
      </trkpt>
      <trkpt lat="48.4357" lon="2.07796">
        <ele>8.308594</ele>
        <time>2009-03-15T14:38:00Z</time>
      </trkpt>
      <trkpt lat="48.43561" lon="2.07792">
        <ele>7.347168</ele>
        <time>2009-03-15T14:38:09Z</time>
      </trkpt>
      <trkpt lat="48.43552" lon="2.07788">
        <ele>5.905273</ele>
        <time>2009-03-15T14:38:16Z</time>
      </trkpt>
      <trkpt lat="48.43542" lon="2.07786">
        <ele>4.943848</ele>
        <time>2009-03-15T14:38:24Z</time>
      </trkpt>
      <trkpt lat="48.43532" lon="2.07782">
        <ele>4.463257</ele>
        <time>2009-03-15T14:38:32Z</time>
      </trkpt>
      <trkpt lat="48.43529" lon="2.07777">
        <ele>3.982666</ele>
        <time>2009-03-15T14:38:37Z</time>
      </trkpt>
      <trkpt lat="48.43526" lon="2.07775">
        <ele>3.982666</ele>
        <time>2009-03-15T14:38:41Z</time>
      </trkpt>
      <trkpt lat="48.43518" lon="2.07767">
        <ele>3.02124</ele>
        <time>2009-03-15T14:38:50Z</time>
      </trkpt>
      <trkpt lat="48.4351" lon="2.07759">
        <ele>2.540649</ele>
        <time>2009-03-15T14:38:59Z</time>
      </trkpt>
      <trkpt lat="48.43501" lon="2.07753">
        <ele>1.579346</ele>
        <time>2009-03-15T14:39:06Z</time>
      </trkpt>
      <trkpt lat="48.43496" lon="2.07747">
        <ele>-0.343384</ele>
        <time>2009-03-15T14:39:13Z</time>
      </trkpt>
      <trkpt lat="48.43495" lon="2.07747">
        <ele>-0.343384</ele>
        <time>2009-03-15T14:39:14Z</time>
      </trkpt>
      <trkpt lat="48.43484" lon="2.07739">
        <ele>-0.824097</ele>
        <time>2009-03-15T14:39:24Z</time>
      </trkpt>
      <trkpt lat="48.43473" lon="2.07732">
        <ele>-1.785278</ele>
        <time>2009-03-15T14:39:33Z</time>
      </trkpt>
      <trkpt lat="48.43466" lon="2.07724">
        <ele>-2.265991</ele>
        <time>2009-03-15T14:39:41Z</time>
      </trkpt>
      <trkpt lat="48.43457" lon="2.07723">
        <ele>-3.707886</ele>
        <time>2009-03-15T14:39:51Z</time>
      </trkpt>
      <trkpt lat="48.43451" lon="2.07723">
        <ele>-4.188599</ele>
        <time>2009-03-15T14:39:56Z</time>
      </trkpt>
      <trkpt lat="48.43441" lon="2.07722">
        <ele>-5.149902</ele>
        <time>2009-03-15T14:40:06Z</time>
      </trkpt>
      <trkpt lat="48.43433" lon="2.07718">
        <ele>-5.630493</ele>
        <time>2009-03-15T14:40:14Z</time>
      </trkpt>
      <trkpt lat="48.43426" lon="2.07716">
        <ele>-6.111206</ele>
        <time>2009-03-15T14:40:19Z</time>
      </trkpt>
      <trkpt lat="48.43418" lon="2.0772">
        <ele>-6.591919</ele>
        <time>2009-03-15T14:40:25Z</time>
      </trkpt>
      <trkpt lat="48.43413" lon="2.07725">
        <ele>-6.591919</ele>
        <time>2009-03-15T14:40:31Z</time>
      </trkpt>
      <trkpt lat="48.43402" lon="2.07732">
        <ele>-7.07251</ele>
        <time>2009-03-15T14:40:41Z</time>
      </trkpt>
      <trkpt lat="48.43392" lon="2.07731">
        <ele>-6.591919</ele>
        <time>2009-03-15T14:40:49Z</time>
      </trkpt>
      <trkpt lat="48.43386" lon="2.07719">
        <ele>-7.07251</ele>
        <time>2009-03-15T14:40:57Z</time>
      </trkpt>
      <trkpt lat="48.43382" lon="2.07712">
        <ele>-7.553101</ele>
        <time>2009-03-15T14:41:03Z</time>
      </trkpt>
      <trkpt lat="48.43376" lon="2.07703">
        <ele>-8.033936</ele>
        <time>2009-03-15T14:41:11Z</time>
      </trkpt>
      <trkpt lat="48.43373" lon="2.07693">
        <ele>-8.033936</ele>
        <time>2009-03-15T14:41:18Z</time>
      </trkpt>
      <trkpt lat="48.4337" lon="2.07685">
        <ele>-8.514648</ele>
        <time>2009-03-15T14:41:25Z</time>
      </trkpt>
      <trkpt lat="48.43367" lon="2.07673">
        <ele>-8.995239</ele>
        <time>2009-03-15T14:41:34Z</time>
      </trkpt>
      <trkpt lat="48.43363" lon="2.07659">
        <ele>-8.995239</ele>
        <time>2009-03-15T14:41:44Z</time>
      </trkpt>
      <trkpt lat="48.43359" lon="2.07642">
        <ele>-9.956543</ele>
        <time>2009-03-15T14:41:54Z</time>
      </trkpt>
      <trkpt lat="48.43355" lon="2.07628">
        <ele>-9.956543</ele>
        <time>2009-03-15T14:42:02Z</time>
      </trkpt>
      <trkpt lat="48.43348" lon="2.07612">
        <ele>-10.437256</ele>
        <time>2009-03-15T14:42:10Z</time>
      </trkpt>
      <trkpt lat="48.43345" lon="2.07601">
        <ele>-10.437256</ele>
        <time>2009-03-15T14:42:17Z</time>
      </trkpt>
      <trkpt lat="48.43343" lon="2.0759">
        <ele>-9.956543</ele>
        <time>2009-03-15T14:42:23Z</time>
      </trkpt>
      <trkpt lat="48.43341" lon="2.07583">
        <ele>-9.956543</ele>
        <time>2009-03-15T14:42:29Z</time>
      </trkpt>
    </trkseg>
  </trk>
</gpx>